[[[{"header":{"parameterUnit":"kt","parameterCategory":2,"dx":1,"dy":1,"la1":29.285339999999998,"la2":30.599998999999997,"lo1":-89.70041500000002,"lo2":-87.6738589999976,"nx":112,"ny":82,"refTime":"2022-10-24T12:00:00:Z","depth":0,"parameterNumber":1,"parameterNumberName":"U-component_of_WINDS"},"data":[-0.0,-0.0,-0.2411,-1.2087,-1.983,-2.4815,-2.4468,-2.5874,-2.807,0.0,0.0,0.0,0.0,0.0,0.0,0.0,0.0,0.0,0.0,0.0,0.0,0.0,0.0,0.0,0.0,0.0,0.0,0.0,0.0,0.0,0.0,-9.5914,-9.578,-9.4649,-9.7429,-10.0086,-10.2337,-10.4614,-10.7073,-10.9761,-11.3314,-11.5752,-11.7497,-12.3792,-12.6922,-12.7853,-13.1132,-13.0332,-12.7149,-12.7511,-12.5138,-12.1411,-12.241,-12.336,-12.4279,-12.7742,-13.0174,-13.1573,-13.1573,-13.1573,-13.1573,-13.1573,-13.1573,-13.1709,-13.2371,-13.259,-13.2853,-13.41,-13.4424,-13.4971,-13.7445,-14.0414,-14.3439,-14.6209,-14.9236,-15.2043,-15.4039,-15.3859,-15.3676,-15.4812,-15.4127,-15.3085,-15.2325,-15.1796,-15.1281,-15.0386,-15.0267,-15.0267,-15.0267,-15.0267,-15.0267,-15.0267,-15.0267,-15.0267,-15.0267,-15.0267,-15.0267,-15.0267,-14.6962,-14.4109,-14.1972,-13.8529,-13.7074,-13.7773,-13.7333,-13.831,-14.0505,-14.0122,-13.9556,-13.9006,-13.7751,-13.8198,-0.0,-0.3478,-0.8949,-1.7591,-2.1571,-2.3915,-2.4472,-2.6312,0.0,0.0,0.0,0.0,0.0,0.0,0.0,0.0,0.0,0.0,0.0,0.0,0.0,0.0,0.0,0.0,0.0,0.0,0.0,0.0,0.0,0.0,-9.8469,-9.9428,-9.9369,-9.8611,-10.1226,-10.3303,-10.4462,-10.6344,-10.8585,-11.0993,-11.4485,-11.7575,-12.0167,-12.5916,-12.904,-12.9863,-13.1474,-13.0456,-12.7637,-12.7838,-12.5235,-12.1563,-12.386,-12.4762,-12.5101,-12.8656,-13.0685,-13.1573,-13.1573,-13.1573,-13.1677,-13.1944,-13.2146,-13.2272,-13.3374,-13.3728,-13.3742,-13.4494,-13.4733,-13.5307,-13.7835,-14.033,-14.3311,-14.7188,-15.0098,-15.2644,-15.5142,-15.5131,-15.4894,-15.612,-15.5369,-15.4127,-15.2988,-15.279,-15.2252,-15.0433,-15.0267,-15.0267,-15.0267,-15.0267,-15.0267,-15.0267,-15.0267,-15.0267,-15.0267,-15.0267,-15.0267,-15.0267,-14.704,-14.4522,-14.2957,-13.9685,-13.7952,-13.8198,-13.8198,-13.9127,-14.092,-14.092,-14.092,-14.092,-13.9674,-13.9791,-0.0566,-1.0583,-1.9716,-1.5581,-1.7585,-2.1305,-2.4953,0.0,-3.0903,0.0,0.0,0.0,0.0,0.0,0.0,0.0,0.0,0.0,0.0,0.0,0.0,0.0,0.0,0.0,0.0,0.0,0.0,0.0,-9.907,-10.1251,-10.5287,-10.5358,-10.5456,-10.5456,-10.5338,-10.5916,-10.7259,-10.7318,-10.8655,-11.1418,-11.6598,-12.032,-12.3059,-12.9488,-13.225,-13.2178,-13.2012,-13.0267,-12.776,-12.7955,-12.5385,-12.1799,-12.5101,-12.6476,-12.6857,-13.0285,-13.1573,-13.1573,-13.1573,-13.1573,-13.1709,-13.2875,-13.3175,-13.3374,-13.4413,-13.4733,-13.4811,-13.4811,-13.4811,-13.5545,-13.8774,-14.0747,-14.3167,-14.8008,-15.0355,-15.2318,-15.5154,-15.575,-15.612,-15.7371,-15.6621,-15.5369,-15.4127,-15.3949,-15.3206,-15.0667,-15.0267,-15.0267,-15.0267,-15.0267,-15.0267,-15.0267,-15.0267,-15.0267,-15.0267,-15.0267,-15.0267,-15.0267,-14.7342,-14.4781,-14.3015,-13.9938,-13.8323,-13.8323,-13.8323,-13.9127,-14.092,-14.092,-14.092,-14.092,-14.092,-14.092,-1.2109,-1.6813,-1.8773,-1.8186,-1.8918,-2.0727,0.0,0.0,0.0,0.0,0.0,0.0,0.0,0.0,0.0,0.0,0.0,-6.0852,0.0,0.0,0.0,0.0,0.0,0.0,0.0,0.0,-10.1333,-10.4566,-10.5392,-10.5996,-10.6698,-10.7747,-10.7725,-10.6794,-10.6714,-10.6889,-10.7259,-10.8166,-11.1302,-11.6837,-11.9191,-12.2715,-12.7021,-13.0752,-13.1163,-12.936,-13.012,-12.9492,-12.7955,-12.7005,-12.5901,-12.5235,-12.7427,-12.8418,-12.8656,-13.0793,-13.1573,-13.1573,-13.1573,-13.1573,-13.1709,-13.2875,-13.3175,-13.3463,-13.5342,-13.5842,-13.6053,-13.6712,-13.6969,-13.7591,-14.005,-14.1907,-14.4346,-14.93,-15.1741,-15.3598,-15.6526,-15.7105,-15.7233,-15.757,-15.7371,-15.6408,-15.4303,-15.4645,-15.439,-15.2009,-15.1651,-15.1321,-15.0386,-15.0267,-15.0267,-15.0267,-15.0267,-15.0267,-15.0267,-15.0267,-15.0267,-15.0267,-14.7342,-14.4827,-14.3266,-14.1276,-14.021,-14.021,-14.021,-14.0396,-14.092,-14.092,-14.092,-14.092,-14.092,-14.092,0.0,0.0,0.0,0.0,0.0,0.0,-2.5362,0.0,-3.0277,0.0,0.0,0.0,0.0,0.0,0.0,0.0,-6.4984,0.0,0.0,0.0,0.0,0.0,0.0,0.0,-9.9287,-10.2702,-10.5784,-10.799,-10.9095,-10.9367,-10.8863,-11.1642,-11.154,-10.833,-10.9242,-10.946,-10.8888,-11.0742,-11.4549,-12.038,-12.2992,-12.6275,-13.0117,-13.1645,-13.1038,-12.8837,-12.9737,-12.8922,-12.7228,-12.7962,-12.7463,-12.6604,-12.9125,-13.0174,-13.0174,-13.1186,-13.1914,-13.2272,-13.2272,-13.2494,-13.299,-13.364,-13.4082,-13.4811,-13.6384,-13.6969,-13.7029,-13.7633,-13.8339,-13.9352,-14.1348,-14.301,-14.5317,-14.9698,-15.1932,-15.3703,-15.6089,-15.7108,-15.7631,-15.7631,-15.7631,-15.7039,-15.505,-15.529,-15.5131,-15.3279,-15.2561,-15.1903,-15.1169,-15.0551,-15.0267,-15.0267,-15.0267,-15.0267,-15.0267,-15.0267,-15.0053,-14.934,-14.7627,-14.5558,-14.3346,-14.1776,-14.092,-14.092,-14.092,-14.092,-14.092,-14.092,-14.092,-14.092,-14.092,-14.092,0.0,0.0,0.0,0.0,-1.8381,-2.022,0.0,0.0,-3.1883,-4.0631,0.0,0.0,0.0,0.0,0.0,0.0,0.0,0.0,-7.7381,0.0,0.0,0.0,-10.5723,-10.8308,-10.2251,-10.4462,-10.7027,-10.9134,-11.1524,-11.2434,-11.1622,-11.6144,-11.6162,-11.0722,-11.2486,-11.2977,-11.1639,-11.4407,-11.823,-12.2904,-12.6789,-12.9911,-13.2287,-13.2012,-13.1287,-12.9965,-12.9962,-12.872,-12.6795,-12.9827,-12.9414,-12.7233,-13.0395,-13.1573,-13.1573,-13.1709,-13.2371,-13.3175,-13.3284,-13.3913,-13.4733,-13.4733,-13.5416,-13.6384,-13.7336,-13.7762,-13.7815,-13.7815,-13.9012,-14.0732,-14.2451,-14.4022,-14.6041,-14.9481,-15.1275,-15.2846,-15.4715,-15.6285,-15.7407,-15.7631,-15.7631,-15.7233,-15.612,-15.5899,-15.5524,-15.4303,-15.3279,-15.2459,-15.222,-15.1169,-15.0386,-15.0267,-15.0267,-15.0267,-15.0267,-15.0125,-14.9411,-14.8055,-14.7627,-14.6129,-14.3346,-14.1776,-14.092,-14.092,-14.092,-14.092,-14.092,-14.092,-14.092,-14.092,-14.092,-14.092,-1.754,-1.702,-1.6877,-1.7484,-1.9429,-2.2925,0.0,0.0,0.0,0.0,0.0,0.0,0.0,0.0,0.0,0.0,0.0,0.0,0.0,-9.4936,0.0,-10.6608,-10.7506,-10.7015,-10.4888,-10.58,-10.753,-10.9943,-11.5672,-11.7871,-11.5857,-11.8559,-11.9491,-11.8378,-11.7743,-11.7394,-11.7156,-11.8655,-12.1483,-12.5692,-12.7552,-12.9653,-13.2027,-13.2073,-13.1279,-13.0047,-12.9021,-12.9121,-13.0145,-12.9754,-12.9936,-13.0614,-13.1292,-13.1573,-13.1709,-13.2494,-13.299,-13.3284,-13.4082,-13.4574,-13.4733,-13.4733,-13.5416,-13.6319,-13.6448,-13.7221,-13.7815,-13.7815,-13.9012,-14.0732,-14.2451,-14.4022,-14.6041,-14.9481,-15.0453,-15.15,-15.4491,-15.5388,-15.5986,-15.7407,-15.7631,-15.757,-15.7371,-15.7233,-15.6824,-15.5598,-15.5211,-15.4303,-15.2459,-15.2009,-15.1432,-15.0386,-15.0267,-15.0267,-15.0267,-14.9126,-14.827,-14.7913,-14.5558,-14.3846,-14.3275,-14.1776,-14.092,-14.092,-14.092,-14.092,-14.092,-14.092,-14.092,-14.092,-14.092,-14.092,-1.7007,-1.693,-1.7035,-1.7471,-2.0187,0.0,0.0,-3.337,-3.9007,-4.6429,-5.5056,-6.2207,-6.5901,-7.2668,-7.8448,-8.035,-8.6499,-9.2059,-9.544,-10.3008,-10.8051,-10.8316,-10.7106,-10.665,-10.7027,-10.763,-10.9065,-11.2065,-11.7968,-12.0578,-11.8678,-12.268,-12.3733,-12.057,-12.1141,-12.0974,-12.0287,-12.2377,-12.5052,-12.8191,-12.9481,-13.0838,-13.1911,-13.0465,-12.961,-12.9101,-12.8558,-12.8963,-13.0131,-13.0233,-13.0793,-13.1573,-13.1573,-13.1843,-13.2469,-13.299,-13.3828,-13.4811,-13.5342,-13.5772,-13.6253,-13.6253,-13.6649,-13.7029,-13.7029,-13.7393,-13.7965,-13.8862,-14.0283,-14.2003,-14.3648,-14.5218,-14.6863,-14.8583,-14.963,-15.0677,-15.2322,-15.3294,-15.4341,-15.6061,-15.5687,-15.5089,-15.5089,-15.5837,-15.6164,-15.5491,-15.56,-15.529,-15.4127,-15.3469,-15.259,-15.1321,-15.0562,-14.9794,-14.9126,-14.7699,-14.6414,-14.563,-14.4131,-14.2918,-14.2133,-14.1348,-14.092,-14.092,-14.092,-14.092,-14.092,-14.092,-14.092,-14.092,-14.092,-14.092,-1.6486,-1.6798,-1.7286,-1.7629,-2.087,0.0,-2.8712,-3.3899,-4.026,0.0,-5.715,-6.4378,-6.9461,-7.659,-8.2791,-8.6594,-9.0643,-9.6262,-10.3779,-10.7105,-10.8488,-10.6989,-10.6227,-10.6363,-10.8252,-10.9292,-11.1275,-11.4738,-11.8898,-12.1127,-12.1154,-12.6296,-12.7279,-12.2441,-12.4268,-12.4831,-12.3659,-12.5923,-12.7931,-12.9873,-13.1056,-13.1451,-13.1056,-12.9173,-12.8236,-12.8274,-12.8773,-12.9256,-12.9724,-13.1079,-13.1573,-13.1677,-13.1812,-13.2469,-13.3266,-13.364,-13.4889,-13.6319,-13.6448,-13.7088,-13.7815,-13.7815,-13.7815,-13.7815,-13.7815,-13.7815,-13.8114,-13.946,-14.133,-14.3274,-14.4844,-14.6489,-14.7761,-14.7761,-14.8808,-14.9854,-15.0154,-15.12,-15.2546,-15.3892,-15.307,-15.2247,-15.2546,-15.3743,-15.464,-15.464,-15.4895,-15.5008,-15.4786,-15.3927,-15.2906,-15.1718,-15.0325,-14.8979,-14.7918,-14.6102,-14.4631,-14.3346,-14.2989,-14.2276,-14.0992,-14.092,-14.092,-14.092,-14.092,-14.092,-14.092,-14.092,-14.092,-14.092,-14.092,-14.1032,-1.6043,-1.635,-1.6719,-1.7286,-2.2621,0.0,-3.048,-4.0972,-5.0939,0.0,-6.5509,-7.5848,-7.6413,-8.3908,-9.0969,-9.2927,-9.7443,-10.1736,-10.4178,-10.6239,-10.7067,-10.5703,-10.632,-10.6802,-10.7036,-11.0702,-11.4311,-11.7325,-11.7758,-11.9592,-12.3428,-12.6351,-12.8198,-12.8855,-12.902,-12.9085,-12.9085,-12.9282,-12.9578,-12.9873,-13.0004,-12.9413,-12.8324,-12.9456,-12.9424,-12.8498,-13.016,-13.1063,-13.1292,-13.1573,-13.1573,-13.1677,-13.259,-13.3083,-13.3374,-13.5268,-13.612,-13.6384,-13.7336,-13.7762,-13.7815,-13.7815,-13.7815,-13.7815,-13.7815,-13.7815,-13.789,-13.804,-14.0432,-14.3274,-14.4844,-14.6489,-14.7761,-14.7761,-14.7835,-14.8434,-14.9929,-15.0378,-15.0527,-15.0752,-15.0602,-15.0976,-15.2322,-15.2771,-15.2846,-15.2846,-15.2936,-15.2491,-15.1523,-15.1228,-15.0768,-14.9592,-14.8328,-14.7556,-14.735,-14.5059,-14.3418,-14.3275,-14.1991,-14.1134,-14.092,-14.092,-14.092,-14.092,-14.092,-14.092,-14.092,-14.092,-14.092,-14.092,-14.092,-14.1436,-1.6369,-1.6653,-1.7335,-1.985,0.0,0.0,-3.2866,-4.1829,-5.0248,0.0,-6.5508,-7.5355,-7.7828,-8.5553,-9.2364,-9.4824,-9.8414,-10.2295,-10.5612,-10.615,-10.6532,-10.7284,-10.7006,-10.8305,-11.1742,-11.3938,-11.6351,-11.9666,-11.9741,-12.0931,-12.3556,-12.6172,-12.8061,-12.8617,-12.9509,-12.9873,-12.9873,-12.9873,-12.9873,-12.9873,-13.0962,-13.0568,-12.9102,-13.0178,-13.0348,-13.0021,-12.9985,-13.0515,-13.1573,-13.1573,-13.1944,-13.2494,-13.299,-13.3913,-13.5119,-13.5911,-13.6649,-13.7279,-13.7633,-13.7815,-13.7815,-13.7815,-13.7815,-13.7815,-13.7815,-13.7815,-13.7815,-13.7815,-14.0283,-14.3498,-14.6041,-14.7237,-14.7761,-14.7761,-14.7761,-14.791,-14.8658,-14.8808,-14.8808,-14.8808,-14.8808,-14.8957,-14.963,-15.0527,-15.12,-15.12,-15.2023,-15.2428,-15.1905,-15.1905,-15.1357,-15.0251,-14.8883,-14.7788,-14.7074,-14.4444,-14.2935,-14.2935,-14.1649,-14.092,-14.092,-14.092,-14.092,-14.092,-14.092,-14.092,-14.092,-14.092,-14.092,-14.092,-14.165,-14.2563,-1.6538,0.0,0.0,0.0,0.0,0.0,-3.4693,0.0,-5.0153,-5.3882,-6.4149,-7.3648,-7.7759,-8.4969,-9.171,-9.5935,-9.8739,-10.1796,-10.6228,-10.6298,-10.6719,-10.8653,-10.86,-11.0643,-11.6367,-11.7591,-11.9291,-12.2288,-12.253,-12.2968,-12.393,-12.5965,-12.7337,-12.7655,-12.8623,-12.9741,-13.0563,-13.007,-13.0427,-13.1361,-13.174,-13.135,-13.0381,-13.0757,-13.08,-13.0622,-13.0033,-13.0614,-13.2045,-13.2371,-13.2897,-13.364,-13.3913,-13.4966,-13.6319,-13.6586,-13.7221,-13.7815,-13.7815,-13.7815,-13.7815,-13.7815,-13.7815,-13.7815,-13.7815,-13.7815,-13.789,-13.8413,-14.0657,-14.3498,-14.634,-14.7387,-14.7761,-14.7761,-14.7761,-14.7761,-14.7761,-14.7761,-14.7761,-14.7761,-14.7761,-14.7761,-14.7761,-14.8733,-14.9555,-14.9555,-15.0527,-15.1275,-15.1275,-15.1275,-15.0887,-15.0093,-14.8702,-14.7452,-14.6601,-14.4464,-14.3165,-14.3165,-14.203,-14.1436,-14.1436,-14.1143,-14.092,-14.092,-14.092,-14.092,-14.092,-14.092,-14.1143,-14.1436,-14.2336,-14.3444,0.0,0.0,0.0,-2.218,-2.6971,-3.1425,-3.5117,0.0,-5.3654,-5.397,-6.3889,-7.3486,-7.6891,-8.2634,-8.9526,-9.7297,-9.9701,-10.1682,-10.4946,-10.654,-10.7572,-10.8802,-11.0871,-11.4246,-11.9356,-12.1872,-12.3781,-12.5431,-12.5542,-12.5467,-12.5533,-12.5637,-12.6322,-12.7655,-12.7739,-12.9315,-13.2505,-13.0695,-13.1744,-13.5227,-13.1903,-13.0525,-13.089,-13.1105,-13.0433,-12.9265,-13.0793,-13.2146,-13.3175,-13.4166,-13.4654,-13.4811,-13.5772,-13.6253,-13.6384,-13.7393,-13.7815,-13.7815,-13.7815,-13.7815,-13.7815,-13.7815,-13.7815,-13.7815,-13.7815,-13.7815,-13.8189,-13.9759,-14.1554,-14.3274,-14.4844,-14.6489,-14.7761,-14.7761,-14.7761,-14.7761,-14.7761,-14.7761,-14.7761,-14.7761,-14.7761,-14.7761,-14.7761,-14.7761,-14.7835,-14.7835,-14.7835,-14.7835,-14.7835,-14.7835,-14.791,-14.7778,-14.673,-14.6039,-14.6039,-14.4988,-14.4329,-14.4329,-14.3259,-14.2661,-14.2661,-14.1544,-14.092,-14.092,-14.092,-14.092,-14.092,-14.092,-14.1544,-14.2661,-14.2661,-14.3822,-1.77,-1.782,-1.868,-2.3014,-2.7315,-3.139,-3.5713,-4.3527,-5.0887,-5.4553,-6.2571,-7.1052,-7.7228,-7.9917,-8.4843,-9.5143,-9.8842,-10.1487,-10.4335,-10.7021,-10.9585,-11.2158,-11.3157,-11.5896,-12.174,-12.2959,-12.4016,-12.5543,-12.5571,-12.5664,-12.5637,-12.5571,-12.6755,-12.9427,-12.7375,-12.7891,-13.1146,-13.1792,-13.2728,-13.3916,-13.3979,-13.2906,-13.1105,-13.2492,-13.2175,-13.0793,-13.2102,-13.3266,-13.4249,-13.4574,-13.5119,-13.5772,-13.612,-13.6712,-13.7336,-13.7633,-13.7815,-13.7815,-13.7815,-13.7815,-13.7815,-13.7815,-13.7815,-13.7815,-13.7815,-13.7815,-13.8189,-13.9834,-14.1554,-14.3274,-14.4844,-14.6489,-14.7761,-14.7761,-14.7761,-14.7761,-14.7761,-14.7761,-14.7761,-14.7761,-14.7761,-14.7761,-14.7761,-14.7761,-14.7761,-14.7761,-14.7761,-14.7761,-14.7761,-14.7761,-14.7761,-14.7761,-14.7378,-14.7122,-14.7122,-14.6109,-14.5453,-14.5453,-14.4425,-14.3444,-14.2759,-14.2336,-14.1685,-14.092,-14.092,-14.1756,-14.3259,-14.2464,-14.2661,-14.3895,-14.4591,-14.5304,-1.7619,-1.8194,-1.9026,-2.3652,-2.7477,-3.1473,-3.5892,-4.2838,-4.9398,-5.4233,-6.046,-6.7959,-7.6718,-7.8594,-8.2325,-9.3354,-9.8623,-10.1922,-10.4168,-10.7625,-11.1056,-11.4013,-11.4733,-11.7526,-12.3649,-12.4663,-12.5878,-12.7938,-12.7476,-12.743,-12.8061,-12.762,-12.8321,-13.0406,-12.9125,-12.9088,-13.0544,-13.1639,-13.2938,-13.4228,-13.4236,-13.3527,-13.2209,-13.2857,-13.2814,-13.2174,-13.3728,-13.4654,-13.5342,-13.5632,-13.6187,-13.6773,-13.6773,-13.7279,-13.7815,-13.7815,-13.7441,-13.7067,-13.7591,-13.7441,-13.7067,-13.7666,-13.7815,-13.7815,-13.7815,-13.7815,-13.8339,-14.0582,-14.2078,-14.3424,-14.5592,-14.6938,-14.7761,-14.7761,-14.7761,-14.7761,-14.7761,-14.7761,-14.7761,-14.7761,-14.7761,-14.7761,-14.7761,-14.7761,-14.7761,-14.7761,-14.7761,-14.7761,-14.7761,-14.7761,-14.7761,-14.7761,-14.7761,-14.7761,-14.7761,-14.706,-14.6591,-14.6591,-14.5603,-14.4591,-14.391,-14.3536,-14.2953,-14.2132,-14.179,-14.2464,-14.4414,-14.3717,-14.3895,-14.4994,-14.5677,-14.6248,-1.6245,-1.784,-1.9096,-2.3732,-2.7793,-3.1758,-3.5892,-4.2898,-4.944,-5.3247,-5.7663,-6.4132,-7.5313,-7.807,-8.2094,-9.2772,-9.9059,-10.3052,-10.4418,-10.8491,-11.204,-11.4072,-11.5702,-11.8942,-12.4926,-12.6848,-12.9118,-13.2373,-13.0924,-13.0804,-13.2548,-13.1485,-13.0756,-13.0778,-13.2396,-13.2655,-13.1094,-13.1105,-13.2638,-13.614,-13.2915,-13.2209,-13.3785,-13.232,-13.2272,-13.3374,-13.5416,-13.6319,-13.6384,-13.7393,-13.7815,-13.7666,-13.7666,-13.7666,-13.7591,-13.7591,-13.6619,-13.5572,-13.7067,-13.6619,-13.5572,-13.712,-13.7644,-13.7718,-13.777,-13.7845,-13.8594,-14.1908,-14.288,-14.3628,-14.6863,-14.7761,-14.7761,-14.7761,-14.7761,-14.7761,-14.7761,-14.7761,-14.7761,-14.7761,-14.7761,-14.7761,-14.7761,-14.7761,-14.7761,-14.7761,-14.7761,-14.7761,-14.7761,-14.7761,-14.7761,-14.7761,-14.7761,-14.7761,-14.7761,-14.7761,-14.7761,-14.7761,-14.6656,-14.6035,-14.5965,-14.5068,-14.4498,-14.4414,-14.3352,-14.3444,-14.4582,-14.4498,-14.5068,-14.6035,-14.6035,-14.6656,-1.7774,-1.8459,-1.9288,-2.1296,-2.6612,-3.1527,-3.3232,-3.9567,-4.6702,-5.318,-5.6121,-6.1199,-7.3942,-7.7114,-8.1774,-9.3854,-9.9555,-10.3207,-10.5726,-11.0459,-11.3697,-11.4192,-11.7051,-12.0708,-12.5187,-12.6955,-12.9118,-13.2373,-13.2147,-13.2807,-13.4594,-13.4431,-13.4799,-13.6152,-13.433,-13.3824,-13.4845,-13.3657,-13.3435,-13.4499,-13.364,-13.2894,-13.2144,-13.2587,-13.3742,-13.5488,-13.5979,-13.6712,-13.7467,-13.7687,-13.7142,-13.6095,-13.6095,-13.5348,-13.4226,-13.4226,-13.3927,-13.3702,-13.4076,-13.3927,-13.3679,-13.4305,-13.5337,-13.644,-13.6709,-13.7642,-13.9309,-14.2307,-14.3152,-14.3886,-14.69,-14.7761,-14.7761,-14.7761,-14.7761,-14.7761,-14.7761,-14.7761,-14.7761,-14.7761,-14.7761,-14.7761,-14.7761,-14.7761,-14.7761,-14.7761,-14.7761,-14.7761,-14.7761,-14.7761,-14.7761,-14.7761,-14.7761,-14.7761,-14.7761,-14.7761,-14.7761,-14.7761,-14.7438,-14.6923,-14.6035,-14.575,-14.5224,-14.4414,-14.4915,-14.575,-14.6934,-14.6039,-14.6179,-14.7318,-14.7318,-14.7438,-1.7205,-1.8697,-1.9673,-2.045,-2.6023,-3.1596,-3.2574,-3.8326,-4.563,-5.3204,-5.509,-5.9569,-7.2624,-7.6543,-8.1271,-9.2889,-9.8961,-10.3439,-10.6199,-11.1068,-11.4577,-11.5158,-11.8579,-12.2133,-12.5356,-12.7447,-13.0163,-13.3574,-13.3087,-13.3825,-13.6514,-13.6666,-13.7138,-13.8198,-13.7216,-13.6848,-13.7353,-13.5651,-13.4587,-13.3928,-13.3214,-13.267,-13.2272,-13.2897,-13.4331,-13.6319,-13.6712,-13.6906,-13.6843,-13.7516,-13.6469,-13.445,-13.5198,-13.445,-13.2955,-13.31,-13.2669,-13.2189,-13.3124,-13.2905,-13.2418,-13.3281,-13.4289,-13.5152,-13.6151,-13.7113,-13.8674,-14.2431,-14.3493,-14.4287,-14.7434,-14.8293,-14.8204,-14.7994,-14.8019,-14.8019,-14.8019,-14.8065,-14.8204,-14.7994,-14.8019,-14.8019,-14.8019,-14.7833,-14.7761,-14.7761,-14.7761,-14.7761,-14.7761,-14.7761,-14.7761,-14.7761,-14.7761,-14.7761,-14.7761,-14.7761,-14.7761,-14.7761,-14.7761,-14.7438,-14.6795,-14.6795,-14.6458,-14.5896,-14.6458,-14.7122,-14.7761,-14.7122,-14.7122,-14.7761,-14.7761,-14.7761,-1.5967,-1.871,-1.991,-2.0292,-2.5923,-3.1561,-3.2453,-3.8314,-4.5684,-5.3391,-5.4885,-5.8868,-7.1723,-7.6179,-8.0956,-9.1695,-9.8425,-10.3265,-10.6721,-11.1535,-11.5175,-11.6186,-11.9837,-12.3231,-12.5649,-12.8298,-13.1677,-13.5529,-13.4276,-13.4807,-13.8447,-13.857,-13.857,-13.857,-14.0095,-14.0207,-13.8637,-13.7067,-13.5498,-13.3928,-13.2358,-13.2146,-13.3175,-13.3463,-13.4507,-13.6151,-13.7094,-13.6768,-13.5572,-13.7022,-13.595,-13.348,-13.4727,-13.4251,-13.2726,-13.2795,-13.1893,-13.0985,-13.2693,-13.2348,-13.1391,-13.2853,-13.3458,-13.3937,-13.5498,-13.6255,-13.7542,-14.2286,-14.3774,-14.4682,-14.8032,-14.8864,-14.8851,-14.8434,-14.8394,-14.8434,-14.8429,-14.869,-14.8776,-14.8434,-14.8429,-14.8429,-14.8429,-14.8092,-14.7798,-14.7686,-14.7761,-14.7761,-14.7761,-14.7761,-14.7761,-14.7761,-14.7761,-14.7761,-14.7761,-14.7761,-14.7761,-14.7761,-14.7761,-14.7761,-14.7761,-14.7761,-14.7761,-14.7761,-14.7761,-14.7761,-14.7761,-14.7761,-14.7761,-14.7761,-14.7761,-14.7835,-1.6843,-1.875,-1.9145,-2.0147,-2.6272,-3.2175,-3.2453,-3.8797,-4.6217,-5.3395,-5.4711,-5.8868,-7.1723,-7.6179,-8.1683,-9.457,-9.9013,-10.297,-10.9375,-11.3566,-11.6023,-11.6288,-12.0449,-12.442,-12.743,-12.9399,-13.2362,-13.7415,-13.7387,-13.8128,-14.0396,-14.051,-14.051,-14.051,-14.0808,-14.0207,-13.8637,-13.7067,-13.5498,-13.3928,-13.2358,-13.2146,-13.3266,-13.4966,-13.5716,-13.5637,-13.5818,-13.5721,-13.5549,-13.6001,-13.5914,-13.5277,-13.4548,-13.3239,-13.1682,-13.0303,-12.9623,-12.9498,-12.9777,-12.9727,-12.9548,-13.0072,-13.1181,-13.2437,-13.3069,-13.5142,-13.7934,-14.1311,-14.3238,-14.5023,-14.8114,-14.8864,-14.8835,-14.8851,-14.9073,-14.9189,-14.8835,-14.8881,-14.8835,-14.8776,-14.8776,-14.8776,-14.8776,-14.8434,-14.814,-14.7798,-14.7761,-14.7761,-14.7761,-14.7761,-14.7761,-14.7761,-14.7761,-14.7761,-14.7761,-14.7761,-14.7761,-14.7761,-14.7761,-14.7761,-14.7761,-14.7761,-14.7761,-14.7761,-14.7761,-14.7761,-14.7761,-14.7761,-14.7761,-14.7761,-14.7761,-14.8508,-1.8538,-1.9119,-1.9119,-2.0089,-2.641,-3.2171,-3.269,-3.8625,-4.5951,-5.3373,-5.4872,-5.8868,-7.1723,-7.5542,-8.0939,-9.4249,-9.8294,-10.2522,-11.0807,-11.5073,-11.7523,-11.7988,-12.1894,-12.5123,-12.673,-12.9035,-13.221,-13.6459,-13.7635,-13.9006,-14.0808,-14.092,-14.092,-14.092,-14.092,-14.0564,-13.985,-13.828,-13.6962,-13.5966,-13.4312,-13.3692,-13.3998,-13.556,-13.5955,-13.5422,-13.4722,-13.3885,-13.3329,-13.5356,-13.5185,-13.3631,-13.3834,-13.2979,-13.144,-12.9829,-12.9261,-12.928,-12.9465,-12.9579,-12.9591,-12.9722,-13.0349,-13.1189,-13.2271,-13.3639,-13.5917,-14.0831,-14.2793,-14.438,-14.8483,-14.9532,-14.9428,-14.923,-14.9532,-14.9676,-14.9249,-14.938,-14.9428,-14.923,-14.938,-14.9428,-14.923,-14.9073,-14.8756,-14.8112,-14.7886,-14.7761,-14.7761,-14.7761,-14.7761,-14.7761,-14.7761,-14.7761,-14.7761,-14.7761,-14.7761,-14.7761,-14.7761,-14.7761,-14.7761,-14.7761,-14.7761,-14.7761,-14.7761,-14.7761,-14.7761,-14.7761,-14.7761,-14.7761,-14.8868,-14.977,-1.8127,-1.8565,-1.9185,-2.0132,-2.4896,-2.9869,-3.2151,-3.8177,-4.5552,-5.3038,-5.4905,-5.9008,-7.1804,-7.5289,-8.0291,-9.3448,-9.7075,-10.1776,-11.139,-11.5481,-11.8132,-11.9953,-12.2813,-12.5344,-12.7084,-12.9203,-13.227,-13.6375,-13.7947,-13.9437,-14.0808,-14.092,-14.1032,-14.1291,-14.1291,-14.1436,-14.165,-14.0071,-13.8859,-13.8183,-13.6586,-13.553,-13.5119,-13.612,-13.5986,-13.4876,-13.3834,-13.2684,-13.1849,-13.5196,-13.5271,-13.3325,-13.3919,-13.3409,-13.2083,-13.0262,-12.9536,-12.963,-12.9913,-13.007,-13.007,-13.007,-13.007,-13.0298,-13.1589,-13.2272,-13.3791,-13.9713,-14.1916,-14.3586,-14.8294,-14.9812,-14.9961,-14.9676,-14.9865,-14.9961,-14.9676,-14.9871,-14.9961,-14.9667,-14.9871,-14.9961,-14.9667,-14.9545,-14.923,-14.8548,-14.7994,-14.7742,-14.7833,-14.7798,-14.7761,-14.7761,-14.7761,-14.7761,-14.7761,-14.7761,-14.7761,-14.7761,-14.7761,-14.7761,-14.7761,-14.7761,-14.7761,-14.7761,-14.7761,-14.7742,-14.7833,-14.7833,-14.8089,-14.8544,-15.0187,-15.1298,-1.2742,-1.5099,-1.9115,-1.9983,-2.0677,-2.3105,-3.0907,-3.8036,-4.5021,-5.2399,-5.5034,-5.9764,-7.2008,-7.5823,-8.1075,-9.3511,-9.6484,-10.0869,-11.1192,-11.3832,-11.6411,-12.1088,-12.1762,-12.4488,-13.1928,-13.165,-13.358,-13.9997,-14.051,-14.0808,-14.092,-14.092,-14.1436,-14.2464,-14.2464,-14.2976,-14.4071,-14.2474,-14.0863,-13.9336,-13.7879,-13.6813,-13.6187,-13.7221,-13.6043,-13.323,-13.3425,-13.3576,-13.3785,-13.606,-13.7671,-13.8443,-13.5972,-13.4849,-13.4244,-13.1132,-12.9993,-12.9993,-12.9994,-13.007,-13.007,-13.007,-13.007,-13.007,-13.0222,-13.1361,-13.3335,-13.6904,-14.0093,-14.3282,-14.6851,-14.8901,-15.004,-15.0039,-15.004,-15.004,-15.0039,-15.004,-15.004,-15.0039,-15.004,-15.004,-15.0039,-14.9685,-14.9362,-14.894,-14.8204,-14.7833,-14.8204,-14.7916,-14.7761,-14.7761,-14.7761,-14.7761,-14.7761,-14.7761,-14.7761,-14.7761,-14.7761,-14.7761,-14.7761,-14.7761,-14.7761,-14.7761,-14.7761,-14.7939,-14.8293,-14.8218,-14.9263,-15.1119,-15.1301,-15.2995,-0.9463,-1.4196,-1.8987,-1.9848,-2.0119,-2.195,-2.9848,-3.389,-3.9504,-5.1434,-5.4709,-5.9257,-7.2705,-7.5351,-7.9829,-9.2932,-9.5741,-10.0014,-11.091,-11.4183,-11.7115,-12.1166,-12.3905,-12.6456,-12.8631,-13.2109,-13.5092,-13.7644,-13.9713,-14.1181,-14.1999,-14.1291,-14.179,-14.3717,-14.2976,-14.3259,-14.4414,-14.3754,-14.2909,-14.1981,-14.1391,-13.9225,-13.573,-13.5114,-13.3753,-13.1796,-13.1967,-13.1699,-13.1436,-13.4496,-13.6731,-13.8103,-13.6979,-13.5841,-13.4626,-13.2424,-13.0905,-13.007,-13.007,-13.007,-13.007,-13.007,-13.007,-13.007,-13.007,-13.0526,-13.1969,-13.6221,-13.8423,-14.0701,-14.6092,-14.8066,-14.8522,-14.8522,-14.9357,-15.004,-15.004,-15.004,-15.004,-15.004,-15.004,-15.004,-15.004,-14.9959,-14.9685,-14.9344,-14.8946,-14.8614,-14.8347,-14.8158,-14.8019,-14.7742,-14.7761,-14.7761,-14.7761,-14.7761,-14.7761,-14.7761,-14.7761,-14.7761,-14.7761,-14.7968,-14.8092,-14.8092,-14.8305,-14.851,-14.869,-14.9671,-15.0602,-15.1464,-15.3637,-15.5389,-0.9943,-1.5276,-1.8843,-1.9578,-1.9848,-2.1863,-2.8934,-3.1185,-3.5103,-4.7528,-5.2657,-5.8947,-7.2515,-7.5477,-7.9975,-9.262,-9.6405,-10.1023,-11.1035,-11.4891,-11.8152,-12.1453,-12.4918,-12.7313,-12.8151,-13.25,-13.5917,-13.7313,-13.984,-14.179,-14.2661,-14.2234,-14.2856,-14.4828,-14.4085,-14.4171,-14.5378,-14.5378,-14.4787,-14.3402,-14.2956,-13.9919,-13.4675,-13.3604,-13.2053,-13.0237,-13.0441,-13.0456,-13.0414,-13.3631,-13.6221,-13.8119,-13.7587,-13.6676,-13.5461,-13.3867,-13.2196,-13.083,-13.083,-13.045,-13.007,-13.007,-13.007,-13.007,-13.007,-13.007,-13.0905,-13.4854,-13.6676,-13.865,-14.389,-14.5636,-14.632,-14.7307,-14.8446,-14.9433,-14.9964,-15.004,-15.004,-15.004,-15.004,-15.004,-15.004,-15.004,-14.9955,-14.9545,-14.9558,-14.938,-14.862,-14.8584,-14.851,-14.814,-14.8092,-14.7994,-14.7864,-14.7939,-14.7833,-14.7686,-14.7761,-14.7798,-14.7939,-14.8158,-14.8389,-14.8472,-14.8789,-14.8995,-14.9098,-15.0763,-15.1894,-15.2509,-15.5615,-15.7342,-1.486,-1.8686,-1.9092,-1.8843,-1.9456,-2.1891,-2.8637,-3.0371,-3.2603,-3.9674,-4.8584,-5.8965,-7.0933,-7.6645,-8.2477,-9.1927,-9.8749,-10.5058,-11.1381,-11.5492,-11.9225,-12.292,-12.3784,-12.6389,-13.2748,-13.3614,-13.5762,-14.0523,-14.1927,-14.2661,-14.2661,-14.3806,-14.4908,-14.5965,-14.5965,-14.6524,-14.7686,-14.7686,-14.6116,-14.29,-14.118,-13.7815,-13.2955,-13.3266,-13.1554,-12.8542,-12.9147,-13.0402,-13.2083,-13.4087,-13.6904,-13.9789,-13.8119,-13.7436,-13.7208,-13.5537,-13.3867,-13.2576,-13.2576,-13.1437,-13.007,-13.007,-13.007,-13.007,-13.007,-13.007,-13.045,-13.212,-13.493,-13.7815,-13.9562,-14.1308,-14.3358,-14.6775,-14.7534,-14.799,-14.966,-15.004,-15.004,-15.004,-15.004,-15.004,-15.004,-15.004,-14.9955,-14.9545,-14.9783,-14.9777,-14.9022,-14.923,-14.9362,-14.8968,-14.8864,-14.8681,-14.8347,-14.8305,-14.8112,-14.7742,-14.7761,-14.7939,-14.8262,-14.8305,-14.8472,-14.8864,-14.8864,-14.9098,-14.9518,-15.1187,-15.3016,-15.49,-15.6646,-15.8317,-1.7513,-1.8625,-1.8341,-1.9142,-1.9369,-2.1145,-2.8018,-2.9659,-3.2025,-3.9128,-4.6825,-5.6534,-7.051,-7.7168,-8.3127,-9.0859,-9.8185,-10.4761,-11.0313,-11.4922,-11.919,-12.3237,-12.5778,-12.8007,-13.0268,-13.4422,-13.7528,-13.8859,-14.1307,-14.3352,-14.4915,-14.4664,-14.5224,-14.7122,-14.6383,-14.6591,-14.7686,-14.6564,-14.4994,-14.2825,-13.8862,-13.515,-13.1655,-13.0537,-12.975,-12.9147,-12.9361,-13.0532,-13.2489,-13.4169,-13.6221,-13.8271,-13.8878,-13.8423,-13.736,-13.6828,-13.5613,-13.4095,-13.2956,-13.2196,-13.1589,-13.045,-13.007,-13.007,-13.007,-13.007,-13.0374,-13.212,-13.4171,-13.5917,-13.6373,-13.9486,-14.2751,-14.3814,-14.5864,-14.7686,-14.8218,-14.9281,-15.004,-15.004,-15.004,-15.004,-15.004,-15.004,-15.004,-14.9875,-14.9961,-14.9961,-14.9769,-14.9558,-14.9412,-14.9268,-14.9098,-14.8806,-14.8756,-14.8756,-14.8548,-14.8158,-14.8389,-14.8584,-14.8681,-14.8995,-14.9167,-14.9249,-14.9558,-15.0301,-15.1622,-15.3216,-15.4894,-15.6722,-15.8393,-15.9456,-1.6955,-1.6655,-1.5386,-1.8514,-1.8848,-2.0443,-2.7278,-2.9131,-3.1696,-3.9578,-4.5957,-5.3726,-6.572,-7.5592,-8.3932,-9.0036,-9.8337,-10.5531,-10.98,-11.5496,-12.0357,-12.351,-12.672,-12.9117,-12.9803,-13.4531,-13.7865,-13.8823,-14.1495,-14.3847,-14.582,-14.5824,-14.6025,-14.6732,-14.6091,-14.5793,-14.5891,-14.4844,-14.2934,-14.0194,-13.6446,-13.3158,-13.029,-12.9312,-12.9064,-12.9491,-12.9621,-13.081,-13.2652,-13.4246,-13.5917,-13.7587,-13.917,-13.899,-13.8045,-13.8045,-13.6983,-13.5379,-13.3643,-13.2657,-13.1822,-13.0228,-12.9697,-12.9706,-12.9817,-12.9823,-13.0059,-13.1285,-13.3259,-13.5082,-13.493,-13.8195,-14.1688,-14.2295,-14.4118,-14.6016,-14.7231,-14.837,-14.9281,-14.9964,-15.004,-15.004,-15.004,-15.004,-15.004,-15.004,-15.004,-15.004,-15.004,-14.9871,-14.9685,-14.9685,-14.9442,-14.9249,-14.9144,-14.9121,-14.8995,-14.8584,-14.8864,-14.9121,-14.9121,-14.938,-14.9849,-15.0663,-15.087,-15.1862,-15.3457,-15.5128,-15.6418,-15.7481,-15.9152,-15.9987,-1.3106,-1.2934,-1.092,-1.7012,-1.8268,-1.9602,-2.6448,-2.8321,-3.1358,-4.0686,-4.5761,-5.0687,-5.803,-7.21,-8.4021,-8.9343,-9.9138,-10.7371,-11.0282,-11.6979,-12.2176,-12.3798,-12.6869,-12.957,-13.1325,-13.3981,-13.6817,-13.9978,-14.2259,-14.4111,-14.5733,-14.6749,-14.6639,-14.5069,-14.5069,-14.4396,-14.29,-14.2751,-14.0295,-13.5543,-13.3926,-13.1799,-12.9094,-12.933,-12.9503,-12.9515,-12.9911,-13.1057,-13.288,-13.4322,-13.5917,-13.766,-13.888,-13.9226,-13.8955,-13.8955,-13.7945,-13.6432,-13.4719,-13.2979,-13.1315,-12.9727,-12.9197,-12.9117,-12.9361,-12.9491,-12.9525,-12.9913,-13.25,-13.5082,-13.493,-13.7436,-14.0321,-14.1916,-14.2371,-14.3358,-14.6471,-14.7231,-14.7838,-14.9433,-14.966,-14.966,-14.966,-14.966,-14.966,-14.966,-14.9812,-14.9888,-14.9888,-14.9964,-15.004,-15.004,-15.004,-14.9879,-14.9545,-14.9532,-14.938,-14.8972,-14.9344,-14.9532,-14.9532,-14.9621,-15.0596,-15.2546,-15.2698,-15.3533,-15.5128,-15.6722,-15.7481,-15.7633,-15.9227,-15.9911,-0.3363,-0.6332,-1.0524,-1.6698,-1.8114,-1.9497,-2.5812,-2.7278,-2.9998,-3.8717,-4.4627,-5.0294,-5.7747,-6.6219,-7.6327,-8.9086,-9.9702,-10.7856,-11.2302,-11.6852,-12.1181,-12.5297,-12.6476,-12.8516,-13.2389,-13.4392,-13.6435,-13.8954,-14.072,-14.2231,-14.3587,-14.3835,-14.3872,-14.3424,-14.3424,-14.3274,-14.29,-14.1554,-13.7972,-13.2119,-13.1939,-13.0986,-12.9346,-12.9479,-12.963,-12.9913,-12.9994,-13.1665,-13.4398,-13.4778,-13.6513,-13.8945,-13.9214,-13.9226,-13.8955,-13.8955,-13.8728,-13.8198,-13.6432,-13.4795,-13.3055,-13.1391,-13.0029,-12.9117,-12.9361,-12.9491,-12.9525,-12.9913,-13.2424,-13.493,-13.493,-13.7436,-14.0017,-14.0473,-14.1536,-14.2675,-14.351,-14.4649,-14.5712,-14.6092,-14.6168,-14.6168,-14.6168,-14.6168,-14.6168,-14.6168,-14.7307,-14.8142,-14.8142,-14.9281,-15.004,-15.004,-15.004,-15.004,-14.9959,-14.9955,-14.9875,-14.9783,-14.9875,-14.9955,-14.9955,-15.117,-15.2087,-15.2622,-15.3761,-15.5203,-15.6874,-15.7254,-15.8089,-15.938,-15.9486,-15.9522,-0.0,-0.4382,-1.0151,-1.6355,-1.7708,-1.8993,-2.387,-2.5913,-2.9394,-3.8153,-4.3361,-4.9295,-5.8945,-6.4199,-7.145,-8.5332,-9.7684,-10.736,-11.2646,-11.8018,-12.293,-12.7095,-12.8658,-13.0439,-13.2918,-13.48,-13.666,-13.8632,-14.0057,-14.1395,-14.277,-14.29,-14.2526,-14.1778,-14.1704,-14.0956,-13.9535,-13.8855,-13.6185,-13.149,-13.1584,-13.1029,-12.9729,-12.9729,-13.0283,-13.1209,-13.1209,-13.3032,-13.6069,-13.5901,-13.722,-13.9339,-13.9026,-13.8872,-13.8732,-13.8521,-13.8407,-13.8181,-13.66,-13.4868,-13.3248,-13.1479,-12.9998,-12.8858,-12.9203,-12.9346,-12.9525,-12.9913,-13.2424,-13.493,-13.5006,-13.7436,-13.9941,-13.9941,-14.0625,-14.1536,-14.2295,-14.3206,-14.4042,-14.4877,-14.5029,-14.5029,-14.5029,-14.5029,-14.5029,-14.5029,-14.5788,-14.6395,-14.6395,-14.7155,-14.8066,-14.8825,-14.8901,-14.9205,-15.004,-15.004,-15.004,-15.004,-15.004,-15.042,-15.1179,-15.2774,-15.4065,-15.4824,-15.5659,-15.6795,-15.8362,-15.8362,-15.8718,-15.9409,-15.9199,-15.9137,0.0371,-0.4959,-1.0951,-1.4929,-1.6746,-1.8279,-2.1907,-2.4775,-2.892,-3.7917,-4.2073,-4.7778,-5.9833,-6.4048,-6.932,-8.1268,-9.4652,-10.5883,-11.2906,-11.9752,-12.5467,-12.8959,-13.1515,-13.3212,-13.3568,-13.5048,-13.6542,-13.8156,-13.8903,-13.9984,-14.1629,-14.1778,-14.1105,-13.961,-13.9866,-13.8397,-13.4899,-13.5486,-13.4374,-13.1602,-13.1628,-13.1088,-13.007,-13.007,-13.0981,-13.2576,-13.2576,-13.4398,-13.7354,-13.7134,-13.7884,-13.915,-13.8623,-13.8403,-13.8236,-13.7947,-13.7815,-13.7591,-13.632,-13.46,-13.273,-13.131,-12.9788,-12.8614,-12.8942,-12.9243,-12.9525,-12.9913,-13.2424,-13.493,-13.5006,-13.7511,-13.9941,-13.9941,-13.9941,-14.0321,-14.1764,-14.2067,-14.2523,-14.3966,-14.4269,-14.4269,-14.4269,-14.4269,-14.4269,-14.4269,-14.4421,-14.4649,-14.4649,-14.4877,-14.556,-14.7003,-14.7155,-14.7838,-14.9509,-14.966,-14.966,-14.966,-14.9964,-15.0799,-15.2546,-15.4065,-15.5735,-15.7326,-15.763,-15.8279,-15.9331,-15.9027,-15.8909,-15.8773,-15.8484,-15.8452,0.2353,-0.7879,-1.5016,-1.0994,-1.3632,-1.8523,-2.3678,-2.5399,-2.838,-3.6734,-4.152,-4.7027,-5.5834,-6.3733,-7.23,-8.2557,-9.2729,-10.3972,-11.6758,-12.1407,-12.5276,-12.987,-13.1533,-13.3245,-13.5558,-13.4787,-13.4643,-13.5881,-13.4847,-13.4824,-13.6544,-13.6619,-13.6469,-13.6245,-13.7833,-13.6563,-13.2031,-13.248,-13.1727,-12.9871,-13.0197,-13.0221,-13.007,-13.007,-13.0981,-13.2576,-13.2576,-13.4307,-13.7113,-13.709,-13.7663,-13.8519,-13.8407,-13.8224,-13.7896,-13.7868,-13.7815,-13.7815,-13.7516,-13.5497,-13.2955,-13.2656,-13.0764,-12.8614,-12.8942,-12.9243,-12.9525,-12.9913,-13.2424,-13.493,-13.493,-13.7436,-13.9941,-13.9941,-13.9941,-14.0017,-14.0321,-14.0321,-14.0397,-14.0701,-14.0701,-14.0701,-14.0701,-14.0701,-14.0701,-14.0701,-14.1991,-14.2903,-14.2903,-14.4118,-14.5105,-14.5332,-14.5408,-14.6092,-14.7762,-14.7914,-14.7914,-14.7914,-14.9281,-15.0799,-15.2546,-15.4065,-15.557,-15.6918,-15.836,-15.901,-15.8861,-15.745,-15.7498,-15.8773,-15.7036,-15.6943,0.6199,0.2868,0.0624,-0.319,-1.0516,-1.8085,-2.2398,-2.4601,-2.7957,-3.5756,-4.0475,-4.6262,-5.6058,-6.3038,-7.1102,-8.2461,-9.069,-10.0155,-11.2473,-12.1085,-12.7761,-13.2287,-13.381,-13.49,-13.6113,-13.536,-13.4893,-13.5445,-13.4075,-13.351,-13.426,-13.456,-13.4604,-13.4604,-13.5503,-13.4157,-13.0398,-13.166,-13.1412,-12.9741,-12.9992,-13.007,-13.007,-13.0981,-13.2272,-13.3867,-13.4778,-13.6352,-13.8277,-13.8164,-13.8192,-13.8403,-13.8179,-13.7922,-13.7815,-13.7815,-13.7815,-13.7815,-13.7815,-13.6843,-13.5325,-13.3794,-13.1253,-12.8858,-12.9203,-12.9346,-12.9525,-12.9913,-13.2424,-13.5006,-13.5006,-13.7436,-13.9941,-13.9941,-13.9941,-13.9941,-13.9941,-13.9941,-13.9941,-13.9941,-13.9941,-13.9941,-13.9941,-13.9941,-13.9941,-13.9941,-14.0625,-14.1156,-14.1156,-14.184,-14.2599,-14.3586,-14.3662,-14.4345,-14.6016,-14.5332,-14.556,-14.7458,-14.8049,-14.9921,-15.3413,-15.4022,-15.5428,-15.7879,-15.7803,-15.7498,-15.7149,-15.5413,-15.5862,-15.8074,-15.5603,-15.5267,1.2423,0.0,1.6781,0.4751,-0.6068,-1.4986,0.0,-2.3203,-2.7893,-3.5341,-4.0222,-4.6597,-5.7008,-6.3872,-7.2023,-8.3852,-9.1347,-9.9184,-10.9176,-12.0187,-12.9181,-13.4444,-13.6053,-13.6489,-13.6225,-13.5466,-13.4899,-13.459,-13.3171,-13.2492,-13.2869,-13.3164,-13.3305,-13.3305,-13.3174,-13.1891,-12.9621,-13.1201,-13.1361,-13.007,-13.007,-13.007,-13.007,-13.1817,-13.3411,-13.5006,-13.6676,-13.8168,-13.9278,-13.9056,-13.8657,-13.8193,-13.7947,-13.7815,-13.7815,-13.7815,-13.7815,-13.7815,-13.7815,-13.7815,-13.7321,-13.438,-13.1362,-12.8995,-12.928,-12.939,-12.9525,-12.9913,-13.2424,-13.5082,-13.5082,-13.7511,-13.9941,-13.9941,-13.9941,-13.9941,-13.9941,-13.9941,-13.9941,-13.9941,-13.9941,-13.9941,-13.9941,-13.9941,-13.9941,-13.9941,-13.9941,-13.9941,-13.9941,-13.9941,-14.0473,-14.1764,-14.1916,-14.2599,-14.4269,-14.3042,-14.3628,-14.7044,-14.7332,-14.9286,-15.3456,-15.3414,-15.4642,-15.7593,-15.5913,-15.496,-15.4746,-15.3045,-15.3802,-15.669,-15.4119,-15.3737,0.0,2.5596,2.3593,1.0259,0.0434,-0.7959,-1.4878,-2.1348,0.0,-3.5336,-4.2138,-4.9308,-5.7123,-6.8225,-7.9256,-8.8849,-9.7116,-10.4877,-11.1937,-11.9261,-12.6954,-13.5107,-13.7088,-13.7223,-13.6056,-13.441,-13.2984,-13.1814,-13.0281,-12.9978,-13.149,-13.1592,-13.1592,-13.1592,-13.075,-13.0219,-12.9994,-13.0146,-13.0146,-13.007,-13.007,-13.007,-13.007,-13.1817,-13.3411,-13.5006,-13.6676,-13.8045,-13.8981,-13.8955,-13.8558,-13.7868,-13.7815,-13.7815,-13.7815,-13.7815,-13.7815,-13.7815,-13.7815,-13.7815,-13.7292,-13.4053,-13.0958,-12.8573,-12.8969,-12.9261,-12.9525,-12.9913,-13.2424,-13.493,-13.493,-13.7436,-13.9941,-13.9941,-13.9941,-13.9941,-13.9941,-13.9941,-13.9941,-13.9941,-13.9941,-13.9941,-13.9941,-13.9941,-13.9941,-13.9941,-13.9941,-13.9941,-13.9941,-13.9941,-14.0017,-14.0169,-14.0169,-14.0852,-14.2523,-14.1889,-14.2866,-14.6195,-14.7936,-14.9601,-15.1568,-15.1568,-15.2476,-15.4264,-15.2282,-15.1437,-15.1896,-15.0191,-15.1069,-15.4142,-15.2351,-15.2497,3.0118,3.269,3.0259,1.7398,0.9185,0.1087,-1.1019,-2.0925,-2.998,-3.8273,-4.3833,-5.0646,-6.2133,-7.047,-7.9383,-9.0275,-9.7739,-10.5568,-11.5466,-12.0512,-12.6106,-13.4215,-13.6301,-13.6332,-13.4807,-13.3103,-13.1909,-13.1441,-13.0112,-12.96,-13.0131,-13.0402,-13.0532,-13.0532,-13.0214,-13.007,-13.007,-13.007,-13.007,-13.007,-13.007,-13.0602,-13.1665,-13.3082,-13.4757,-13.6524,-13.7861,-13.8637,0.0,-13.8689,-13.8321,-13.7815,-13.7815,-13.7815,-13.7815,-13.7815,-13.7815,-13.7815,-13.7815,-13.7815,-13.7292,-13.4002,-13.2339,-13.1141,-12.9319,-12.8799,-12.897,-12.9503,-13.1316,-13.3379,-13.4701,-13.6676,-13.865,-13.9713,-13.9941,-13.9941,-13.9941,-13.9941,-13.9941,-13.9941,-13.9941,-13.9941,-13.9941,-13.9941,-13.9941,-13.9941,-13.9941,-13.9862,-13.9597,-13.959,-13.9553,-13.937,-13.9354,-14.0416,-14.3128,-14.3092,-14.3919,-14.6188,-14.6692,-14.7414,-14.8475,-14.8319,-14.8191,-14.8166,-14.8227,-14.7889,-14.7156,-14.9462,-15.1749,-15.3876,-15.1505,-15.1262,3.8294,3.9064,3.6877,2.7376,1.9222,0.9631,-0.4639,-1.7254,-2.8842,-3.9541,-4.6877,-5.5043,-6.7408,-7.4898,-8.2788,-9.324,-9.9584,-10.6951,-11.7833,-12.2166,-12.6986,-13.4551,-13.6518,-13.681,-13.5676,-13.3582,-13.2405,-13.248,-13.1703,-13.1005,-13.0465,-13.067,-13.0752,-13.0662,-13.0752,-13.0602,-13.007,-13.007,-13.007,-13.007,-13.0602,-13.1437,-13.2652,-13.4518,-13.6194,-13.7511,-13.8746,-13.9222,-13.8928,-13.8732,-13.8279,-13.7815,-13.7815,-13.7815,-13.7815,-13.7815,-13.7815,-13.7815,-13.7815,-13.7815,-13.7367,-13.4675,-13.355,-13.274,-12.996,-12.8844,-12.8573,-12.9018,-13.0922,-13.3092,-13.453,-13.6521,-13.8499,-13.9713,-13.9941,-13.9941,-13.9941,-13.9941,-13.9941,-13.9941,-13.9941,-13.9941,-13.9941,-13.9862,-13.9777,-13.9777,-13.968,-13.9553,-13.9278,-13.9261,-13.9339,-13.9662,-13.9711,-14.096,-14.406,-14.3944,-14.4465,-14.6122,-14.5193,-14.4749,-14.5232,-14.4482,-14.3973,-14.3774,-14.5232,-14.5489,-14.4626,-14.8773,-15.1286,-15.199,-15.053,-15.0169,4.6057,4.5653,4.3586,4.0406,3.0215,1.7821,0.5221,-0.9303,-2.4035,-3.8952,-5.1512,-6.2811,-7.2168,-8.1905,-9.0787,-9.806,-10.381,-11.0276,-11.8723,-12.4096,-12.9713,-13.6638,-13.8331,-13.8879,-13.8981,-13.627,-13.4639,-13.4854,-13.493,-13.4246,-13.2652,-13.2576,-13.2409,-13.2058,-13.2404,-13.1741,-13.007,-13.007,-13.007,-13.007,-13.1817,-13.2576,-13.2728,-13.5917,-13.7436,-13.7511,-13.9182,-13.9553,-13.9031,-13.8928,-13.8521,-13.7815,-13.7815,-13.7815,-13.7815,-13.7815,-13.7815,-13.7815,-13.7815,-13.7815,-13.7591,-13.5946,-13.4301,-13.2656,-13.0936,-12.9488,-12.8506,-12.8506,-13.1391,-13.4422,-13.4498,-13.7175,-13.9941,-13.9941,-13.9941,-13.9941,-13.9941,-13.9941,-13.9941,-13.9941,-13.9941,-13.9941,-13.9941,-13.9597,-13.9353,-13.9353,-13.9146,-13.9031,-13.9031,-13.9031,-13.9609,-14.1121,-14.1348,-14.2437,-14.5029,-14.4211,-14.4334,-14.5816,-14.3447,-14.1847,-14.1847,-14.038,-14.0307,-14.1847,-14.345,-14.4447,-14.4951,-14.8135,-14.9055,-14.7984,-14.9435,-14.9148,5.6325,5.7034,5.5824,5.2684,4.9484,4.2385,2.3773,0.7188,-1.2785,-4.3338,-5.6432,-6.6198,-7.7716,-8.7026,-9.518,-10.1883,-10.881,-11.6112,-12.3869,-12.6997,-13.0964,-13.7709,-13.644,-13.5597,-13.7048,-13.5319,-13.4123,-13.4205,-13.4498,-13.4283,-13.3599,-13.466,-13.4697,-13.3378,-13.3465,-13.3277,-13.2747,-13.3057,-13.3188,-13.3197,-13.3859,-13.4854,-13.5993,-13.6796,-13.7751,-13.8804,-13.8875,-13.8753,-13.8558,-13.8279,-13.802,-13.7815,-13.7815,-13.7815,-13.7815,-13.7815,-13.7815,-13.7815,-13.7815,-13.7815,-13.7367,-13.46,-13.3403,-13.288,-13.2356,-13.0335,-12.8229,-12.8229,-12.9221,-13.0566,-13.1699,-13.4769,-13.7767,-13.8998,-13.9301,-13.9337,-13.9477,-13.9401,-13.9354,-13.9477,-13.9401,-13.9301,-13.9301,-13.9146,-13.9102,-13.9102,-13.9007,-13.8844,-13.863,-13.965,-14.0404,-14.0627,-14.2014,-14.3434,-14.4567,-14.4331,-14.3878,-14.3142,-14.3407,-14.2315,-13.933,-13.9748,-13.9956,-13.9622,-14.0857,-14.2276,-14.3802,-14.5212,-14.5985,-14.5861,-14.6081,-14.5811,6.6158,6.7254,6.6641,6.3446,6.1985,5.6531,3.8123,1.7378,-0.9264,-4.9094,-6.3792,-7.3338,-8.5827,-9.4322,-10.1651,-10.809,-11.3921,-12.034,-12.8084,-13.0133,-13.3096,-13.9259,-13.7399,-13.6116,-13.7366,-13.6508,-13.5676,-13.4995,-13.5792,-13.608,-13.5507,-13.6714,-13.6604,-13.4764,-13.4838,-13.4591,-13.391,-13.4202,-13.4281,-13.4281,-13.5313,-13.6181,-13.7048,-13.7697,-13.84,-13.9207,-13.8814,-13.8558,-13.8403,-13.8133,-13.7997,-13.7815,-13.7815,-13.7815,-13.7815,-13.7815,-13.7815,-13.7815,-13.7815,-13.7815,-13.7516,-13.5497,-13.4002,-13.273,-13.1459,-12.9665,-12.8094,-12.8094,-12.8679,-12.966,-13.1554,-13.4145,-13.6714,-13.8522,-13.8955,-13.9007,-13.9187,-13.9102,-13.9007,-13.9187,-13.9079,-13.8955,-13.8955,-13.8814,-13.8722,-13.8722,-13.9158,-13.9461,-13.92,-14.0657,-14.1694,-14.1678,-14.3074,-14.4114,-14.4425,-14.3399,-14.233,-14.1308,-14.005,-13.8067,-13.5454,-13.564,-13.5651,-13.5454,-13.7484,-13.9301,-14.1016,-14.2202,-14.2818,-14.3027,-14.2818,-14.2562,7.5819,7.6716,7.6829,7.4283,7.1091,6.5329,5.3204,2.7585,-0.5919,-4.9508,-6.6937,-7.9063,-9.4732,-10.2843,-10.9068,-11.5031,-11.851,-12.3111,-13.0728,-13.2849,-13.5498,-14.0488,-13.9766,-13.8829,-13.8844,-13.8814,-13.8134,-13.6698,-13.8012,-13.8558,-13.7868,-13.8484,-13.7977,-13.6064,-13.6435,-13.5867,-13.428,-13.4309,-13.4309,-13.4337,-13.6327,-13.7009,-13.6735,-13.8543,-13.9207,-13.8901,-13.8901,-13.8732,-13.8362,-13.8362,-13.8133,-13.7815,-13.7815,-13.7815,-13.7815,-13.7815,-13.7815,-13.7815,-13.7815,-13.7815,-13.774,-13.7441,-13.5348,-13.2356,-12.9291,-12.8319,-12.8319,-12.8319,-12.944,-13.1159,-13.3166,-13.479,-13.6374,-13.8375,-13.8844,-13.8844,-13.8901,-13.8872,-13.8844,-13.8901,-13.8872,-13.8844,-13.8844,-13.8594,-13.8362,-13.8203,-13.9246,-13.995,-13.9894,-14.1406,-14.275,-14.3304,-14.3724,-14.3938,-14.391,-14.1451,-13.9808,-13.9492,-13.4333,-13.1344,-13.1204,-12.9867,-12.972,-13.1234,-13.4193,-13.6395,-13.8049,-13.9144,-13.9756,-14.0037,-13.9894,-13.9538,8.4641,8.7294,8.9571,9.1347,8.9495,8.8187,9.2324,7.0157,3.6269,-0.7486,-3.2204,-5.7384,-9.4836,-10.7414,-11.2786,-11.5184,-12.0338,-12.5189,-12.8404,-13.2132,-13.5286,-13.7571,-13.7625,-13.7615,-13.8047,-13.7313,-13.7056,-13.7496,-13.7843,-13.7972,-13.7815,-13.7922,-13.787,-13.7423,-13.7496,-13.7318,-13.7018,-13.7309,-13.7466,-13.7466,-13.8192,-13.8477,-13.8501,-13.888,-13.8872,-13.8521,-13.8521,-13.8321,-13.7947,-13.7947,-13.7896,-13.7815,-13.7815,-13.7815,-13.7815,-13.7815,-13.7815,-13.7815,-13.7815,-13.7815,-13.7367,-13.4824,-13.3553,-13.2581,-13.0562,-12.9889,-12.9889,-12.9889,-13.116,-13.2856,-13.4652,-13.5326,-13.5974,-13.7693,-13.8116,-13.8133,-13.8446,-13.8279,-13.8179,-13.8446,-13.8279,-13.8116,-13.8116,-13.7972,-13.7644,-13.6806,-13.6935,-13.6838,-13.6005,-13.8512,-14.0483,-14.0984,-14.1129,-14.0747,-13.9642,-13.7974,-13.5784,-13.3042,-13.1727,-13.0511,-12.9335,-13.1224,-13.309,-13.4605,-13.4907,-13.661,-13.9634,-13.6838,-13.6918,-13.9437,-13.7988,-13.7768,9.6137,9.9049,10.1509,10.33,10.2125,10.1287,10.3735,8.164,5.183,2.0611,-1.6414,-5.491,-9.3819,-10.7937,-11.453,-11.7336,-12.1396,-12.5308,-12.8481,-13.2248,-13.5266,-13.678,-13.7037,-13.7178,-13.7447,-13.6698,-13.6522,-13.7029,-13.7523,-13.7815,-13.7815,-13.7815,-13.7815,-13.7815,-13.7815,-13.7815,-13.7815,-13.802,-13.8087,-13.8087,-13.8521,-13.863,-13.8482,-13.863,-13.8484,-13.8087,-13.8087,-13.7972,-13.7815,-13.7815,-13.7815,-13.7815,-13.7815,-13.7815,-13.7815,-13.7815,-13.7815,-13.7815,-13.7815,-13.7815,-13.7142,-13.3104,-13.1758,-13.1609,-13.0711,-13.0412,-13.0562,-13.1459,-13.288,-13.4375,-13.5273,-13.6021,-13.6843,-13.7591,-13.7815,-13.7845,-13.8116,-13.7997,-13.7845,-13.8116,-13.7591,-13.7088,-13.7088,-13.6649,-13.612,-13.556,-13.6224,-13.6521,-13.5985,-13.6349,-13.6418,-13.5864,-13.7053,-13.7455,-13.5925,-13.4474,-13.249,-12.999,-12.8302,-12.7212,-12.6462,-12.7807,-12.9338,-13.0823,-13.1233,-13.2101,-13.3393,-13.2,-13.1691,-13.2081,-13.1749,-13.2426,10.7256,10.988,11.201,11.2461,11.1628,10.9566,10.4914,8.497,6.0496,3.6071,-0.7306,-5.2205,-8.9412,-10.462,-11.3063,-11.775,-12.0719,-12.3734,-12.753,-13.1472,-13.4601,-13.6126,-13.6392,-13.6637,-13.6999,-13.63,-13.5842,-13.6253,-13.6834,-13.7279,-13.7279,-13.7467,-13.7579,-13.7579,-13.7762,-13.7815,-13.7815,-13.7815,-13.7815,-13.7815,-13.8133,-13.8133,-13.7815,-13.8133,-13.8087,-13.7815,-13.7815,-13.7815,-13.7815,-13.7815,-13.7815,-13.7815,-13.7815,-13.7815,-13.7815,-13.7815,-13.7815,-13.7815,-13.7516,-13.7441,-13.6694,-13.2052,-13.0632,-13.0632,-13.081,-13.1085,-13.1609,-13.3029,-13.46,-13.5871,-13.5871,-13.6843,-13.7815,-13.7815,-13.7633,-13.7579,-13.7579,-13.7393,-13.7279,-13.7279,-13.6586,-13.5979,-13.5979,-13.5268,-13.4654,-13.4494,-13.5665,-13.6388,-13.5895,-13.3928,-13.2234,-13.0954,-13.3161,-13.4125,-13.3026,-13.0764,-12.8713,-12.7212,-12.3972,-12.2144,-12.2144,-12.2485,-12.3238,-12.4672,-12.6301,-12.6724,-12.6089,-12.7299,-12.6837,-12.5207,-12.6071,-12.7375,11.3422,11.6126,11.8169,12.0864,11.9443,11.654,11.2836,10.5175,8.4331,3.3033,0.7076,-2.2699,-7.6408,-9.5427,-10.4745,-11.0372,-11.5623,-11.9295,-12.0046,-12.6535,-13.1855,-13.3282,-13.3775,-13.4819,-13.6827,-13.4946,-13.4331,-13.612,-13.556,-13.5119,-13.5119,-13.5911,-13.6448,-13.6448,-13.7336,-13.7815,-13.7815,-13.7815,-13.7815,-13.7815,-13.792,-13.792,-13.7815,-13.792,-13.792,-13.7815,-13.7815,-13.7815,-13.7815,-13.7815,-13.7815,-13.7815,-13.7815,-13.7815,-13.7815,-13.7815,-13.7815,-13.7591,-13.6245,-13.5796,-13.5317,-13.2236,-13.1252,-13.1448,-13.2297,-13.3628,-13.4899,-13.5048,-13.632,-13.7516,-13.7516,-13.7666,-13.7815,-13.7815,-13.7088,-13.6448,-13.6448,-13.5772,-13.5119,-13.5119,-13.5043,-13.4966,-13.4966,-13.4811,-13.4413,-13.3463,-13.3592,-13.283,-13.0466,-12.9641,-12.9576,-13.0684,-13.1234,-13.1243,-13.0845,-12.6469,-12.2925,-12.1164,-11.7683,-11.5576,-11.5576,-11.7745,-11.9638,-12.1017,-12.3586,-12.5342,-12.6275,-12.627,-12.6955,-12.7872,-12.7996,-12.9001,11.8164,12.1321,12.3248,12.4147,12.2785,11.8356,10.717,10.0754,8.2603,3.1904,0.7003,-1.9799,-6.6538,-8.7578,-9.9981,-10.6626,-11.0646,-11.3474,-11.5049,-12.1086,-12.6455,-12.9404,-13.1172,-13.2835,-13.4888,-13.3796,-13.3381,-13.4413,-13.3189,-13.31,-13.4654,-13.5119,-13.5416,-13.5416,-13.6384,-13.6969,-13.6969,-13.7523,-13.7815,-13.7815,-13.7815,-13.7815,-13.7815,-13.7815,-13.7815,-13.7815,-13.7815,-13.7815,-13.7815,-13.7815,-13.7815,-13.7815,-13.7815,-13.7815,-13.7815,-13.7815,-13.7217,-13.6342,-13.506,-13.3615,-13.1982,-12.9952,-12.9813,-13.0772,-13.2071,-13.3018,-13.3832,-13.4794,-13.5535,-13.6053,-13.6053,-13.6053,-13.6053,-13.6053,-13.5702,-13.5416,-13.5416,-13.5043,-13.4733,-13.4733,-13.4249,-13.3828,-13.3828,-13.3284,-13.2518,-13.1145,-13.0936,-13.0063,-12.7647,-12.8508,-12.8528,-12.6181,-12.6691,-12.5822,-12.2751,-12.0471,-11.8511,-11.6817,-11.5906,-11.5442,-11.5442,-11.8619,-12.0668,-12.1289,-12.396,-12.486,-12.409,-12.4883,-12.48,-12.4069,-12.5507,-12.6526,12.0296,12.3474,12.5003,12.2709,12.0147,11.3937,9.7608,8.8741,7.2708,3.2594,0.7156,-1.8686,-5.4494,-7.5916,-9.124,-10.0715,-10.5007,-10.808,-11.0864,-11.6156,-12.1466,-12.6163,-12.8207,-13.0147,-13.2638,-13.2169,-13.1749,-13.1884,-13.0898,-13.1127,-13.3173,-13.3925,-13.4331,-13.4331,-13.5342,-13.5842,-13.5842,-13.6649,-13.7029,-13.7029,-13.7029,-13.7029,-13.7029,-13.7279,-13.7393,-13.7393,-13.7762,-13.7815,-13.7815,-13.7523,-13.7393,-13.7393,-13.7163,-13.7029,-13.7029,-13.7029,-13.6061,-13.4453,-13.3032,-13.0926,-12.8847,-12.8475,-12.9133,-13.0455,-13.223,-13.2826,-13.3119,-13.4366,-13.4733,-13.4733,-13.4733,-13.4733,-13.4733,-13.4733,-13.4494,-13.4331,-13.4331,-13.4082,-13.3913,-13.3913,-13.3284,-13.2614,-13.2155,-13.1112,-12.988,-12.8537,-12.8697,-12.7905,-12.5266,-12.6272,-12.5711,-12.1484,-12.2141,-12.1191,-11.7175,-11.6272,-11.5479,-11.4312,-11.4691,-11.4875,-11.4875,-11.8054,-12.0133,-12.0611,-12.3128,-12.3708,-12.248,-12.3434,-12.3075,-12.1685,-12.3546,-12.4593,11.8608,12.1017,12.1381,11.5426,10.9112,10.0682,8.6504,7.4279,5.9192,3.5575,1.3754,-0.9429,-3.736,-5.708,-7.4042,-8.9225,-9.827,-10.4341,-10.6864,-11.2816,-11.8809,-12.4192,-12.4859,-12.6453,-13.0485,-12.9576,-12.8681,-12.8742,-12.8995,-12.924,-12.9355,-13.1787,-13.3266,-13.3266,-13.4249,-13.4811,-13.4811,-13.4889,-13.4889,-13.4889,-13.4889,-13.4889,-13.4889,-13.5842,-13.6319,-13.6384,-13.7393,-13.7815,-13.7762,-13.6712,-13.6319,-13.6253,-13.5268,-13.4889,-13.4889,-13.4889,-13.3861,-13.2169,-12.9665,-12.7628,-12.6672,-12.9643,-13.073,-13.1197,-13.3827,-13.4586,-13.4586,-13.4733,-13.4733,-13.4733,-13.4733,-13.4733,-13.4733,-13.4733,-13.3913,-13.3266,-13.3266,-13.2469,-13.1709,-13.1709,-13.1781,-13.1115,-12.954,-12.7795,-12.6604,-12.6476,-12.7587,-12.6999,-12.2615,-12.032,-11.8905,-11.8546,-11.8608,-11.8546,-11.8241,-11.6033,-11.4577,-11.4517,-11.2494,-11.1271,-11.1271,-11.2672,-11.4598,-11.705,-11.8451,-12.0378,-12.2607,-12.2665,-12.3306,-12.4186,-12.436,-12.5117,11.4183,11.5061,11.3959,10.956,10.2984,9.3383,7.7321,6.3948,4.8618,2.6134,0.4454,-1.687,-3.7316,-5.605,-7.1095,-8.0541,-8.7981,-9.4275,-9.8501,-10.422,-11.0367,-11.7494,-11.9829,-12.2643,-12.7636,-12.6514,-12.5301,-12.4518,-12.6117,-12.7189,-12.7372,-12.8188,-12.9302,-13.0509,-13.15,-13.2649,-13.3728,-13.4413,-13.4733,-13.4733,-13.4733,-13.4733,-13.4733,-13.5119,-13.5268,-13.5268,-13.5632,-13.5772,-13.5846,-13.5416,-13.5268,-13.5268,-13.4889,-13.4733,-13.4586,-13.3559,-13.2092,-13.0394,-12.8235,-12.7052,-12.698,-12.9133,-13.0496,-13.1456,-13.2446,-13.2686,-13.2686,-13.2686,-13.2686,-13.2686,-13.2686,-13.2686,-13.2686,-13.2686,-13.1557,-13.0509,-13.0509,-12.9329,-12.8158,-12.8158,-12.8158,-12.8038,-12.7427,-12.7559,-12.7611,-12.7549,-12.5103,-12.2655,-12.099,-12.0967,-12.0111,-11.7559,-11.7308,-11.6371,-11.385,-11.281,-11.2273,-11.2273,-11.2146,-11.2262,-11.2262,-11.4298,-11.5868,-11.6799,-11.8137,-12.0056,-12.2615,-12.2615,-12.3255,-12.4419,-12.5291,-12.5466,11.0653,10.9343,10.6066,10.2462,9.3879,8.2126,6.6905,5.276,3.7294,1.8117,-0.105,-1.9382,-3.5451,-5.1919,-6.5704,-7.3396,-8.1166,-8.8016,-9.3572,-9.9216,-10.5611,-11.3025,-11.6197,-11.9599,-12.3981,-12.3444,-12.2395,-12.1575,-12.4682,-12.6158,-12.51,-12.6383,-12.741,-12.8108,-12.8819,-12.9758,-13.086,-13.1626,-13.2204,-13.2813,-13.2813,-13.3139,-13.3728,-13.3998,-13.4166,-13.4166,-13.4574,-13.4733,-13.4654,-13.4331,-13.4166,-13.4166,-13.3742,-13.3364,-13.2782,-13.169,-13.0308,-12.8671,-12.7386,-12.6935,-12.7292,-12.9361,-13.0717,-13.1573,-13.1573,-13.1573,-13.1573,-13.1573,-13.1573,-13.1468,-13.0972,-13.0685,-13.0576,-12.9992,-12.9008,-12.8108,-12.8108,-12.7178,-12.6486,-12.7036,-12.7105,-12.7051,-12.7002,-12.7689,-12.7812,-12.6247,-12.3081,-12.0592,-11.9797,-11.9399,-11.8238,-11.5682,-11.4503,-11.2759,-10.9754,-10.8943,-10.8751,-10.8751,-10.9545,-11.0012,-11.0466,-11.1816,-11.2894,-11.3746,-11.42,-11.6123,-11.982,-11.982,-12.0962,-12.3197,-12.3041,-12.3214,10.8082,10.397,9.802,9.4244,8.1482,6.6987,5.4887,4.0433,2.5556,1.2453,-0.1305,-1.5507,-3.0034,-4.3891,-5.6767,-6.7604,-7.7868,-8.6176,-9.2166,-9.8683,-10.4956,-11.127,-11.4668,-11.7402,-11.9801,-12.0049,-12.0233,-12.0171,-12.4996,-12.6103,-12.2329,-12.6036,-12.7669,-12.6288,-12.6219,-12.6348,-12.6348,-12.6348,-12.7302,-12.8961,-12.8961,-12.9838,-13.1468,-13.2494,-13.2918,-13.301,-13.4009,-13.442,-13.4339,-13.3463,-13.3083,-13.299,-13.1944,-13.0646,-12.929,-12.9116,-12.8117,-12.6834,-12.6834,-12.6834,-12.7405,-13.047,-13.1468,-13.1468,-13.1468,-13.1468,-13.1468,-13.1468,-13.1468,-13.1079,-12.9426,-12.8961,-12.8537,-12.6731,-12.6348,-12.6288,-12.6288,-12.6288,-12.6769,-12.815,-12.8292,-12.8235,-12.7968,-12.7798,-12.6446,-12.2334,-12.1719,-12.0864,-11.8783,-11.5187,-11.2695,-11.2753,-11.0113,-10.783,-10.6814,-10.509,-10.3947,-10.3947,-10.3947,-10.4484,-10.5719,-10.4591,-10.5021,-10.7276,-10.6487,-10.864,-11.3924,-11.3924,-11.6243,-12.0475,-11.7264,-11.8173,10.1102,9.6562,9.0507,8.8741,7.7484,6.2905,4.8265,3.4884,2.0632,0.2786,-1.0251,-2.198,-3.3295,-4.5303,-5.5306,-6.0941,-7.0374,-7.8872,-8.4352,-9.103,-9.8631,-10.7115,-10.9741,-11.1155,-11.1874,-11.4367,-11.6359,-11.7462,-12.0586,-12.1539,-11.9387,-12.1066,-12.2574,-12.3423,-12.4129,-12.5101,-12.6348,-12.6348,-12.6604,-12.7178,-12.7178,-12.7427,-12.7795,-12.8138,-12.8306,-12.8236,-12.8447,-12.8678,-12.8793,-12.982,-13.0183,-13.0363,-13.122,-13.1288,-13.0366,-12.5667,-12.3621,-12.3086,-12.3273,-12.3969,-12.5101,-12.7169,-12.7795,-12.7795,-12.7795,-12.7795,-12.7795,-12.7795,-12.7795,-12.7673,-12.7302,-12.7178,-12.7052,-12.6476,-12.6188,-12.6046,-12.6046,-12.5997,-12.5969,-12.6369,-12.4859,-12.366,-12.3631,-12.2976,-12.2063,-12.0883,-11.9306,-11.7351,-11.4892,-11.0904,-10.7915,-10.6522,-10.6564,-10.6268,-10.5943,-10.5478,-10.5235,-10.5235,-10.5235,-10.5396,-10.5719,-10.5396,-10.5557,-10.6202,-10.588,-10.7311,-11.0809,-11.0809,-11.1934,-11.3847,-11.3083,-11.2809,9.4744,9.0584,8.488,8.2789,7.2964,5.8765,3.9665,2.8054,1.4765,-0.8089,-1.8328,-2.6492,-3.7971,-4.7175,-5.4348,-5.8513,-6.6768,-7.4295,-7.9752,-8.684,-9.4305,-10.1541,-10.3388,-10.5035,-10.7654,-11.1212,-11.39,-11.4823,-11.8849,-12.0049,-11.7574,-11.8968,-11.9888,-11.9765,-12.1206,-12.238,-12.2815,-12.3798,-12.4558,-12.5369,-12.5369,-12.5698,-12.6348,-12.6348,-12.6348,-12.6348,-12.6348,-12.6348,-12.6476,-12.7427,-12.7986,-12.7986,-12.8938,-12.8933,-12.8001,-12.477,-12.3607,-12.3607,-12.3607,-12.4157,-12.5051,-12.6073,-12.6348,-12.6348,-12.6348,-12.6348,-12.6348,-12.6348,-12.6348,-12.6357,-12.6254,-12.6121,-12.6191,-12.6042,-12.5051,-12.4288,-12.4288,-12.3272,-12.263,-12.3273,-12.2587,-12.1913,-12.209,-12.2145,-12.0975,-11.7777,-11.5521,-11.3458,-11.1174,-10.827,-10.5913,-10.4819,-10.5343,-10.5096,-10.3172,-10.2,-10.1054,-10.1054,-10.1054,-10.1261,-10.1778,-10.1313,-10.1313,-10.1778,-10.1313,-10.2887,-10.6048,-10.6048,-10.708,-10.8962,-10.7772,-10.596,8.9691,8.6454,8.128,7.5828,6.6181,5.1867,0.0,1.9646,0.8251,-1.8009,-2.4279,-2.9218,-4.2417,-4.8379,-5.3022,-5.9431,-6.5525,-7.165,-7.7499,-8.4567,-9.0342,-9.369,-9.5852,-9.9256,-10.4539,-10.8524,-11.1055,-11.184,-11.7392,-11.9329,-11.5702,-11.836,-11.8749,-11.6149,-11.8188,-11.8679,-11.7441,-11.9508,-12.1365,-12.2727,-12.2727,-12.3517,-12.4963,-12.4963,-12.4963,-12.4963,-12.5297,-12.5365,-12.5498,-12.596,-12.609,-12.609,-12.6219,-12.5205,-12.3663,-12.4959,-12.5707,-12.6045,-12.5703,-12.5703,-12.5771,-12.5766,-12.5829,-12.5829,-12.5829,-12.5829,-12.5898,-12.5903,-12.5972,-12.5915,-12.567,-12.5493,-12.5452,-12.4756,-12.3196,-12.1676,-12.1484,-11.9868,-11.8867,-12.0169,-12.1103,-12.1845,-12.2033,-12.2706,-12.0707,-11.3159,-11.0806,-10.945,-10.7897,-10.606,-10.5113,-10.5042,-10.4632,-10.3096,-9.9384,-9.6598,-9.498,-9.498,-9.498,-9.5419,-9.6346,-9.5468,-9.5419,-9.6395,-9.5468,-9.685,-10.0576,-10.0576,-10.1965,-10.4559,-10.1778,-9.9168,0.0,0.0,0.0,0.0,0.0,0.0,0.0,0.8389,0.1108,-2.1543,-2.4863,-2.801,-4.1308,-4.5602,-5.081,-6.1734,-6.5816,-6.9295,-7.4356,-8.0102,-8.2886,-8.0096,-8.7542,-9.3083,-9.4036,-9.8154,-10.1717,-10.427,-10.8793,-11.0905,-11.0311,-11.4586,-11.6482,-11.4908,-11.6154,-11.6218,-11.5016,-11.536,-11.5809,-11.6084,-11.6084,-11.6356,-11.6562,-11.6562,-11.6562,-11.6728,-11.8643,-11.9497,-11.9654,-12.3015,-12.435,-12.4488,-12.5829,-12.4062,-12.0706,-12.0966,-12.3051,-12.5298,-12.2977,-12.291,-12.3773,-12.2661,-12.2329,-12.2329,-12.2329,-12.2329,-12.2528,-12.3724,-12.3905,-12.3781,-12.2818,-12.2716,-12.2052,-12.0019,-12.0077,-12.0398,-11.9334,-12.0473,-12.1413,-12.0604,-11.9782,-11.9342,-11.9342,-11.7912,-11.4611,-10.8174,-10.6114,-10.5067,-10.4625,-10.1484,-9.9583,-10.0279,-9.8342,-9.6995,-9.695,-9.6552,-9.6102,-9.6102,-9.6102,-9.62,-9.6395,-9.62,-9.62,-9.6395,-9.62,-9.645,-9.7345,-9.7345,-9.7593,-9.8286,-9.7544,-9.7096,0.0,0.0,0.0,0.0,0.0,0.0,0.0,0.0,0.0,0.0,0.0,-3.6748,-4.7289,0.0,-5.3124,-6.0991,-6.2908,-6.5157,-7.0093,-7.5565,-7.7692,-7.3481,-8.1605,-8.8065,-8.955,-9.4066,-9.8175,-10.1262,-10.5252,-10.7757,-10.7757,-11.1533,-11.3224,-11.198,-11.3697,-11.3957,-11.2549,-11.4299,-11.5317,-11.5317,-11.5824,-11.6135,-11.6135,-11.6135,-11.5762,-11.5317,-11.6537,-11.6673,-11.621,-11.8162,-11.9118,-11.9118,-12.0732,-12.0324,-11.8961,-11.9717,-12.1285,-12.27,-12.0587,-12.106,-12.2202,-12.0222,-12.0422,-12.1258,-12.1258,-12.1785,-12.2508,-12.3231,-12.3101,-12.2751,-12.287,-12.1984,-12.099,-12.0415,-12.029,-12.0142,-11.8795,-11.9174,-11.9276,-11.7951,-11.7793,-11.7016,-11.474,-11.2134,-10.9176,-10.5949,-10.3319,-10.1864,-10.2156,-9.8789,-9.7126,-9.9082,-9.8183,-9.7469,-9.8006,-9.8055,-9.7567,-9.6493,-9.6395,-9.6395,-9.6395,-9.6395,-9.6395,-9.6395,-9.6395,-9.6395,-9.6395,-9.6395,-9.6395,-9.6444,-9.6932,-9.6932,0.0,0.0,0.0,0.0,0.0,0.0,0.0,0.0,0.0,0.0,0.0,0.0,0.0,0.0,0.0,-5.9282,-5.975,-6.1193,-6.5947,-7.1852,-7.4344,-6.9861,-7.7488,-8.4053,-8.655,-9.1033,-9.5034,-9.8003,-10.2796,-10.5345,-10.47,-10.8639,-11.0198,-10.8519,-11.0543,-11.1053,-10.9677,-11.2737,-11.4136,-11.4198,-11.555,0.0,-11.6286,-11.6286,-11.5734,-11.4935,-11.517,-11.4608,-11.3619,-11.4147,-11.4322,-11.4271,-11.4435,-11.5303,-11.6594,-11.8565,-11.9615,-11.9734,-11.8116,-11.8863,-12.0039,-11.7492,-11.8033,-11.9654,-11.9758,-12.0864,0.0,-12.2361,-12.2025,-12.184,-12.2824,-12.1524,-12.0108,-12.0839,-12.007,-11.8832,-11.7695,-11.6839,-11.5752,-11.4705,-11.5095,-11.4427,-11.0894,-10.7484,-10.4984,-10.4438,-10.1674,-9.9838,-10.0457,-9.7494,-9.6346,-9.8787,-9.9031,-9.9031,-9.9031,-9.8595,-9.7917,-9.6542,-9.598,-9.6319,-9.7322,-9.7322,-9.7225,-9.703,-9.742,-9.7225,-9.6395,-9.6834,-9.6932,-9.6737,-9.7371,-9.703,0.0,0.0,0.0,0.0,0.0,0.0,0.0,0.0,0.0,0.0,0.0,0.0,0.0,0.0,0.0,0.0,-5.8427,-5.9413,-6.3897,-7.0336,-7.2878,-6.8029,-7.5409,-8.1354,-8.2467,-8.41,-8.6448,-8.9602,-9.697,-10.0178,-9.7498,-10.5975,0.0,0.0,0.0,-10.7242,-10.5958,-10.6459,-10.6517,-10.6517,-10.9174,-11.0289,-11.0289,-11.0289,-11.023,-10.9996,-11.1002,-11.1273,-11.1275,-11.3442,-11.4322,-11.3796,-10.9958,-10.9174,-11.0604,-11.4132,-11.696,-11.8359,-11.5805,0.0,0.0,-11.3469,-11.3139,-11.3559,-11.4813,-11.5955,-11.7332,-11.8698,-11.9655,-12.0296,-11.9319,-11.8904,-11.8234,-11.6161,-11.4689,-11.3723,-11.3606,-11.3516,-11.3367,-11.3251,-11.195,-11.0894,-11.0285,-10.6291,-10.2414,-10.0617,-9.9949,-9.9643,-9.979,-9.8554,-9.742,-9.6834,-9.6786,0.0,-9.6786,-9.5246,-9.4863,-9.629,-9.4654,-9.585,-10.0428,-10.0739,-10.03,-9.9324,-10.1178,-10.0251,-9.6395,-9.8347,-9.8787,-9.7811,-9.6981,-9.5468,0.0,0.0,0.0,0.0,0.0,0.0,0.0,0.0,0.0,0.0,0.0,0.0,0.0,0.0,0.0,0.0,-5.8581,-5.8887,-6.0655,-6.3786,-6.5941,-6.56,-7.1846,-7.7415,-7.9832,-8.3341,-8.6634,-8.9516,-9.2982,-9.5845,-9.7766,-10.2672,-10.5271,-10.5214,-10.6495,-10.7027,-10.6503,-10.7201,-10.6354,-10.4157,-10.8346,-10.8953,-10.704,-11.0023,-11.0107,-10.7804,-10.9869,-10.9564,-10.7304,-10.9388,-11.0283,-11.0215,0.0,0.0,0.0,0.0,-11.3204,-11.3819,-11.2021,-11.23,-11.3224,-11.1023,-11.1169,-11.2503,-11.3064,-11.4011,-11.5442,-11.6748,-11.7824,-11.81,-11.774,-11.6935,-11.5984,-11.4157,-11.3949,-11.389,-11.3134,-11.217,-11.135,-11.135,-10.9232,0.0,-10.6112,-10.2635,-10.0022,-10.0609,-10.0105,-9.9909,-10.0544,-9.908,-9.8299,-9.9177,-9.8689,-9.8299,-9.8299,-9.555,0.0,0.0,0.0,-9.2787,-9.43,-9.6452,0.0,0.0,0.0,-9.5396,-9.7322,-9.5109,0.0,0.0,-9.1996,-9.1918,0.0,0.0,0.0,0.0,0.0,0.0,0.0,0.0,0.0,0.0,0.0,0.0,0.0,0.0,0.0,0.0,-5.9623,-5.9833,-5.9791,-6.2281,-6.417,-6.4703,-6.9988,-7.4917,-7.7887,-8.2381,-8.6249,-8.8735,-9.05,-9.2939,-9.5502,-9.8221,-10.0141,-10.1457,-10.2819,-10.3729,-10.3872,-10.4928,-10.4031,-10.1362,-10.6293,-10.6987,-10.4457,-10.8611,-10.8635,-10.5962,-10.7608,-10.6971,-10.4687,-10.6013,-10.6957,-10.7121,-10.5987,-10.5844,-10.6617,-10.7482,-10.823,-10.8714,-10.7492,-10.8134,-10.943,-10.7459,-10.8251,-10.9977,-11.0406,-11.1691,-11.3284,-11.4263,-11.4718,-11.5224,-11.5224,-11.4361,-11.3076,-11.2145,-11.1701,-11.1516,-11.0882,-10.9244,-10.7958,-10.8511,-10.5142,-10.1868,-10.0651,-9.8783,-9.8299,-10.0495,-10.0446,-10.0397,-10.1178,-9.9909,-9.9275,-10.03,-9.8837,-9.7689,-9.74,-9.3476,-9.074,-8.9546,-8.8849,-8.8181,-8.8046,-9.2173,-9.4198,-9.4151,-9.1626,-9.1673,0.0,0.0,0.0,0.0,0.0,0.0,0.0,0.0,0.0,0.0,0.0,0.0,0.0,0.0,0.0,0.0,0.0,0.0,0.0,0.0,0.0,0.0,0.0,0.0,-6.265,-6.964,-7.2404,-6.6431,-7.063,-7.4523,-7.5884,-7.9275,-8.1881,-8.3727,-8.9484,-9.1416,-8.7307,-9.2457,-9.4361,-9.1651,-9.3036,-9.4423,-9.5349,-9.5402,-9.5994,-9.6913,-10.0622,-10.2236,-10.229,-10.3528,-10.4119,-10.3786,-10.2658,-10.3015,-10.4533,-10.4743,-10.5777,-10.6576,-9.8905,-9.7359,-9.9567,-9.9623,-10.1308,-10.342,-10.2141,-10.1734,-10.1861,-10.1803,-10.2619,-10.3843,-10.5125,-10.7281,-10.9519,-10.9578,-11.0253,-11.1243,-11.1243,-11.0226,-10.9353,-10.9295,-10.6184,-10.3718,-10.4784,-10.3557,-10.272,-10.3958,-9.8493,-9.3807,-9.4933,-9.5761,-9.7225,-9.9421,-10.0593,0.0,-10.1276,-10.1227,-10.0397,-9.8347,-9.508,-9.2479,-9.1413,-8.636,-8.389,-8.5842,-8.3358,-8.2748,-8.4361,-9.008,-9.1703,-8.8457,-9.3312,-9.2398,-8.4886,0.0,0.0,0.0,0.0,0.0,0.0,0.0,0.0,0.0,0.0,0.0,0.0,0.0,0.0,0.0,0.0,0.0,0.0,0.0,0.0,0.0,0.0,0.0,0.0,-6.6842,-6.8078,-6.1409,-6.6864,-7.0718,-6.971,-7.44,-7.819,-8.0215,-8.2302,-8.4902,-8.7816,-8.6951,-8.8137,-9.161,-9.1251,-9.2404,-9.5295,-9.5295,-9.4095,-9.1831,-9.6436,-9.7341,-9.5023,-9.947,-10.0895,-9.981,-10.1386,-10.1664,-10.0973,-10.0571,-10.0211,-9.9423,-9.8334,-9.8604,-9.9596,-10.1274,-10.2544,-10.3304,-10.2897,-10.2722,-10.2606,-10.1734,-10.1734,-10.2199,-10.2664,-10.3362,-10.4235,-10.5107,-10.6271,-10.7434,-10.8306,-10.947,-10.9532,-10.6127,-10.5351,-10.4602,-10.1637,-9.9424,-9.8402,-9.9601,-9.5545,-9.2348,-9.291,-9.4198,-9.598,-9.7435,-9.9207,-10.0202,-10.0202,-9.7959,-9.5992,-9.5286,-9.1908,-8.9347,-8.8326,-8.3948,-8.1291,-8.1412,-8.0042,-7.9032,-7.8852,-8.3313,-8.4955,-8.3619,-8.6197,-8.4535,-7.8154,0.0,0.0,0.0,0.0,0.0,0.0,0.0,0.0,0.0,0.0,0.0,0.0,0.0,0.0,0.0,0.0,0.0,0.0,0.0,0.0,0.0,0.0,0.0,0.0,0.0,0.0,-6.1807,-6.5728,0.0,-6.6693,-7.1049,-7.4671,-7.629,-7.6584,-7.8212,-8.2324,-8.019,-8.0656,-8.4184,-8.5505,-8.7302,-8.9163,-8.9362,-8.9038,-8.7812,-8.9728,-9.0434,-9.0182,-9.3632,-9.4986,-9.4974,-9.6899,-9.7283,-9.6698,-9.4145,-9.2509,-9.1312,-9.2072,-9.3168,-9.4364,-9.7011,-9.8591,-9.9457,-10.0444,-10.0687,-10.0454,-9.9174,-9.9058,-9.9523,-9.9989,-9.9842,-9.9745,-10.1547,-10.1758,-10.1878,-10.4606,-10.4896,-10.4291,-10.2351,-10.1333,-10.0192,-9.7178,-9.5302,-9.4419,-9.4369,-9.224,-9.0464,-9.0578,-9.1432,-9.2457,-9.268,-9.5553,-9.7028,-9.555,-9.4414,-9.3346,-9.1639,-8.8337,-8.5515,-8.4538,-8.0698,-7.8237,-7.7679,-7.6564,-7.5649,-7.4785,-7.777,-7.8509,-7.6937,-7.872,-7.8043,0.0,0.0,0.0,0.0,0.0,0.0,0.0,0.0,0.0,0.0,0.0,0.0,0.0,0.0,0.0,0.0,0.0,0.0,0.0,0.0,0.0,0.0,0.0,0.0,0.0,0.0,0.0,-6.6157,-6.6324,0.0,0.0,0.0,0.0,-7.1804,-7.2218,-7.2058,-7.1357,-7.2426,-7.2155,-7.055,-7.6295,-7.8702,-7.7586,-7.8294,-8.0432,-8.4386,-8.0922,-8.2117,-8.7639,-8.5934,-8.6928,-8.9524,-8.9757,-9.0734,-9.1897,-8.5629,-8.3217,-8.3022,-8.0972,-8.1697,-8.4323,-8.6823,-8.9492,-9.1896,-9.4457,-9.5452,-9.5161,-9.3825,-9.4463,-9.5684,-9.6728,-9.6377,0.0,0.0,-9.637,-9.4712,-9.9655,-9.7241,-9.4289,-9.7705,-9.4565,-9.094,-9.1692,-9.161,-9.0782,-8.8355,-8.7966,-8.7821,-8.7456,0.0,-8.6883,-8.5847,-9.0022,-9.1908,-8.7734,-9.0875,-9.1908,-8.7507,-8.3944,-8.1432,-8.0218,-7.6879,-7.4944,-7.4868,-7.335,-7.24,-7.2325,-7.3833,-7.2822,-6.8756,-7.1866,0.0,0.0,0.0,0.0,0.0,0.0,0.0,0.0,0.0,0.0,0.0,0.0,0.0,0.0,0.0,0.0,0.0,0.0,0.0,0.0,0.0,0.0,0.0,0.0,0.0,0.0,-6.3573,-6.0877,-5.7089,-6.0337,-6.1118,0.0,0.0,0.0,0.0,0.0,0.0,-6.8196,-6.6574,-6.6765,-6.9201,-6.6962,-6.8141,-7.3056,-7.3542,-7.3932,-7.4335,-7.8116,-7.9144,-7.737,-8.1869,-8.3719,-8.3294,-8.544,-8.7083,-8.7531,-7.9275,-7.703,-7.8727,-7.8203,-7.9053,-8.1147,-8.3767,-8.4685,-8.492,-8.814,-8.8602,-8.775,-8.8545,-8.9911,-9.1218,-8.9971,0.0,0.0,0.0,0.0,-8.9307,-9.2203,-9.2768,-9.2066,-9.0126,-9.0528,-9.0326,-8.6679,-8.7525,-8.7602,-8.2578,-8.2124,-8.1713,-7.9402,-8.1025,0.0,-8.339,-8.593,-8.7437,-8.6147,-8.4657,-8.3632,-8.3029,-8.0427,-7.8251,-7.7323,-7.5892,-7.4451,-7.3198,-7.2173,-7.1034,-6.9781,-7.0071,-6.9677,-6.7807,0.0,0.0,0.0,0.0,0.0,0.0,0.0,0.0,0.0,0.0,0.0,0.0,0.0,0.0,0.0,0.0,0.0,0.0,0.0,0.0,0.0,0.0,0.0,0.0,0.0,0.0,0.0,-6.1015,-5.8571,-5.5365,-5.6063,-5.6624,0.0,0.0,0.0,0.0,0.0,0.0,0.0,0.0,0.0,-6.2232,-6.2022,-6.3351,-6.6052,-6.7708,-6.8923,-6.98,-7.2342,-7.3774,-7.4532,-7.5773,-7.7256,-7.9154,-7.9849,-7.9585,-7.8578,-7.3318,-7.1829,-7.2877,0.0,0.0,0.0,0.0,-7.9601,-7.8995,-8.2117,-8.2575,-8.2076,-8.2187,0.0,0.0,0.0,0.0,0.0,0.0,0.0,-8.2654,-8.6201,-8.647,-8.5497,-8.5457,-8.6022,-8.6012,-8.463,-8.2334,-7.9809,-7.6684,-7.6419,-7.6205,-7.4684,-7.6396,0.0,0.0,0.0,-8.2034,-8.0312,-7.9787,-7.9415,-7.8316,-7.6999,-7.6235,-7.5703,-7.4906,-7.4033,-7.3084,-7.1565,-7.0312,-6.9363,-6.8262,-6.7275,0.0,0.0,0.0,0.0,0.0,0.0,0.0,0.0,0.0,0.0,0.0,0.0,0.0,0.0,0.0,0.0,0.0,0.0,0.0,0.0,0.0,0.0,0.0,0.0,0.0,0.0,0.0,0.0,0.0,-5.9607,-5.6513,0.0,0.0,0.0,0.0,0.0,0.0,0.0,0.0,0.0,0.0,0.0,0.0,0.0,-6.0877,-5.9014,-6.188,-6.4662,-6.6888,-6.5165,-6.7349,-7.2812,-6.8446,-6.9805,-7.5435,-7.2286,0.0,-6.8103,-6.7911,0.0,0.0,0.0,0.0,0.0,0.0,0.0,0.0,0.0,0.0,0.0,0.0,0.0,0.0,0.0,0.0,0.0,0.0,0.0,0.0,0.0,0.0,-7.7716,-8.1505,-8.0592,-7.9806,-8.2348,-7.6455,-7.0509,-7.0906,-7.1168,-7.1264,0.0,0.0,0.0,0.0,0.0,0.0,-7.2985,-7.5592,-7.6883,-7.3817,-7.4109,-7.4489,-7.4489,-7.3843,-7.3236,-7.2894,-7.1072,-6.9781,-6.9211,-6.7389,0.0,0.0,0.0,0.0,0.0,0.0,0.0,0.0,0.0,0.0,0.0,0.0,0.0,0.0,0.0,0.0,0.0,0.0,0.0,0.0,0.0,0.0,0.0,0.0,0.0,0.0,0.0,0.0,0.0,0.0,0.0,0.0,0.0,0.0,0.0,0.0,0.0,0.0,0.0,0.0,0.0,0.0,0.0,0.0,0.0,0.0,0.0,0.0,0.0,0.0,-6.0548,-6.11,-5.8622,-6.2392,-6.5148,-6.6345,-6.1563,-6.1425,-6.4575,-6.2492,0.0,0.0,0.0,0.0,0.0,0.0,0.0,0.0,0.0,0.0,0.0,0.0,0.0,0.0,0.0,0.0,0.0,0.0,0.0,0.0,0.0,0.0,-7.3898,-7.1671,-7.2064,-7.2658,-7.1046,0.0,0.0,0.0,0.0,0.0,0.0,0.0,0.0,0.0,0.0,0.0,-7.1797,-7.2144,-7.2759,-7.2628,-7.2249,-7.1945,-7.1945,-7.1793,-7.0806,-6.868,-6.9477,-6.8452,0.0,0.0,0.0,0.0,0.0,0.0,0.0,0.0,0.0,0.0,0.0,0.0,0.0,0.0,0.0,0.0,0.0,0.0,0.0,0.0,0.0,0.0,0.0,0.0,0.0,0.0,0.0,0.0,0.0,0.0,0.0,0.0,0.0,0.0,0.0,0.0,0.0,0.0,0.0,0.0,0.0,0.0,0.0,0.0,0.0,0.0,0.0,0.0,0.0,0.0,0.0,0.0,0.0,0.0,0.0,0.0,0.0,0.0,-5.7905,-5.5797,0.0,0.0,0.0,0.0,0.0,0.0,0.0,0.0,0.0,0.0,0.0,0.0,0.0,0.0,0.0,0.0,0.0,0.0,0.0,0.0,0.0,0.0,0.0,0.0,0.0,0.0,0.0,0.0,0.0,0.0,0.0,0.0,0.0,0.0,0.0,0.0,0.0,0.0,0.0,0.0,-6.9933,-7.035,-7.0958,-7.1793,-7.111,-7.0616,-7.0616,-7.0236,-6.9629,-6.8832,-6.7921,0.0,0.0,0.0,0.0,0.0,0.0,0.0,0.0,0.0,0.0,0.0,0.0,0.0,0.0,0.0,0.0,0.0,0.0,0.0,0.0,0.0,0.0,0.0,0.0,0.0,0.0,0.0,0.0,0.0,0.0,0.0,0.0,0.0,0.0,0.0,0.0,0.0,0.0,0.0,0.0,0.0,0.0,0.0,0.0,0.0,0.0,0.0,0.0,0.0,0.0,0.0,0.0,0.0,0.0,0.0,0.0,0.0,0.0,0.0,-5.4318,-5.0793,0.0,0.0,0.0,0.0,0.0,0.0,0.0,0.0,0.0,0.0,0.0,0.0,0.0,0.0,0.0,0.0,0.0,0.0,0.0,0.0,0.0,0.0,0.0,0.0,0.0,0.0,0.0,0.0,0.0,0.0,0.0,0.0,0.0,0.0,0.0,0.0,0.0,0.0,0.0,0.0,-6.7617,-6.8908,-6.9933,-7.0426,-6.9857,-6.9401,-6.9211,-6.8452,-6.8186,-6.8642,-6.6174,0.0,0.0,0.0,0.0,0.0,0.0,0.0,0.0,0.0,0.0,0.0,0.0,0.0,0.0,0.0,0.0,0.0,0.0,0.0,0.0,0.0,0.0,0.0,0.0,0.0,0.0,0.0,0.0,0.0,0.0,0.0,0.0,0.0,0.0,0.0,0.0,0.0,0.0,0.0,0.0,0.0,0.0,0.0,0.0,0.0,0.0,0.0,0.0,0.0,0.0,0.0,0.0,0.0,0.0,0.0,0.0,0.0,0.0,0.0,0.0,0.0,0.0,0.0,0.0,0.0,0.0,0.0,0.0,0.0,0.0,0.0,0.0,0.0,0.0,0.0,0.0,0.0,0.0,0.0,0.0,0.0,0.0,0.0,0.0,0.0,0.0,0.0,0.0,0.0,0.0,0.0,0.0,0.0,0.0,0.0,0.0,0.0,0.0,0.0,0.0,0.0,-6.42,-6.6971,-6.8642,-6.7883,-6.7731,-6.7389,-6.663,-6.5794,-6.5035,-6.439,0.0,0.0,0.0,0.0,0.0,0.0,0.0,0.0,0.0,0.0,0.0,0.0,0.0,0.0,0.0,0.0,0.0,0.0,0.0,0.0,0.0,0.0,0.0,0.0,0.0,0.0,0.0,0.0,0.0,0.0,0.0,0.0,0.0,0.0,0.0,0.0,0.0,0.0,0.0,0.0,0.0,0.0,0.0,0.0,0.0,0.0,0.0,0.0,0.0,0.0,0.0,0.0,0.0,0.0,0.0,0.0,0.0,0.0,0.0,0.0,0.0,0.0,0.0,0.0,0.0,0.0,0.0,0.0,0.0,0.0,0.0,0.0,0.0,0.0,0.0,0.0,0.0,0.0,0.0,0.0,0.0,0.0,0.0,0.0,0.0,0.0,0.0,0.0,0.0,0.0,0.0,0.0,0.0,0.0,0.0,0.0,0.0,0.0,0.0,0.0,0.0,0.0,-6.3668,-6.5794,-6.7503,-6.8186,-6.6895,-6.6022,-6.6212,-6.5453,-6.4071,-6.1731,0.0,0.0,0.0,0.0,0.0,0.0,0.0,0.0,0.0,0.0,0.0,0.0,0.0,0.0,0.0,0.0,0.0,0.0,0.0,0.0,0.0,0.0,0.0,0.0,0.0,0.0,0.0,0.0,0.0,0.0,0.0,0.0,0.0,0.0,0.0,0.0,0.0,0.0,0.0,0.0,0.0,0.0,0.0,0.0,0.0,0.0,0.0,0.0,0.0,0.0,0.0,0.0,0.0,0.0,0.0,0.0,0.0,0.0,0.0,0.0,0.0,0.0,0.0,0.0,0.0,0.0,0.0,0.0,0.0,0.0,0.0,0.0,0.0,0.0,0.0,0.0,0.0,0.0,0.0,0.0,0.0,0.0,0.0,0.0,0.0,0.0,0.0,0.0,0.0,0.0,0.0,0.0,0.0,0.0,0.0,0.0,0.0,0.0,0.0,0.0,0.0,0.0,-6.2567,-6.4731,-6.6592,-6.7579,-6.5246,-6.4461,-6.5832,-6.405,-6.247,-6.0985,0.0,0.0,0.0,0.0,0.0,0.0,0.0,0.0,0.0,0.0,0.0,0.0,0.0,0.0,0.0,0.0,0.0,0.0,0.0,0.0,0.0,0.0,0.0,0.0,0.0,0.0,0.0,0.0,0.0,0.0,0.0,0.0,0.0,0.0,0.0,0.0,0.0,0.0,0.0,0.0,0.0,0.0,0.0,0.0,0.0,0.0,0.0,0.0,0.0,0.0,0.0,0.0,0.0,0.0,0.0,0.0,0.0,0.0,0.0,0.0,0.0,0.0,0.0,0.0,0.0,0.0,0.0,0.0,0.0,0.0,0.0,0.0,0.0,0.0,0.0,0.0,0.0,0.0,0.0,0.0,0.0,0.0,0.0,0.0,0.0,0.0,0.0,0.0,0.0,0.0,0.0,0.0,0.0,0.0,0.0,0.0,0.0,0.0,0.0,0.0,0.0,0.0,-6.01,-6.3668,-6.5908,-6.5111,-6.2644,-6.2248,-6.4789,-6.1158,-5.9876,0.0,0.0,0.0,0.0,0.0,0.0,0.0,0.0,0.0,0.0,0.0,0.0,0.0,0.0,0.0,0.0,0.0,0.0,0.0,0.0,0.0,0.0,0.0,0.0,0.0,0.0,0.0,0.0,0.0,0.0,0.0,0.0,0.0,0.0,0.0,0.0,0.0,0.0,0.0,0.0,0.0,0.0,0.0,0.0,0.0,0.0,0.0,0.0,0.0,0.0,0.0,0.0,0.0,0.0,0.0,0.0,0.0,0.0,0.0,0.0,0.0,0.0,0.0,0.0,0.0,0.0,0.0,0.0,0.0,0.0,0.0,0.0,0.0,0.0,0.0,0.0,0.0,0.0,0.0,0.0,0.0,0.0,0.0,0.0,0.0,0.0,0.0,0.0,0.0,0.0,0.0,0.0,0.0,0.0,0.0,0.0,0.0,0.0,0.0,0.0,0.0,0.0,0.0,-5.6835,-5.9673,-6.1526,-6.2104,-6.1133,-5.9799,-5.8801,-5.6639,-5.4414,-5.1986,0.0,0.0,0.0,0.0,0.0,0.0,0.0,0.0,0.0,0.0,0.0,0.0,0.0,0.0,0.0,0.0,0.0,0.0,0.0,0.0,0.0,0.0,0.0,0.0,0.0,0.0,0.0,0.0,0.0,0.0,0.0,0.0,0.0,0.0,0.0,0.0,0.0,0.0,0.0,0.0,0.0,0.0,0.0,0.0,0.0,0.0,0.0,0.0,0.0,0.0,0.0,0.0,0.0,0.0,0.0,0.0,0.0,0.0,0.0,0.0,0.0,0.0,0.0,0.0,0.0,0.0,0.0,0.0,0.0,0.0,0.0,0.0,0.0,0.0,0.0,0.0,0.0,0.0,0.0,0.0,0.0,0.0,0.0,0.0,0.0,0.0,0.0,0.0,0.0,0.0,0.0,0.0,0.0,0.0,0.0,0.0,0.0,0.0,0.0,0.0,0.0,0.0,0.0,-5.6149,-5.8376,-5.81,-5.6719,-5.5801,-5.5227,-5.3184,-5.0866,-4.8291,0.0,0.0,0.0,0.0,0.0,0.0,0.0,0.0,0.0,0.0,0.0,0.0,0.0,0.0,0.0,0.0,0.0,0.0,0.0,0.0,0.0,0.0,0.0,0.0,0.0,0.0,0.0,0.0,0.0,0.0,0.0,0.0,0.0,0.0,0.0,0.0,0.0,0.0,0.0,0.0,0.0,0.0,0.0,0.0,0.0,0.0,0.0,0.0,0.0,0.0,0.0,0.0,0.0,0.0,0.0,0.0,0.0,0.0,0.0,0.0,0.0,0.0,0.0,0.0,0.0,0.0,0.0,0.0,0.0,0.0,0.0,0.0,0.0,0.0,0.0,0.0,0.0,0.0,0.0,0.0,0.0,0.0,0.0,0.0,0.0,0.0,0.0,0.0,0.0,0.0,0.0,0.0,0.0,0.0,0.0,0.0,0.0,0.0,0.0,0.0,0.0,0.0,0.0,-5.333,-5.5394,-5.2874,-5.0745,-5.0457,-5.2995,-5.0086,-4.8419,-4.9115,-4.8924,0.0,0.0,0.0,0.0,0.0,0.0,0.0,0.0,0.0,0.0,0.0,0.0,0.0,0.0,0.0,0.0,0.0,0.0,0.0,0.0,0.0,0.0,0.0,0.0,0.0,0.0,0.0,0.0,0.0,0.0,0.0,0.0,0.0,0.0,0.0,0.0,0.0,0.0,0.0,0.0,0.0,0.0,0.0,0.0,0.0,0.0,0.0,0.0,0.0,0.0,0.0,0.0,0.0,0.0,0.0,0.0,0.0,0.0,0.0,0.0,0.0,0.0,0.0,0.0,0.0,0.0,0.0,0.0,0.0,0.0,0.0,0.0,0.0,0.0,0.0,0.0,0.0,0.0,0.0,0.0,0.0,0.0,0.0,0.0,0.0,0.0,0.0,0.0,0.0,0.0,0.0,0.0,0.0,0.0,0.0,0.0,0.0,0.0,0.0,0.0,0.0,0.0,-4.8322,-4.8471,-4.9007,-4.8288,-4.7267,-4.6042,-4.4535,-4.2962,-4.1706,-4.1831,0.0,0.0,0.0,0.0,0.0,0.0,0.0,0.0,0.0,0.0,0.0,0.0,0.0,0.0,0.0,0.0,0.0,0.0,0.0,0.0,0.0,0.0,0.0,0.0,0.0,0.0,0.0,0.0,0.0,0.0,0.0,0.0,0.0,0.0,0.0,0.0,0.0,0.0,0.0,0.0,0.0,0.0,0.0,0.0,0.0,0.0,0.0,0.0,0.0,0.0,0.0,0.0,0.0,0.0,0.0,0.0,0.0,0.0,0.0,0.0,0.0,0.0,0.0,0.0,0.0,0.0,0.0,0.0,0.0,0.0,0.0,0.0,0.0,0.0,0.0,0.0,0.0,0.0,0.0,0.0,0.0,0.0,0.0,0.0,0.0,0.0,0.0,0.0,0.0,0.0,0.0,0.0,0.0,0.0,0.0,0.0,0.0,0.0,0.0,0.0,0.0,0.0,-4.291,-4.2022,-4.3615,-4.4498,-4.3865,-4.2271,-4.1942,-4.0955,-3.8695,-3.8565,0.0,0.0,0.0,0.0,0.0,0.0,0.0,0.0,0.0,0.0,0.0,0.0,0.0,0.0,0.0,0.0,0.0,0.0,0.0,0.0,0.0,0.0,0.0,0.0,0.0,0.0,0.0,0.0,0.0,0.0,0.0,0.0,0.0,0.0,0.0,0.0,0.0,0.0,0.0,0.0,0.0,0.0,0.0,0.0,0.0,0.0,0.0,0.0,0.0,0.0,0.0,0.0,0.0,0.0,0.0,0.0,0.0,0.0,0.0,0.0,0.0,0.0,0.0,0.0,0.0,0.0,0.0,0.0,0.0,0.0,0.0,0.0,0.0,0.0,0.0,0.0,0.0,0.0,0.0,0.0,0.0,0.0,0.0,0.0,0.0,0.0,0.0,0.0,0.0,0.0,0.0,0.0,0.0,0.0,0.0,0.0,0.0,0.0,0.0,0.0,0.0,0.0,0.0,-3.7766,-3.8773,-4.0409,-4.1059,-4.0254,-4.1007,-4.0357,-3.7682,0.0,0.0,0.0,0.0,0.0,0.0,0.0,0.0,0.0,0.0,0.0,0.0,0.0,0.0,0.0,0.0,0.0,0.0,0.0,0.0,0.0,0.0,0.0,0.0,0.0,0.0,0.0,0.0,0.0,0.0,0.0,0.0,0.0,0.0,0.0,0.0,0.0,0.0,0.0,0.0,0.0,0.0,0.0,0.0,0.0,0.0,0.0,0.0,0.0,0.0,0.0,0.0,0.0,0.0,0.0,0.0,0.0,0.0,0.0,0.0,0.0,0.0,0.0,0.0,0.0,0.0,0.0,0.0,0.0,0.0,0.0,0.0,0.0,0.0,0.0,0.0,0.0,0.0,0.0,0.0,0.0,0.0,0.0,0.0,0.0,0.0,0.0,0.0,0.0,0.0,0.0,0.0,0.0,0.0,0.0,0.0,0.0,0.0,0.0,0.0,0.0,0.0,0.0,0.0,-3.9406,-3.736,-3.828,-3.9345,-4.0124,-3.9916,-3.8929,-3.7033,0.0,0.0,0.0,0.0,0.0,0.0,0.0,0.0,0.0,0.0,0.0,0.0,0.0,0.0]}],[{"header":{"parameterUnit":"kt","parameterCategory":2,"dx":1,"dy":1,"la1":29.285339999999998,"la2":30.599998999999997,"lo1":-89.70041500000002,"lo2":-87.6738589999976,"nx":112,"ny":82,"refTime":"2022-10-24T12:00:00:Z","depth":0,"parameterNumber":2,"parameterNumberName":"V-component_of_WINDS"},"data":[-13.698,-13.7663,-13.8098,-13.4769,-13.6765,-13.8958,-13.7014,-13.1575,-12.6616,0.0,0.0,0.0,0.0,0.0,0.0,0.0,0.0,0.0,0.0,0.0,0.0,0.0,0.0,0.0,0.0,0.0,0.0,0.0,0.0,0.0,0.0,-9.4254,-9.3305,-9.4237,-9.3676,-9.2518,-9.0939,-9.1341,-9.1046,-9.0078,-9.4242,-9.7127,-9.8591,-9.759,-9.5643,-9.2465,-8.6794,-8.1441,-7.6021,-7.4362,-7.2249,-6.9744,-6.7504,-6.5592,-6.3665,-5.6208,-5.0949,-4.7889,-4.7889,-4.7889,-4.7889,-4.7889,-4.7889,-4.7289,-4.4934,-4.4043,-4.3487,-4.1319,-4.0777,-4.1587,-4.5323,-4.6982,-4.7994,-4.8567,-4.9572,-4.8304,-4.0915,-4.1586,-4.2257,-3.7882,-4.0578,-4.462,-4.7663,-4.9321,-5.1353,-5.4365,-5.4693,-5.4693,-5.4693,-5.4693,-5.4693,-5.4693,-5.4693,-5.4693,-5.4693,-5.4693,-5.4693,-5.4693,-5.8261,-6.043,-6.0996,-6.4597,-6.5014,-6.2424,-6.0428,-5.8353,-5.6412,-5.449,-5.427,-5.5458,-5.8117,-5.7244,-13.3411,-13.2834,-13.2121,-12.9258,-13.0655,-13.2253,-13.0452,-12.5132,0.0,0.0,0.0,0.0,0.0,0.0,0.0,0.0,0.0,0.0,0.0,0.0,0.0,0.0,0.0,0.0,0.0,0.0,0.0,0.0,0.0,0.0,-9.1024,-9.0314,-9.1055,-9.2764,-9.1948,-9.0993,-9.001,-9.0027,-9.0309,-9.109,-9.3538,-9.5636,-9.7744,-9.4455,-9.1196,-8.8006,-8.3758,-7.8774,-7.3691,-7.1959,-7.0855,-6.9479,-6.4477,-6.2544,-6.1693,-5.428,-4.9838,-4.7889,-4.7889,-4.7889,-4.7602,-4.64,-4.5824,-4.5223,-4.1095,-3.9929,-3.9616,-3.6983,-3.6102,-3.6889,-4.0502,-4.2234,-4.3132,-4.3949,-4.4817,-4.341,-3.6174,-3.6886,-3.7544,-3.3184,-3.587,-4.0578,-4.4954,-4.5621,-4.764,-5.4011,-5.4693,-5.4693,-5.4693,-5.4693,-5.4693,-5.4693,-5.4693,-5.4693,-5.4693,-5.4693,-5.4693,-5.4693,-5.6812,-5.8024,-5.885,-6.0737,-6.0341,-5.7244,-5.7244,-5.5154,-5.1291,-5.1291,-5.1291,-5.1291,-5.3966,-5.3661,-12.9765,-12.4077,-11.9418,-12.2477,-11.9443,-11.6367,-11.8667,0.0,-11.2383,0.0,0.0,0.0,0.0,0.0,0.0,0.0,0.0,0.0,0.0,0.0,0.0,0.0,0.0,0.0,0.0,0.0,0.0,0.0,-10.2143,-8.9187,-8.6792,-8.8015,-8.8488,-8.8488,-8.957,-9.0062,-9.0001,-9.005,-9.1173,-9.3077,-9.1507,-9.1908,-9.3576,-8.7341,-8.4659,-8.4207,-7.8539,-7.521,-7.3021,-6.8753,-6.8079,-6.891,-6.1693,-5.8641,-5.7812,-5.0665,-4.7889,-4.7889,-4.7889,-4.7889,-4.7289,-4.3174,-4.199,-4.1095,-3.7276,-3.6102,-3.5808,-3.5808,-3.5808,-3.6002,-3.686,-3.7713,-3.8362,-3.9659,-4.0288,-3.9392,-3.5108,-3.4529,-3.3184,-2.8812,-3.1509,-3.587,-4.0578,-4.1251,-4.3931,-5.3354,-5.4693,-5.4693,-5.4693,-5.4693,-5.4693,-5.4693,-5.4693,-5.4693,-5.4693,-5.4693,-5.4693,-5.4693,-5.3628,-5.4853,-5.8509,-5.7607,-5.6942,-5.6942,-5.6942,-5.5154,-5.1291,-5.1291,-5.1291,-5.1291,-5.1291,-5.1291,-12.2945,-11.9631,-11.6879,-11.482,-11.6163,-11.7551,0.0,0.0,0.0,0.0,0.0,0.0,0.0,0.0,0.0,0.0,0.0,-9.1938,0.0,0.0,0.0,0.0,0.0,0.0,0.0,0.0,-9.5743,-10.9709,-9.7851,-8.9733,-8.9134,-9.0011,-9.0392,-8.9611,-8.9942,-9.0088,-9.0001,-9.1165,-9.298,-9.546,-9.3122,-9.1635,-9.1022,-8.6543,-8.3963,-8.2412,-7.7413,-7.2891,-6.8753,-6.682,-6.4496,-6.142,-5.6734,-5.4841,-5.428,-4.9553,-4.7889,-4.7889,-4.7889,-4.7889,-4.7289,-4.3174,-4.199,-4.0804,-3.3745,-3.1674,-3.1098,-2.8436,-2.7556,-2.8306,-3.2011,-3.3415,-3.3989,-3.4812,-3.5381,-3.4756,-3.0426,-2.9827,-2.9142,-2.8138,-2.8812,-3.2177,-3.9905,-3.8557,-3.9569,-4.8659,-5.0007,-5.0999,-5.4365,-5.4693,-5.4693,-5.4693,-5.4693,-5.4693,-5.4693,-5.4693,-5.4693,-5.4693,-5.3628,-5.3429,-5.3922,-5.3173,-5.2771,-5.2771,-5.2771,-5.2492,-5.1291,-5.1291,-5.1291,-5.1291,-5.1291,-5.1291,0.0,0.0,0.0,0.0,0.0,0.0,-11.0959,0.0,-10.7355,0.0,0.0,0.0,0.0,0.0,0.0,0.0,-10.1028,0.0,0.0,0.0,0.0,0.0,0.0,0.0,-9.0582,-9.0067,-9.277,-9.8955,-9.3589,-9.0556,-9.1752,-8.9203,-8.8723,-9.0497,-8.8069,-8.7068,-8.7783,-9.0078,-9.1525,-9.1954,-8.895,-8.76,-8.7765,-8.3062,-8.03,-7.8951,-7.4151,-6.9999,-6.6231,-6.2411,-6.0116,-5.8365,-5.3155,-5.0949,-5.0949,-4.8722,-4.6713,-4.5223,-4.5223,-4.4332,-4.2571,-4.0221,-3.8447,-3.5808,-2.9612,-2.7556,-2.7257,-2.4888,-2.4393,-2.5199,-2.8116,-2.9096,-2.9565,-3.0117,-3.0566,-3.0225,-2.8225,-2.7702,-2.7795,-2.7795,-2.7795,-3.017,-3.7224,-3.6209,-3.6886,-4.3952,-4.6643,-4.899,-5.1683,-5.3683,-5.4693,-5.4693,-5.4693,-5.4693,-5.4693,-5.4693,-5.4615,-5.4355,-5.3732,-5.2979,-5.2174,-5.1602,-5.1291,-5.1291,-5.1291,-5.1291,-5.1291,-5.1291,-5.1291,-5.1291,-5.1291,-5.1291,0.0,0.0,0.0,0.0,-10.2929,-10.1655,0.0,0.0,-10.3477,-10.2492,0.0,0.0,0.0,0.0,0.0,0.0,0.0,0.0,-10.6995,0.0,0.0,0.0,-9.6032,-9.4151,-9.0464,-9.001,-8.9806,-8.9166,-8.9108,-9.0642,-9.3662,-8.6729,-8.5173,-9.0463,-8.515,-8.2838,-8.4508,-8.7391,-8.7486,-8.4865,-8.2338,-8.1968,-8.3467,-7.8539,-7.5417,-7.3905,-6.9831,-6.6651,-6.391,-5.7125,-5.5601,-5.6981,-5.0381,-4.7889,-4.7889,-4.7289,-4.4934,-4.199,-4.1386,-3.9032,-3.6102,-3.6102,-3.3449,-2.9612,-2.6074,-2.4601,-2.4301,-2.4301,-2.4512,-2.4815,-2.5118,-2.5395,-2.5751,-2.6357,-2.6674,-2.6951,-2.728,-2.7557,-2.7755,-2.7795,-2.7795,-2.9142,-3.3184,-3.3849,-3.5191,-3.9905,-4.3952,-4.6975,-4.7995,-5.1683,-5.4365,-5.4693,-5.4693,-5.4693,-5.4693,-5.4641,-5.4381,-5.3888,-5.3732,-5.3187,-5.2174,-5.1602,-5.1291,-5.1291,-5.1291,-5.1291,-5.1291,-5.1291,-5.1291,-5.1291,-5.1291,-5.1291,-10.2074,-9.7772,-9.5715,-9.9155,-9.9953,-10.1313,0.0,0.0,0.0,0.0,0.0,0.0,0.0,0.0,0.0,0.0,0.0,0.0,0.0,-10.1362,0.0,-9.6412,-9.3454,-9.0997,-8.9979,-8.9964,-8.8248,-8.3603,-8.4427,-8.6822,-9.0111,-8.6138,-8.4448,-8.5613,-8.2445,-8.0683,-8.0896,-8.1931,-8.1556,-7.969,-8.0869,-8.0232,-7.777,-7.6637,-7.3896,-6.9511,-6.7881,-6.3326,-5.6589,-5.441,-5.2168,-4.9811,-4.8436,-4.7889,-4.7289,-4.4332,-4.2571,-4.1386,-3.8447,-3.6689,-3.6102,-3.6102,-3.3449,-2.9909,-2.9314,-2.6673,-2.4301,-2.4301,-2.4512,-2.4815,-2.5118,-2.5395,-2.5751,-2.6357,-2.6529,-2.6713,-2.7241,-2.7399,-2.7505,-2.7755,-2.7795,-2.8138,-2.8812,-2.9142,-3.0484,-3.5208,-3.6547,-3.9905,-4.6975,-4.8659,-5.0668,-5.4365,-5.4693,-5.4693,-5.4693,-5.4277,-5.3966,-5.3836,-5.2979,-5.2356,-5.2148,-5.1602,-5.1291,-5.1291,-5.1291,-5.1291,-5.1291,-5.1291,-5.1291,-5.1291,-5.1291,-5.1291,-9.7697,-9.6015,-9.6613,-9.908,-10.0345,0.0,0.0,-10.7469,-10.7171,-10.8066,-10.8639,-10.884,-10.8069,-10.8244,-10.8472,-10.8586,-10.7776,-10.5902,-10.2347,-9.8609,-9.5596,-9.3331,-8.9475,-8.7525,-8.9806,-8.9913,-8.7926,-8.2924,-8.1457,-8.2484,-8.6621,-8.236,-8.0353,-8.2093,-7.9046,-7.8187,-7.924,-7.9094,-7.8141,-7.6645,-7.8185,-7.784,-7.6159,-7.5324,-7.2214,-6.7564,-6.4799,-6.0137,-5.3902,-5.1629,-4.9553,-4.7889,-4.7889,-4.6688,-4.4645,-4.2571,-3.9324,-3.5808,-3.3745,-3.197,-3.0207,-3.0207,-2.8734,-2.7257,-2.7257,-2.5774,-2.4327,-2.4485,-2.4736,-2.5039,-2.5329,-2.5606,-2.5896,-2.6199,-2.6384,-2.6568,-2.6859,-2.703,-2.7215,-2.7518,-2.7452,-2.7346,-2.7346,-2.7478,-2.8239,-3.0577,-3.3074,-3.6209,-4.0578,-4.3283,-4.6288,-5.0999,-5.1109,-5.1944,-5.4277,-5.3758,-5.329,-5.3005,-5.2459,-5.2018,-5.1732,-5.1447,-5.1291,-5.1291,-5.1291,-5.1291,-5.1291,-5.1291,-5.1291,-5.1291,-5.1291,-5.1291,-9.4705,-9.5267,-9.8034,-9.9978,-10.1446,0.0,-10.8099,-10.8338,-10.768,0.0,-10.9783,-11.0392,-10.7989,-10.7376,-10.7409,-10.7894,-10.8504,-10.5513,-9.6353,-9.5176,-9.3479,-8.9378,-8.5638,-8.4984,-8.8446,-8.6546,-8.4233,-8.222,-7.9821,-8.0172,-8.3657,-7.8154,-7.6099,-7.9135,-7.6525,-7.5749,-7.7647,-7.7166,-7.6489,-7.4982,-7.5665,-7.5893,-7.5665,-7.3455,-6.9989,-6.5359,-6.1077,-5.6538,-5.2083,-4.9008,-4.7889,-4.7602,-4.7001,-4.4645,-4.1699,-4.0221,-3.5513,-2.9909,-2.9314,-2.6958,-2.4301,-2.4301,-2.4301,-2.4301,-2.4301,-2.4301,-2.4353,-2.4591,-2.492,-2.5263,-2.554,-2.583,-2.6054,-2.6054,-2.6239,-2.6423,-2.6476,-2.6661,-2.6898,-2.7135,-2.699,-2.6845,-2.6898,-2.7109,-2.7267,-2.7267,-3.0459,-3.3301,-3.4315,-3.7666,-4.1329,-4.6023,-4.6677,-4.8406,-5.2018,-5.2816,-5.2641,-5.2174,-5.2044,-5.1784,-5.1317,-5.1291,-5.1291,-5.1291,-5.1291,-5.1291,-5.1291,-5.1291,-5.1291,-5.1291,-5.1291,-5.0983,-9.2161,-9.2724,-9.4818,-9.8034,-10.0992,0.0,-11.0846,-11.106,-11.1131,0.0,-11.2896,-10.9845,-10.9638,-10.8369,-10.7934,-11.0256,-11.259,-10.8622,-9.2982,-9.0737,-8.9047,-8.4836,-8.3816,-8.3819,-8.438,-7.4319,-7.0393,-7.6556,-8.0555,-8.2578,-8.2472,-7.7049,-7.4389,-7.5523,-7.5242,-7.528,-7.528,-7.5395,-7.5189,-7.4982,-7.5058,-7.4716,-7.3715,-7.0289,-6.5945,-6.0947,-5.6933,-5.2621,-4.8436,-4.7889,-4.7889,-4.7602,-4.4043,-4.228,-4.1095,-3.404,-3.0801,-2.9612,-2.6074,-2.4601,-2.4301,-2.4301,-2.4301,-2.4301,-2.4301,-2.4301,-2.4314,-2.434,-2.4762,-2.5263,-2.554,-2.583,-2.6054,-2.6054,-2.6067,-2.6173,-2.6437,-2.6516,-2.6542,-2.6582,-2.6555,-2.6621,-2.6859,-2.6938,-2.6951,-2.6951,-2.7311,-2.9296,-3.3245,-3.4219,-3.6196,-4.0783,-4.4642,-4.6878,-4.7522,-5.0302,-5.22,-5.2148,-5.168,-5.1369,-5.1291,-5.1291,-5.1291,-5.1291,-5.1291,-5.1291,-5.1291,-5.1291,-5.1291,-5.1291,-5.1291,-4.9392,-9.4031,-9.4444,-9.5865,-9.9793,0.0,0.0,-11.0954,-11.1876,-11.286,0.0,-11.4037,-11.1194,-11.115,-10.9012,-10.8144,-11.0536,-10.5075,-9.7926,-9.1001,-8.7893,-8.5501,-8.3819,-8.5882,-8.4237,-7.644,-7.0851,-6.9222,-7.2258,-7.446,-7.5566,-7.6087,-7.4692,-7.3564,-7.351,-7.4396,-7.4982,-7.4982,-7.4982,-7.4982,-7.4982,-7.2594,-7.1262,-7.0462,-6.5971,-6.1476,-5.6872,-5.4841,-5.174,-4.7889,-4.7889,-4.64,-4.4332,-4.2571,-3.9032,-3.463,-3.1377,-2.8734,-2.6374,-2.4888,-2.4301,-2.4301,-2.4301,-2.4301,-2.4301,-2.4301,-2.4301,-2.4301,-2.4301,-2.4736,-2.5303,-2.5751,-2.5962,-2.6054,-2.6054,-2.6054,-2.6081,-2.6212,-2.6239,-2.6239,-2.6239,-2.6239,-2.6265,-2.6384,-2.6542,-2.6661,-2.6661,-2.6806,-2.7563,-2.9527,-2.9527,-3.1482,-3.6072,-3.7811,-3.96,-4.2173,-4.589,-4.7825,-4.7825,-5.016,-5.1291,-5.1291,-5.1291,-5.1291,-5.1291,-5.1291,-5.1291,-5.1291,-5.1291,-5.1291,-5.1291,-4.8774,-4.5292,-9.5004,0.0,0.0,0.0,0.0,0.0,-11.0874,0.0,-11.3981,-11.6212,-11.4546,-11.2332,-11.1569,-11.0235,-10.9295,-10.9876,-9.8739,-9.0061,-8.9929,-8.7236,-8.5269,-8.5272,-8.4848,-8.0756,-7.0961,-6.9959,-6.9918,-6.9893,-7.0387,-7.0996,-7.1912,-7.3093,-7.3148,-7.2592,-7.4261,-7.4906,-7.5001,-7.5096,-7.4168,-7.2815,-7.0047,-6.8013,-6.6074,-6.132,-5.7554,-5.4105,-5.2537,-4.9811,-4.6112,-4.4934,-4.2861,-4.0221,-3.9032,-3.5219,-2.9909,-2.9032,-2.6673,-2.4301,-2.4301,-2.4301,-2.4301,-2.4301,-2.4301,-2.4301,-2.4301,-2.4301,-2.4314,-2.4406,-2.4802,-2.5303,-2.5804,-2.5988,-2.6054,-2.6054,-2.6054,-2.6054,-2.6054,-2.6054,-2.6054,-2.6054,-2.6054,-2.6054,-2.6054,-2.6226,-2.6371,-2.6371,-2.6542,-2.6674,-2.6674,-2.6674,-2.7965,-3.1219,-3.2286,-3.4042,-3.7232,-4.1083,-4.3088,-4.3088,-4.7178,-4.9392,-4.9392,-5.0675,-5.1291,-5.1291,-5.1291,-5.1291,-5.1291,-5.1291,-5.0675,-4.9392,-4.6248,-4.215,0.0,0.0,0.0,-10.109,-10.6197,-11.0502,-11.1377,0.0,-11.5062,-11.5082,-11.4082,-11.262,-11.0323,-11.2185,-11.255,-10.8059,-9.755,-8.9961,-9.0029,-8.9795,-8.9864,-8.969,-7.8356,-7.0353,-6.9956,-7.0009,-7.0032,-6.9886,-7.139,-7.2438,-7.2476,-7.2903,-7.2932,-7.2592,-7.4122,-7.5037,-7.4968,-7.5077,-7.2277,-6.7422,-6.7935,-6.579,-6.1035,-5.6666,-5.4361,-5.3213,-4.9553,-4.5824,-4.199,-3.8155,-3.6395,-3.5808,-3.197,-3.0207,-2.9612,-2.5774,-2.4301,-2.4301,-2.4301,-2.4301,-2.4301,-2.4301,-2.4301,-2.4301,-2.4301,-2.4301,-2.4366,-2.4643,-2.496,-2.5263,-2.554,-2.583,-2.6054,-2.6054,-2.6054,-2.6054,-2.6054,-2.6054,-2.6054,-2.6054,-2.6054,-2.6054,-2.6054,-2.6054,-2.6067,-2.6067,-2.6067,-2.6067,-2.6067,-2.6067,-2.6081,-2.639,-2.9853,-3.2376,-3.2376,-3.6486,-3.9011,-3.9011,-4.2775,-4.4981,-4.4981,-4.9083,-5.1291,-5.1291,-5.1291,-5.1291,-5.1291,-5.1291,-4.9083,-4.4981,-4.4981,-4.0562,-9.9117,-9.979,-10.0791,-10.7125,-10.9556,-11.1301,-11.4135,-11.4888,-11.5649,-11.7659,-11.6451,-11.426,-11.1844,-11.0502,-10.9084,-10.754,-9.7557,-9.0979,-9.3944,-9.1809,-8.9934,-9.0016,-7.8134,-6.9982,-6.9933,-7.2068,-7.3416,-7.3215,-7.2864,-7.2552,-7.2903,-7.2864,-7.1715,-6.9543,-7.1699,-7.3096,-7.3822,-6.8972,-6.5454,-6.3875,-6.1411,-5.9174,-5.6666,-5.2524,-5.0406,-4.9553,-4.5486,-4.1699,-3.7862,-3.6689,-3.463,-3.197,-3.0801,-2.8436,-2.6074,-2.4888,-2.4301,-2.4301,-2.4301,-2.4301,-2.4301,-2.4301,-2.4301,-2.4301,-2.4301,-2.4301,-2.4366,-2.4657,-2.496,-2.5263,-2.554,-2.583,-2.6054,-2.6054,-2.6054,-2.6054,-2.6054,-2.6054,-2.6054,-2.6054,-2.6054,-2.6054,-2.6054,-2.6054,-2.6054,-2.6054,-2.6054,-2.6054,-2.6054,-2.6054,-2.6054,-2.6054,-2.7315,-2.8265,-2.8265,-3.2057,-3.4585,-3.4585,-3.8361,-4.215,-4.467,-4.6248,-4.844,-5.1291,-5.1291,-4.8465,-4.2775,-4.5603,-4.4981,-4.0583,-3.773,-3.4884,-10.1213,-10.1883,-10.2657,-11.0094,-11.1237,-11.1594,-11.559,-11.6118,-11.6375,-11.764,-11.739,-11.595,-11.3206,-10.9677,-10.7288,-10.7392,-10.2574,-9.8425,-9.6714,-9.2736,-8.9932,-8.988,-7.8119,-6.992,-6.9957,-7.3066,-7.489,-7.4986,-7.397,-7.2832,-7.1717,-7.1105,-6.9673,-6.7524,-6.6861,-6.7916,-7.0511,-6.4917,-6.0583,-5.7669,-5.629,-5.4627,-5.2412,-4.9673,-4.7358,-4.5511,-3.9929,-3.6395,-3.3745,-3.2562,-3.0504,-2.8138,-2.8138,-2.6374,-2.4301,-2.4301,-2.4235,-2.4169,-2.4261,-2.4235,-2.4169,-2.4274,-2.4301,-2.4301,-2.4301,-2.4301,-2.4393,-2.4788,-2.5052,-2.5289,-2.5672,-2.5909,-2.6054,-2.6054,-2.6054,-2.6054,-2.6054,-2.6054,-2.6054,-2.6054,-2.6054,-2.6054,-2.6054,-2.6054,-2.6054,-2.6054,-2.6054,-2.6054,-2.6054,-2.6054,-2.6054,-2.6054,-2.6054,-2.6054,-2.6054,-2.8586,-3.0157,-3.0157,-3.395,-3.773,-4.0248,-4.1837,-4.4046,-4.6868,-4.8131,-4.5603,-3.8696,-4.121,-4.0583,-3.6151,-3.3632,-3.142,-9.975,-10.1174,-10.303,-11.0465,-11.1471,-11.1671,-11.559,-11.7067,-11.7182,-11.5502,-11.6929,-11.7505,-11.4327,-10.9957,-10.6987,-10.7193,-11.1475,-11.051,-9.8227,-9.266,-8.9921,-8.9927,-7.8042,-7.0062,-7.0321,-7.3236,-7.4922,-7.4893,-7.4829,-7.2879,-6.9,-6.8083,-6.7344,-6.6635,-6.1036,-6.0105,-6.4648,-6.2183,-5.7329,-4.9551,-5.2692,-5.2412,-4.8694,-4.7834,-4.5223,-4.1095,-3.3449,-2.9909,-2.9612,-2.5774,-2.4301,-2.4274,-2.4274,-2.4274,-2.4261,-2.4261,-2.409,-2.3905,-2.4169,-2.409,-2.3905,-2.387,-2.3961,-2.3974,-2.3673,-2.3686,-2.3815,-2.4703,-2.4872,-2.5003,-2.5896,-2.6054,-2.6054,-2.6054,-2.6054,-2.6054,-2.6054,-2.6054,-2.6054,-2.6054,-2.6054,-2.6054,-2.6054,-2.6054,-2.6054,-2.6054,-2.6054,-2.6054,-2.6054,-2.6054,-2.6054,-2.6054,-2.6054,-2.6054,-2.6054,-2.6054,-2.6054,-2.6054,-2.9838,-3.2041,-3.236,-3.6169,-3.8381,-3.8696,-4.2463,-4.215,-3.8065,-3.8381,-3.6169,-3.2041,-3.2041,-2.9838,-10.08,-10.4689,-10.8012,-11.4901,-11.5269,-11.4653,-11.6856,-11.9115,-12.0094,-11.737,-11.7003,-11.632,-11.3319,-10.6626,-10.2804,-10.655,-11.1542,-11.0676,-9.8161,-9.2686,-9.0035,-9.0021,-7.8211,-7.1103,-7.3373,-7.441,-7.4922,-7.4893,-7.1377,-6.7669,-6.492,-6.6294,-6.5019,-5.9908,-6.2282,-6.0283,-5.3798,-5.5705,-5.425,-4.8953,-4.9966,-4.9357,-4.8096,-4.5007,-3.9616,-3.3154,-3.1081,-2.8436,-2.5788,-2.4588,-2.4182,-2.3997,-2.3997,-2.3865,-2.3668,-2.3668,-2.3615,-2.3575,-2.3641,-2.3615,-2.3271,-2.0372,-1.9623,-1.8872,-1.6181,-1.5378,-1.618,-1.9683,-2.0756,-2.1504,-2.5242,-2.6054,-2.6054,-2.6054,-2.6054,-2.6054,-2.6054,-2.6054,-2.6054,-2.6054,-2.6054,-2.6054,-2.6054,-2.6054,-2.6054,-2.6054,-2.6054,-2.6054,-2.6054,-2.6054,-2.6054,-2.6054,-2.6054,-2.6054,-2.6054,-2.6054,-2.6054,-2.6054,-2.6993,-2.8892,-3.2041,-3.3314,-3.5536,-3.8696,-3.6467,-3.3314,-2.9227,-3.2376,-3.1739,-2.7636,-2.7636,-2.6993,-10.0129,-10.6035,-11.1568,-11.598,-11.6182,-11.5893,-11.846,-12.0636,-12.1236,-11.8108,-11.6149,-11.4431,-11.2907,-10.5352,-10.1262,-10.6387,-10.7055,-10.4345,-9.7313,-9.2785,-8.7918,-8.1763,-7.4457,-7.1226,-7.4579,-7.5072,-7.4018,-7.1772,-6.9281,-6.5633,-6.078,-6.1923,-6.1058,-5.7244,-5.8598,-5.6335,-4.9992,-5.1732,-5.1326,-4.8746,-4.8486,-4.7307,-4.5223,-4.2861,-3.7569,-2.9909,-2.8436,-2.6302,-2.4129,-2.4248,-2.4063,-2.3707,-2.3839,-2.3707,-2.3444,-2.1677,-2.1013,-2.0641,-1.9006,-1.8383,-1.8021,-1.607,-1.53,-1.51,-1.281,-1.2297,-1.2742,-1.5599,-1.6349,-1.6758,-1.9737,-2.0182,-2.0829,-2.2778,-2.3113,-2.3113,-2.3113,-2.1798,-2.0829,-2.2778,-2.3113,-2.3113,-2.3113,-2.4739,-2.6054,-2.6054,-2.6054,-2.6054,-2.6054,-2.6054,-2.6054,-2.6054,-2.6054,-2.6054,-2.6054,-2.6054,-2.6054,-2.6054,-2.6054,-2.6993,-2.9532,-2.9532,-3.0797,-3.3013,-3.0797,-2.8265,-2.6054,-2.8265,-2.8265,-2.6054,-2.6054,-2.6054,-9.9411,-10.611,-11.2914,-11.5083,-11.5737,-11.6768,-12.0067,-12.1516,-12.1378,-11.8524,-11.5069,-11.2484,-11.2582,-10.5334,-10.1321,-10.6417,-10.1922,-9.7568,-9.6514,-9.3175,-8.5615,-7.1548,-6.9887,-7.1148,-7.4383,-7.4821,-7.2241,-6.6469,-6.6948,-6.43,-5.664,-5.6338,-5.6338,-5.6338,-5.3077,-5.1031,-5.046,-4.9888,-4.9317,-4.8746,-4.8174,-4.5824,-4.199,-4.0804,-3.6356,-2.925,-2.5718,-2.4116,-2.3905,-2.3545,-2.3055,-2.2636,-2.2546,-2.2165,-2.1616,-1.8073,-1.6779,-1.6083,-1.3069,-1.187,-1.1495,-1.1331,-1.1383,-1.1129,-1.0664,-1.0723,-1.0825,-1.1511,-1.1947,-1.2022,-1.2951,-1.3024,-1.4005,-1.7897,-1.8221,-1.7897,-1.8554,-1.5628,-1.3998,-1.7897,-1.8554,-1.8554,-1.8554,-2.2132,-2.5396,-2.6041,-2.6054,-2.6054,-2.6054,-2.6054,-2.6054,-2.6054,-2.6054,-2.6054,-2.6054,-2.6054,-2.6054,-2.6054,-2.6054,-2.6054,-2.6054,-2.6054,-2.6054,-2.6054,-2.6054,-2.6054,-2.6054,-2.6054,-2.6054,-2.6054,-2.6054,-2.6067,-10.3423,-10.6334,-10.8577,-11.426,-11.7293,-11.9041,-12.0067,-12.1203,-12.1988,-12.1348,-11.6664,-11.2484,-11.2582,-10.5334,-10.1321,-10.6424,-10.6178,-10.342,-9.7193,-9.5716,-8.9027,-7.1961,-6.9892,-7.0752,-7.2832,-7.321,-7.0008,-6.1181,-5.9738,-5.7214,-5.2492,-5.2186,-5.2186,-5.2186,-5.1598,-5.1031,-5.046,-4.9888,-4.9317,-4.8746,-4.8174,-4.5824,-4.1699,-3.5219,-2.9467,-2.4833,-2.4254,-2.3931,-2.3596,-2.0325,-1.8799,-1.841,-1.5033,-1.371,-1.326,-1.2547,-1.2481,-1.2184,-1.1639,-1.135,-1.0765,-0.7671,-0.6875,-0.6072,-0.3194,-0.2064,-0.301,-0.6479,-0.7507,-0.8235,-1.1982,-1.3024,-1.3349,-1.4005,-1.1405,-0.9778,-1.3349,-1.368,-1.3349,-1.3998,-1.3998,-1.3998,-1.3998,-1.7897,-2.1809,-2.5396,-2.6054,-2.6054,-2.6054,-2.6054,-2.6054,-2.6054,-2.6054,-2.6054,-2.6054,-2.6054,-2.6054,-2.6054,-2.6054,-2.6054,-2.6054,-2.6054,-2.6054,-2.6054,-2.6054,-2.6054,-2.6054,-2.6054,-2.6054,-2.6054,-2.6054,-2.6186,-10.2515,-10.5728,-10.8428,-11.2497,-11.6717,-12.0064,-12.0946,-12.1576,-12.2089,-12.2021,-11.7007,-11.2484,-11.2582,-10.5419,-10.0848,-10.4674,-10.2679,-9.9005,-9.3805,-9.4018,-8.856,-7.1949,-7.073,-7.1513,-7.2066,-7.0425,-6.7001,-6.1829,-5.8777,-5.5458,-5.1598,-5.1291,-5.1291,-5.1291,-5.1291,-5.1161,-5.0901,-5.033,-4.8837,-4.6154,-4.5593,-4.3117,-3.874,-3.2858,-2.7969,-2.3879,-2.1639,-2.0607,-2.0224,-1.662,-1.4805,-1.434,-1.2298,-1.1634,-1.0922,-0.9079,-0.8472,-0.819,-0.6219,-0.5374,-0.5092,-0.3397,-0.256,-0.229,-0.0577,0.0,-0.0297,-0.2458,-0.3116,-0.3466,-0.5834,-0.6202,-0.6851,-0.9127,-0.6202,-0.4246,-0.8802,-0.7829,-0.6851,-0.9127,-0.7829,-0.6851,-0.9127,-1.1405,-1.4979,-2.1475,-2.4416,-2.6054,-2.6054,-2.6054,-2.6054,-2.6054,-2.6054,-2.6054,-2.6054,-2.6054,-2.6054,-2.6054,-2.6054,-2.6054,-2.6054,-2.6054,-2.6054,-2.6054,-2.6054,-2.6054,-2.6054,-2.6054,-2.6054,-2.6054,-2.3578,-2.2717,-10.1509,-10.5287,-10.8802,-11.1332,-11.5885,-11.9797,-11.9991,-12.1081,-12.1833,-12.1256,-11.7076,-11.3353,-11.271,-10.6531,-10.1848,-10.2428,-9.8784,-9.4493,-9.0605,-9.0224,-8.5435,-7.2075,-7.1264,-7.1278,-6.9721,-6.6544,-6.3444,-6.0718,-5.7846,-5.4575,-5.1598,-5.1291,-5.0983,-5.0034,-5.0034,-4.9392,-4.8774,-4.823,-4.6125,-4.2247,-4.1758,-3.9183,-3.463,-3.0801,-2.7049,-2.3479,-1.9405,-1.7174,-1.5897,-1.2423,-1.0646,-1.02,-0.9365,-0.9036,-0.8368,-0.5403,-0.4523,-0.3961,-0.1134,0.0,0.0,0.0,0.0,0.0,0.0,0.0,0.0,0.0,0.0,0.0,0.0,0.0,-0.0982,-0.4246,-0.2616,-0.0982,-0.4246,-0.2289,-0.0982,-0.4573,-0.2289,-0.0982,-0.4573,-0.5876,-0.9127,-1.6925,-2.2778,-2.5719,-2.4739,-2.5396,-2.6054,-2.6054,-2.6054,-2.6054,-2.6054,-2.6054,-2.6054,-2.6054,-2.6054,-2.6054,-2.6054,-2.6054,-2.6054,-2.6054,-2.6054,-2.5719,-2.4739,-2.4739,-2.4118,-2.3195,-1.9772,-1.8242,-10.3778,-10.5763,-10.704,-11.1899,-11.5786,-11.7493,-11.4349,-11.7938,-12.122,-11.8385,-11.7351,-11.604,-11.303,-11.0323,-10.6619,-10.0718,-9.9044,-9.6561,-9.0848,-8.5002,-7.889,-7.2398,-7.0654,-6.8296,-6.328,-6.174,-5.8777,-5.2691,-5.2186,-5.1598,-5.1291,-5.1291,-4.9392,-4.5603,-4.5603,-4.3712,-3.9954,-3.9177,-3.8734,-3.7987,-3.7267,-3.4746,-3.0504,-2.6673,-2.4294,-2.3192,-1.9049,-1.5514,-1.1999,-0.8024,-0.6312,-0.6045,-0.2373,-0.1177,-0.0879,-0.0572,-0.0567,-0.0567,0.0,0.0,0.0,0.0,0.0,0.0,0.0,0.0,0.0,0.0,0.0,0.0,0.0,0.0,0.0,-0.0655,-0.0327,0.0,-0.0655,-0.0327,0.0,-0.0655,-0.0327,0.0,-0.0655,-0.392,-0.8155,-1.3031,-2.0829,-2.4739,-2.0829,-2.3759,-2.6054,-2.6054,-2.6054,-2.6054,-2.6054,-2.6054,-2.6054,-2.6054,-2.6054,-2.6054,-2.6054,-2.6054,-2.6054,-2.6054,-2.6054,-2.4093,-2.0182,-2.0172,-1.7997,-1.4218,-1.3903,-1.3722,-10.2985,-10.6041,-10.768,-10.9763,-11.1257,-11.2922,-11.5415,-11.6272,-11.7214,-11.9717,-11.8674,-11.6299,-11.2493,-10.8619,-10.4035,-9.793,-9.658,-9.3265,-8.4338,-8.1822,-7.8253,-7.1372,-6.9036,-6.6884,-6.4484,-6.0205,-5.6996,-5.4567,-5.2584,-5.0342,-4.7512,-5.0034,-4.8131,-4.121,-4.3712,-4.2775,-3.8696,-3.8519,-3.6959,-3.4087,-3.3945,-3.1184,-2.6383,-2.4737,-2.2383,-1.9697,-1.796,-1.3842,-0.7751,-0.3816,-0.2387,-0.2109,-0.0598,0.0,0.0,0.0,0.0,0.0,0.0,0.0,0.0,0.0,0.0,0.0,0.0,0.0,0.0,0.0,0.0,0.0,0.0,0.0,0.0,0.0,0.0,0.0,0.0,0.0,0.0,0.0,0.0,0.0,0.0,-0.1309,-0.392,-0.848,-1.2049,-1.562,-1.9201,-2.1152,-2.3113,-2.5719,-2.6054,-2.6054,-2.6054,-2.6054,-2.6054,-2.6054,-2.6054,-2.6054,-2.6054,-2.3436,-2.2132,-2.2132,-1.9525,-1.7249,-1.5628,-1.5731,-1.4833,-1.2919,-1.0407,-0.9164,-10.0956,-10.5354,-10.8245,-10.8268,-10.9763,-11.2475,-11.7134,-11.5376,-11.3927,-11.838,-11.827,-11.569,-11.0078,-10.6304,-10.1904,-9.5493,-9.3097,-8.8986,-7.9567,-7.8963,-7.7096,-7.1185,-6.7825,-6.557,-6.4594,-5.9339,-5.5605,-5.4783,-5.159,-4.8131,-4.4981,-4.6558,-4.4358,-3.7118,-3.962,-3.9305,-3.4902,-3.4902,-3.3094,-2.9828,-2.9735,-2.7514,-2.3747,-2.2358,-2.003,-1.7146,-1.4862,-1.084,-0.5409,-0.1458,0.0,0.0,0.0,0.0,0.0,0.0,0.0,0.0,0.0,0.0,0.0,0.0,0.0,0.0,0.0,0.0,0.0,0.0,0.0,0.0,0.0,0.0,0.0,0.0,0.0,0.0,0.0,0.0,0.0,0.0,0.0,0.0,0.0,0.0,-0.1636,-0.5876,-0.5549,-0.7829,-1.6277,-1.6601,-1.7249,-2.1809,-2.2132,-2.2778,-2.4081,-2.4093,-2.4739,-2.6041,-2.6054,-2.5396,-2.4093,-2.1152,-1.8877,-1.7573,-1.4654,-1.2381,-1.108,-1.1204,-1.0289,-0.8994,-0.6114,-0.4464,-9.797,-10.3337,-10.8278,-10.8245,-11.3225,-11.8112,-11.8145,-11.5357,-11.2771,-11.2819,-11.5154,-11.4487,-10.5659,-10.4054,-10.1851,-9.4366,-8.8914,-8.3942,-7.9081,-7.6442,-7.4139,-7.1685,-6.7209,-6.3705,-6.1901,-5.7751,-5.4164,-5.1494,-4.7488,-4.4981,-4.4981,-4.0897,-3.6802,-3.236,-3.236,-3.0477,-2.6041,-2.6041,-2.5764,-2.5197,-2.4894,-2.4301,-2.3444,-1.962,-1.7612,-1.6638,-0.9031,-0.5693,-0.5478,-0.1463,0.0,0.0,0.0,0.0,0.0,0.0,0.0,0.0,0.0,0.0,0.0,0.0,0.0,0.0,0.0,0.0,0.0,0.0,0.0,0.0,0.0,0.0,0.0,0.0,0.0,0.0,0.0,0.0,0.0,0.0,0.0,0.0,0.0,0.0,-0.1636,-0.5876,-0.2941,-0.3268,-1.2055,-0.9127,-0.8155,-1.2706,-1.3024,-1.4971,-1.9201,-1.9525,-2.1475,-2.5719,-2.6054,-2.4093,-1.9848,-1.9525,-1.7573,-1.3024,-1.3024,-1.108,-0.6528,-0.6601,-0.4341,0.0,0.0,0.0,-9.807,-10.0492,-10.2705,-10.719,-10.9848,-11.1376,-11.1337,-10.9731,-10.8985,-11.2045,-11.2351,-11.0358,-10.5029,-10.1481,-9.776,-9.2863,-8.8406,-8.3705,-7.7962,-7.6065,-7.304,-6.7261,-6.3397,-6.0031,-5.6305,-5.3629,-5.0396,-4.6125,-4.5233,-4.2463,-3.6467,-3.775,-3.5536,-2.8265,-3.0781,-3.0157,-2.6041,-2.5843,-2.5566,-2.5184,-2.4485,-2.2313,-1.9089,-1.7765,-1.421,-0.9031,-0.678,-0.4273,-0.1734,-0.0585,0.0,0.0,0.0,0.0,0.0,0.0,0.0,0.0,0.0,0.0,0.0,0.0,0.0,0.0,0.0,0.0,0.0,0.0,0.0,0.0,0.0,0.0,0.0,0.0,0.0,0.0,0.0,0.0,0.0,0.0,0.0,0.0,0.0,0.0,-0.0327,-0.1962,-0.0982,-0.0982,-0.3595,-0.5549,-0.7177,-0.8476,-1.108,-1.3673,-1.4979,-1.4979,-1.6925,-2.1152,-1.8877,-1.6601,-1.4971,-1.2381,-1.0104,-0.8802,-0.5549,-0.3608,-0.1985,-0.2006,-0.1352,0.0,0.0,0.0,-9.7398,-9.9529,-9.9963,-10.3677,-10.5545,-10.6408,-10.6433,-10.594,-10.6153,-10.8741,-10.8267,-10.6589,-10.416,-9.8959,-9.4037,-9.1222,-8.5483,-8.0247,-7.724,-7.3225,-6.9139,-6.4982,-6.0442,-5.6477,-5.4098,-4.9965,-4.6464,-4.3771,-4.1242,-3.7872,-3.2661,-3.3331,-3.1372,-2.6203,-2.8397,-2.8339,-2.5725,-2.554,-2.4561,-2.2518,-2.1916,-1.9307,-1.4845,-1.3306,-1.0158,-0.5654,-0.4243,-0.2283,0.0,0.0,0.0,0.03,0.1822,0.3336,0.4519,0.4519,0.4484,0.4728,0.4375,0.4343,0.4315,0.4263,0.4246,0.3963,0.2549,0.2266,0.1703,0.0286,0.0,0.0,0.0,0.0,0.0,0.0,0.0,0.0,0.0,0.0,0.0,0.0,0.0,0.0,0.0,0.0,0.0,0.0,0.0,0.0,0.0,-0.2289,-0.392,-0.392,-0.6525,-0.8802,-1.0429,-1.0755,-1.2381,-1.6601,-1.3024,-1.0755,-1.0755,-0.7829,-0.5888,-0.4274,-0.1317,0.0,0.0,0.0,0.0,0.0,0.0,0.0,-9.6304,-9.9927,-9.9709,-9.9006,-10.1021,-10.3245,-10.3196,-10.3879,-10.4193,-10.3287,-10.3387,-10.3351,-10.2567,-9.6553,-9.1292,-8.9343,-8.0639,-7.4486,-7.615,-6.8906,-6.3601,-6.4102,-5.8152,-5.3669,-5.3392,-4.6788,-4.281,-4.313,-3.6129,-3.1949,-3.1642,-2.8193,-2.5856,-2.558,-2.558,-2.5461,-2.5197,-2.5171,-2.2848,-1.8145,-1.7632,-1.5017,-1.0727,-0.7344,-0.5371,-0.5089,-0.1417,0.0,0.0,0.0,0.0297,0.0901,0.4546,0.8515,1.2157,1.2157,1.2372,1.2236,1.1786,1.1634,1.1489,1.135,1.1303,1.0445,0.678,0.5654,0.4806,0.1134,0.0,0.0,0.0,0.0,0.0,0.0,0.0,0.0,0.0,0.0,0.0,0.0,0.0,0.0,0.0,0.0,0.0,0.0,0.0,0.0,0.0,0.0,0.0,0.0,0.0,-0.1635,-0.5876,-0.6202,-0.7829,-1.1724,-0.848,-0.6202,-0.6202,-0.5879,-0.3943,0.0,0.0,0.0,0.0,0.0,0.0,0.0,0.0347,0.0349,-9.6298,-9.9953,-10.0133,-10.1138,-10.1434,-10.1487,-10.1635,-10.1801,-10.1271,-9.8921,-10.0235,-10.0326,-9.5165,-9.5455,-9.3836,-8.6029,-7.8598,-7.3782,-7.3278,-6.9865,-6.5796,-6.0773,-5.8641,-5.4221,-4.5585,-4.3667,-4.0414,-3.4323,-3.2488,-3.0232,-2.6936,-2.601,-2.5369,-2.5289,-2.5289,-2.5263,-2.5197,-2.496,-2.247,-1.7394,-1.445,-1.0884,-0.7062,-0.5936,-0.3961,-0.1134,-0.0284,0.0,0.0,0.0,0.1787,0.4852,0.5774,0.8515,1.2157,1.2157,1.2137,1.2091,1.2236,1.1793,1.1641,1.1495,1.1376,1.0445,0.678,0.5654,0.4806,0.1134,0.0,0.0,0.0,0.0,0.0,0.0,0.0,0.0,0.0,0.0,0.0,0.0,0.0,0.0,0.0,0.0,0.0,0.0,0.0,0.0,0.0,0.0,0.0,0.0,0.0,-0.0327,-0.1309,-0.1636,-0.1962,-0.2941,-0.1962,-0.1636,-0.1636,-0.1649,-0.0995,0.0,0.0,0.0,0.0,0.0,0.0,0.0,0.3828,0.5222,-9.0662,-9.5573,-9.8645,-10.0425,-10.0426,-10.0037,-10.0392,-10.0198,-9.9232,-9.6858,-9.7391,-9.6747,-9.1641,-9.2975,-9.2278,-8.4222,-7.7354,-7.2756,-7.1763,-6.7112,-6.1962,-5.6919,-5.3292,-4.8769,-4.2547,-3.8972,-3.5343,-3.1052,-2.9132,-2.7484,-2.5496,-2.5197,-2.5131,-2.4999,-2.4986,-2.4854,-2.4604,-2.0752,-1.6721,-1.2082,-1.0067,-0.6867,-0.3114,-0.3114,-0.199,0.0,0.0,0.0,0.0,0.2076,0.4192,0.6388,1.0331,1.3066,1.5194,1.7008,1.7915,1.7885,1.7681,1.7456,1.6951,1.7018,1.5386,1.3259,0.9318,0.7062,0.4806,0.1134,0.0,0.0,0.0,0.0,0.0,0.0,0.0,0.0,0.0,0.0,0.0,0.0,0.0,0.0,0.0,0.0,0.0,0.0,0.0,0.0,0.0,0.0,0.0,0.0,0.0,0.0,0.0,0.0,0.0,0.0,0.0,0.0,0.0,0.0,0.0,0.0,0.0,0.1026,0.311,0.311,0.4156,0.6263,0.904,1.0082,-8.5118,-9.083,-9.6115,-9.842,-9.8743,-9.8626,-9.8817,-9.8451,-9.7631,-9.5645,-9.5055,-9.377,-8.9971,-9.0207,-8.9126,-8.2699,-7.6647,-7.2093,-7.021,-6.2339,-5.5534,-5.2759,-4.6249,-4.1363,-4.0199,-3.3984,-2.9958,-2.9681,-2.6372,-2.4683,-2.4973,-2.4999,-2.4881,-2.4617,-2.4033,-2.316,-2.197,-1.4838,-0.9396,-0.6034,-0.5459,-0.3433,0.0,0.0,0.0,0.0,0.0,0.0293,0.1199,0.4489,0.6623,0.8511,1.5488,1.8528,1.9735,2.3084,2.4301,2.4261,2.4037,2.3734,2.3404,2.3153,2.0266,1.6077,1.2416,0.8754,0.4806,0.1134,0.0,0.0,0.0,0.0,0.0,0.0,0.0,0.0,0.0,0.0,0.0,0.0,0.0,0.0,0.0,0.0,0.0,0.0,0.0,0.0,0.0,0.0,0.0,0.0,0.0,0.0,0.0,0.0,0.0,0.0,0.0,0.0,0.0,0.0,0.034,0.103,0.1032,0.3454,0.8002,0.7986,1.0067,1.3891,1.4563,1.4908,-8.9872,-9.2377,-9.3488,-9.6492,-9.6998,-9.6416,-9.4968,-9.5623,-9.5811,-9.3255,-9.3805,-9.33,-8.8491,-8.8939,-8.7318,-7.8686,-7.5762,-7.1792,-6.4388,-5.6936,-5.0933,-4.8556,-4.433,-3.9153,-3.2545,-3.0499,-2.8312,-2.5184,-2.4081,-2.3773,-2.4076,-2.409,-2.4063,-2.4024,-2.0907,-1.7373,-1.3586,-0.9264,-0.6615,-0.567,-0.2557,-0.0568,0.0,0.0,0.0,0.0,0.0,0.2051,0.5088,0.5686,1.023,1.6395,1.7915,2.0349,2.3385,2.4,2.4301,2.4301,2.4248,2.3892,2.3444,2.3391,2.0419,1.6077,1.2416,0.8754,0.4806,0.1134,0.0,0.0,0.0,0.0,0.0,0.0,0.0,0.0,0.0,0.0,0.0,0.0,0.0,0.0,0.0,0.0,0.0,0.0,0.0,0.0,0.0,0.0,0.0,0.0,0.0,0.0,0.0,0.0,0.0,0.0,0.0,0.0,0.0,0.0,0.2037,0.5822,0.5876,0.8333,1.2851,1.2392,1.2741,1.3891,1.7545,1.9618,-9.1515,-9.3883,-9.5368,-9.7444,-9.7996,-9.758,-9.6058,-9.5988,-9.5144,-9.1355,-9.1444,-9.0793,-8.5911,-8.5973,-8.4361,-7.7572,-7.6436,-7.3102,-6.3959,-5.4545,-4.6817,-4.2027,-3.7738,-3.3947,-3.0487,-2.7847,-2.5915,-2.4187,-2.1835,-2.0549,-2.0665,-1.8612,-1.7721,-1.7721,-1.6038,-1.2918,-0.8547,-0.4598,-0.2581,-0.2548,-0.0851,0.0,0.0,0.0,0.0,0.0,0.0,0.238,0.634,0.8451,1.3002,1.8528,2.0651,2.2771,2.4301,2.4301,2.4301,2.4301,2.4301,2.4129,2.3557,2.1191,1.7571,1.3259,0.9318,0.7062,0.4806,0.1134,0.0,0.0,0.0,0.0,0.0,0.0,0.0,0.0,0.0,0.0,0.0,0.0,0.0,0.0,0.0,0.0,0.0,0.0,0.0,0.0,0.0,0.0,0.0,0.0,0.0,0.0,0.0,0.0,0.0,0.0,0.2261,0.3599,0.3682,0.6052,0.8486,1.0694,1.0689,1.2741,1.7211,1.7021,1.8447,2.1513,2.569,2.8077,-9.2795,0.0,-9.7659,-9.89,-9.9209,-9.8795,0.0,-9.6648,-9.4925,-9.0295,-8.9812,-8.8567,-8.3727,-8.2492,-8.0341,-7.5501,-7.3971,-7.0422,-6.1769,-5.2259,-4.3223,-3.571,-3.1098,-2.839,-2.7406,-2.4496,-2.197,-2.1016,-1.8124,-1.6268,-1.6314,-1.3702,-1.2249,-1.2249,-1.0189,-0.7778,-0.4243,-0.1431,0.0,0.0,0.0,0.0,0.0,0.0,0.0,0.0,0.0,0.2713,0.7604,1.0944,1.5185,2.0037,2.3084,2.4301,2.4301,2.4301,2.4301,2.4301,2.4301,2.4301,2.3596,2.0383,1.6129,1.1853,0.819,0.6215,0.4806,0.1134,0.0,0.0,0.0,0.0,0.0,0.0,0.0,0.0,0.0,0.0,0.0,0.0,0.0,0.0,0.0,0.0,0.0,0.0,0.0,0.0,0.0,0.0,0.0,0.0,0.0,0.0,0.0,0.1873,0.3134,0.3209,0.6111,0.815,0.8378,1.1401,1.319,1.3441,1.4326,1.6971,2.1748,2.3898,2.6774,3.1168,3.4167,3.5847,0.0,-9.722,-9.8272,-9.9703,-9.9393,-9.8389,-9.6661,-9.6297,0.0,-9.0867,-8.9852,-8.8046,-8.2727,-7.883,-7.4884,-7.0043,-6.4585,-5.9035,-5.3691,-4.8185,-4.125,-3.1814,-2.6958,-2.3271,-1.9424,-1.8591,-1.6623,-1.2692,-1.1971,-1.1943,-1.2082,-1.1802,-1.1802,-1.1802,-0.4566,-0.0852,-0.0284,0.0,0.0,0.0,0.0,0.0,0.0,0.0,0.0,0.0,0.0,0.4519,1.1854,1.2157,1.6706,2.4,2.4301,2.4301,2.4301,2.4301,2.4301,2.4301,2.4301,2.4301,2.4208,2.3336,2.0156,1.5787,1.2134,0.8472,0.4806,0.1134,0.0,0.0,0.0,0.0,0.0,0.0,0.0,0.0,0.0,0.0,0.0,0.0,0.0,0.0,0.0,0.0,0.0,0.0,0.0,0.0,0.0,0.0,0.0,0.0,0.0,0.0,0.0,0.7126,1.1871,1.2148,1.2293,1.2431,1.2594,1.2594,1.267,1.3157,1.7014,2.1283,2.5759,3.4329,3.9069,4.0223,4.0466,4.0505,-9.4801,-9.6995,-9.8972,-9.9941,-9.996,-9.9616,-9.8628,-9.7399,-9.5083,-9.0165,-8.9376,-8.7722,-8.134,-7.7242,-7.2741,-6.68,-6.1668,-5.5542,-4.7238,-4.2972,-3.7055,-2.7002,-2.037,-1.6136,-1.4764,-1.4283,-1.3283,-1.1789,-0.9384,-0.7927,-0.7959,-0.5693,-0.4273,-0.4273,-0.142,0.0,0.0,0.0,0.0,0.0,0.0,0.0,0.0,0.2613,0.2352,0.0298,0.5417,0.9391,0.0,1.4883,1.9132,2.4301,2.4301,2.4301,2.4301,2.4301,2.4301,2.4301,2.4301,2.4301,2.4208,2.3628,2.0665,1.7265,1.5306,1.3822,1.1283,0.5371,0.3439,0.291,0.0588,0.0,0.0,0.0,0.0,0.0,0.0,0.0,0.0,0.0,0.0,0.0,0.0,0.0,0.0,0.0,0.0,0.0915,0.3351,0.3655,0.4873,0.7304,0.7608,0.7666,0.8127,1.0948,1.2908,1.3111,1.5742,1.81,2.0537,2.316,2.5797,2.8465,3.0494,3.2448,3.3636,3.8306,4.0661,4.1231,4.3801,4.5165,-9.5985,-9.8539,-10.132,-10.2168,-10.2466,-10.2359,-10.1186,-9.9118,-9.5831,-8.9864,-8.8162,-8.5574,-7.8231,-7.3282,-6.8245,-6.2595,-5.6055,-4.9305,-4.1438,-3.6187,-3.0194,-2.2214,-1.5856,-1.227,-1.2168,-1.0806,-0.9259,-0.8103,-0.5462,-0.3716,-0.3986,-0.1425,0.0571,0.1996,0.0571,0.0,0.0,0.0,0.0,0.0,0.0,0.0,0.0,0.2935,0.2675,0.03,0.6058,0.9735,1.246,1.5194,1.9434,2.4301,2.4301,2.4301,2.4301,2.4301,2.4301,2.4301,2.4301,2.4301,2.4221,2.3747,2.175,1.9542,1.9133,1.7821,1.5787,1.0721,0.7434,0.4938,0.2348,0.0894,0.0,0.0,0.0,0.0,0.0,0.0,0.0,0.0,0.0,0.0,0.0,0.0915,0.183,0.183,0.3048,0.4873,0.7604,0.7908,0.9133,1.1912,1.2223,1.3573,1.6732,1.8312,1.9019,1.9237,2.2996,2.6501,2.9218,3.2031,3.4897,3.7853,3.8575,3.9665,4.0789,4.2309,4.3738,4.5382,4.8547,5.0611,-9.9335,-10.1939,-10.5227,-10.6651,-10.7136,-10.6493,-10.3971,-10.1245,-9.7305,-9.0121,-8.6156,-8.1489,-7.3438,-6.6326,-6.0662,-5.7187,-4.6491,-3.7971,-3.6297,-2.7511,-2.0255,-1.7383,-1.3929,-1.215,-1.1854,-0.8335,-0.4114,-0.0294,0.0,0.0,0.0,0.0,0.2022,0.6054,0.2311,0.0,0.0,0.0,0.0,0.0,0.0,0.0,0.0,0.0,0.0,0.0,0.0304,0.4873,1.2164,1.246,1.7008,2.4301,2.4301,2.4301,2.4301,2.4301,2.4301,2.4301,2.4301,2.4301,2.4261,2.3971,2.3681,2.3391,2.3088,2.0219,1.6918,1.6918,1.1495,0.5869,0.5872,0.2993,0.0,0.0,0.0,0.0,0.0,0.0,0.0,0.0,0.0,0.0,0.0,0.3351,0.6084,0.6084,0.973,1.2164,1.2164,1.2164,1.2521,1.2657,1.2677,1.6229,2.4921,2.9668,3.1998,3.2327,3.5765,3.8008,3.8008,3.7615,3.7595,3.8008,3.8773,4.1419,4.6051,4.7062,4.9873,5.3862,5.4759,5.7253,-9.7068,-9.7798,-9.8668,-9.9607,-10.0897,-10.1697,-10.0961,-9.9667,-9.7113,-9.1889,-8.6484,-7.9949,-7.1526,-6.2362,-5.4125,-4.778,-3.6144,-2.7341,-2.6047,-1.6156,-0.801,-0.5411,-0.1488,0.2071,0.4786,0.6204,0.7323,0.8502,0.5872,0.5569,0.8464,0.8531,0.9124,1.0497,0.9333,0.8735,0.8701,0.5809,0.436,0.407,0.146,0.0,0.0,0.2985,0.4209,0.4544,1.032,1.4278,1.6706,1.9434,2.2169,2.4301,2.4301,2.4301,2.4301,2.4301,2.4301,2.4301,2.4301,2.4301,2.4221,2.3734,2.3523,2.343,2.3338,2.2103,2.0883,2.0883,1.7299,1.3723,1.3842,1.1198,0.8728,0.8501,0.852,0.7912,0.4871,0.6696,0.7608,0.4871,0.6696,0.852,0.852,0.973,1.0337,1.0337,1.1551,1.3369,1.6101,1.6529,1.7862,2.0703,2.4084,2.8531,3.4374,3.5986,3.654,3.6353,3.7756,3.9467,4.1602,4.2059,4.3457,4.6717,5.0573,5.1784,5.0218,5.7934,6.0469,5.8562,6.2008,6.4538,-9.3179,-9.3422,-9.386,-9.4954,-9.6366,-9.7914,-9.9314,-9.8557,-9.6215,-9.1368,-8.3512,-7.463,-6.5264,-5.3637,-4.2887,-3.5904,-2.4995,-1.611,-1.2615,-0.4829,0.1742,0.4559,0.7201,0.9518,1.2018,1.2243,1.2168,1.2107,0.9793,1.1008,1.6638,1.4068,1.2853,1.4462,1.2983,1.2367,1.2305,0.9679,0.8507,0.8507,0.443,0.3269,0.4786,0.5711,0.6951,0.8819,1.3672,1.6706,1.8528,2.0952,2.2783,2.4301,2.4301,2.4301,2.4301,2.4301,2.4301,2.4301,2.4301,2.4301,2.4248,2.3892,2.3628,2.3404,2.318,2.2863,2.2586,2.2586,2.0957,1.9089,1.7612,1.5877,1.4068,1.2728,1.2157,1.1551,0.9123,1.0337,1.1551,0.9123,1.0641,1.2157,1.2157,1.3672,1.458,1.458,1.6163,1.8051,2.0493,2.1021,2.2759,2.7219,3.1719,3.5598,3.8361,4.0105,4.0813,4.0519,4.3152,4.5862,4.7635,4.9369,5.1732,5.4727,5.8358,5.913,5.6974,6.3312,6.5086,6.219,6.5086,6.7617,-8.722,-8.8251,-8.9558,-9.0112,-9.1403,-9.3299,-9.6479,-9.6201,-9.3436,-8.7061,-7.6327,-6.4885,-5.4144,-3.9735,-2.77,-2.1839,-1.2195,-0.3493,0.2567,0.6962,1.0664,1.2909,1.4074,1.4285,1.3369,1.3672,1.3605,1.3464,1.3289,1.6706,2.4,1.731,1.5111,1.882,1.5243,1.3382,1.3225,1.2932,1.2932,1.2639,0.8637,0.868,1.2263,0.8474,0.8819,1.2763,1.2763,1.5194,1.883,1.883,2.0952,2.4301,2.4301,2.4301,2.4301,2.4301,2.4301,2.4301,2.4301,2.4301,2.4287,2.4235,2.3865,2.3338,2.2797,2.2626,2.2626,2.2626,2.2824,2.2243,1.8715,1.8045,1.7651,1.4239,1.3369,1.3369,1.2763,1.3066,1.3369,1.2763,1.3066,1.3369,1.3369,1.6404,1.883,1.9423,2.2678,2.5307,2.5612,2.6208,2.8071,3.2426,3.6835,3.958,4.0248,4.3246,4.5426,4.566,5.1565,5.4741,5.4682,5.816,6.049,6.1196,6.2575,6.3602,6.4007,6.5254,6.5913,6.5673,6.5978,6.8813,-7.8241,-7.86,-7.8898,-7.3971,-7.6436,-8.0103,-7.9552,-8.2873,-8.2428,-6.976,-5.7505,-4.5442,-3.3816,-1.9182,-0.7887,-0.4274,0.7624,1.5926,1.463,2.3298,2.7832,2.2097,2.7375,2.8937,2.2482,2.4521,2.5093,2.2085,2.1832,2.247,2.4301,2.2771,2.2145,2.2997,2.2085,2.1749,2.1702,1.8687,1.6879,1.6879,1.3002,1.1507,1.2117,1.1235,1.3066,1.7008,1.7008,1.9132,2.3084,2.3084,2.3385,2.4301,2.4301,2.4301,2.4301,2.4301,2.4301,2.4301,2.4301,2.4301,2.4221,2.3773,2.3549,2.3378,2.3022,2.2903,2.2903,2.2903,2.3127,2.3127,2.2533,2.2646,2.2449,2.1808,2.1567,2.0952,1.7613,1.9434,2.0651,1.7613,1.9434,2.1567,2.1567,2.247,2.3961,2.7212,2.8482,3.0023,3.328,3.4214,3.6331,4.1093,4.2475,4.5731,5.2557,5.3309,5.4516,5.7159,5.8649,5.9134,5.8601,6.0495,6.1708,6.241,6.6529,6.7369,6.4742,7.1613,7.3569,7.1047,7.4144,7.676,-6.5765,-6.371,-6.251,-6.1457,-5.9259,-5.6433,-5.3141,-5.0029,-4.4072,-3.0702,-2.2801,-1.5099,-0.4506,0.4949,1.229,1.6229,2.3322,2.8354,2.8778,3.2973,3.4667,3.0637,3.4167,3.5158,3.0786,3.0305,2.933,2.7257,2.5488,2.4301,2.4301,2.4301,2.4301,2.4301,2.4301,2.4301,2.4301,2.2169,2.1254,2.1254,1.7008,1.6101,1.7924,1.6101,1.731,2.1254,2.1254,2.247,2.4301,2.4301,2.4301,2.4301,2.4301,2.4301,2.4301,2.4301,2.4301,2.4301,2.4301,2.4301,2.4182,2.347,2.3233,2.3206,2.3048,2.2995,2.3022,2.318,2.343,2.3694,2.3852,2.3984,2.4129,2.4261,2.4301,2.3686,2.1567,2.2783,2.3686,2.1567,2.4261,2.6958,2.6958,2.8734,3.0801,3.2858,3.3019,3.4039,3.6119,4.2012,4.7639,5.1813,5.2953,5.4839,5.9102,5.882,5.8988,6.027,6.1885,6.2389,6.2022,6.477,6.6613,6.7378,7.0514,7.2099,7.2426,7.7366,7.9519,7.9755,8.2326,8.3959,-5.1159,-4.7208,-4.5255,-4.8317,-4.0078,-2.9102,-2.1345,-0.9493,0.3435,1.5872,1.9804,2.2564,2.7763,3.099,3.4028,3.7126,3.8063,3.9607,4.3601,4.2084,4.019,3.9033,3.9755,3.918,3.7029,3.3983,3.1674,3.0207,2.7839,2.6374,2.6374,2.5788,2.5188,2.5188,2.4601,2.4301,2.4301,2.4301,2.4301,2.4301,2.0952,2.0952,2.4301,2.0952,2.1254,2.4301,2.4301,2.4301,2.4301,2.4301,2.4301,2.4301,2.4301,2.4301,2.4301,2.4301,2.4301,2.4301,2.4248,2.4235,2.4103,2.4176,2.3917,2.3917,2.336,2.3114,2.3206,2.3457,2.3734,2.3958,2.3958,2.4129,2.4301,2.4301,2.4888,2.5188,2.5188,2.5774,2.6374,2.6374,2.9032,3.1081,3.1081,3.404,3.6395,3.6983,3.7305,3.7824,3.9288,4.9408,5.7497,6.0717,6.2094,6.29,6.2739,6.2722,6.2778,6.2734,6.5571,6.7358,6.7358,7.1073,7.3684,7.4541,7.5515,7.8038,8.1883,8.2669,8.475,8.7671,8.8687,8.9604,-3.4677,-3.3848,-3.4164,-2.7349,-1.7585,-0.4579,1.4355,2.8182,4.1359,5.5801,6.4611,6.6868,5.7578,5.8192,5.8961,5.533,5.6706,5.8184,5.855,5.8333,5.5291,4.7853,5.0683,4.8737,3.7946,3.9014,3.7569,3.0801,3.2858,3.463,3.463,3.1377,2.9314,2.9314,2.6074,2.4301,2.4301,2.4301,2.4301,2.4301,2.3699,2.3699,2.4301,2.3699,2.3699,2.4301,2.4301,2.4301,2.4301,2.4301,2.4301,2.4301,2.4301,2.4301,2.4301,2.4301,2.4301,2.4261,2.4024,2.3945,2.4469,2.7204,2.8198,2.764,2.452,2.3562,2.3786,2.3813,2.4037,2.4248,2.4248,2.4274,2.4301,2.4301,2.6958,2.9314,2.9314,3.197,3.463,3.463,3.4924,3.5219,3.5219,3.5808,3.7276,4.0804,4.1162,4.3801,5.0408,5.6033,6.0079,6.0939,6.1196,6.2952,6.6669,6.831,7.0614,7.3886,7.6424,7.7957,7.7957,8.017,8.1841,8.2784,8.4542,8.6145,8.76,8.8005,8.8483,8.9954,9.0041,9.0328,-2.2434,-1.7861,-1.2139,-0.0271,0.8586,2.1402,4.8277,6.0241,7.1175,8.9472,9.1533,8.8396,8.2905,7.7483,7.2308,6.7928,6.6483,6.6176,6.7094,6.4044,6.0995,5.8632,5.8402,5.5702,4.8098,4.6396,4.3338,3.7276,4.0402,4.0693,3.6395,3.463,3.3449,3.3449,2.9612,2.7556,2.7556,2.5488,2.4301,2.4301,2.4301,2.4301,2.4301,2.4301,2.4301,2.4301,2.4301,2.4301,2.4301,2.4301,2.4301,2.4301,2.4301,2.4301,2.4301,2.4301,2.4195,2.4348,2.6253,2.8401,3.0167,3.1499,3.2065,3.2302,3.0795,3.0404,3.059,3.081,3.0979,3.1098,3.1098,3.1098,3.1098,3.1098,3.2266,3.3449,3.3449,3.4924,3.6102,3.6102,3.7862,3.9324,3.9324,4.1386,4.4019,4.7733,4.8305,5.1233,5.9184,6.3025,6.6196,6.9943,7.0588,7.2278,7.5222,7.6012,7.6962,7.8424,8.0033,8.0833,8.0833,8.3444,8.4886,8.5323,8.7201,8.9474,9.1822,9.2409,9.4044,9.6498,9.7617,9.8409,-1.2644,-0.4042,0.5731,1.8339,2.94,4.4308,7.1569,8.2752,9.2645,11.1825,10.9183,10.3337,10.3031,9.4168,8.5083,7.9397,7.5594,7.3589,7.4077,7.0139,6.733,6.7435,6.5325,6.2077,5.7329,5.3735,5.0244,4.7027,4.7967,4.6435,4.0715,3.8719,3.7569,3.7569,3.3745,3.1674,3.1674,2.8734,2.7257,2.7257,2.7257,2.7257,2.7257,2.6374,2.5774,2.5774,2.4601,2.4301,2.4301,2.5488,2.5774,2.5774,2.6972,2.7257,2.7257,2.7257,2.7064,2.7355,3.1019,3.386,3.6035,3.6234,3.6419,3.6485,3.605,3.5591,3.5669,3.6003,3.6102,3.6102,3.6102,3.6102,3.6102,3.6102,3.6983,3.7569,3.7569,3.8447,3.9032,3.9032,4.1386,4.3729,4.4861,4.8045,5.1489,5.4561,5.496,5.8627,6.766,7.0716,7.368,7.8517,7.9319,8.0214,8.1667,8.2554,8.2751,8.2293,8.3711,8.4616,8.4616,8.6958,8.8489,8.9247,9.0695,9.3221,9.6556,9.7308,9.922,10.2106,10.3667,10.4546,-0.4142,0.4755,1.249,2.0093,3.9444,6.1096,7.7548,9.0509,10.3041,11.7276,11.8416,11.6553,11.5842,10.9649,10.1443,9.1592,8.6942,8.3743,8.163,8.0471,7.7895,7.2064,7.1363,6.8658,6.1541,6.0079,5.9663,5.9351,5.5421,5.2874,5.2591,4.57,4.1699,4.1699,3.7862,3.5808,3.5808,3.5513,3.5513,3.5513,3.5513,3.5513,3.5513,3.1674,2.9909,2.9612,2.5774,2.4301,2.4601,2.8436,2.9909,3.0207,3.404,3.5513,3.5513,3.5513,3.5243,3.5106,3.8408,3.963,3.9636,4.0565,4.0906,4.0424,3.7114,3.6062,3.6062,3.6102,3.6102,3.6102,3.6102,3.6102,3.6102,3.6102,3.9032,4.1699,4.1699,4.4645,4.7289,4.7289,4.7314,4.8696,5.2338,5.5899,5.8365,5.8641,5.9495,6.4013,7.5877,8.0016,8.2104,8.2622,8.2665,8.2622,8.2793,8.586,8.7918,8.7872,9.069,9.2543,9.2543,9.3708,9.531,9.735,9.8515,10.0117,10.2424,10.2473,10.3008,10.4204,10.4351,10.4985,0.1993,1.1586,2.1378,3.507,5.0229,6.6917,8.7012,9.7536,10.6682,11.9112,12.0041,11.8166,11.6574,11.12,10.4908,9.8139,9.3936,9.104,8.9865,8.6295,8.3546,8.227,8.0067,7.6264,6.9661,7.1214,7.0892,6.7608,6.3568,5.9986,5.7043,5.4412,5.1913,4.9445,4.56,4.2142,3.9929,3.7276,3.6102,3.6102,3.6102,3.6102,3.6102,3.463,3.404,3.404,3.2562,3.197,3.1988,3.3449,3.404,3.404,3.5513,3.6102,3.6062,3.5787,3.5394,3.5855,4.1975,4.4058,4.4033,4.4779,4.5252,4.5264,4.3995,4.3753,4.3753,4.3753,4.3753,4.3753,4.3753,4.3753,4.3753,4.3753,4.6587,4.9445,4.9445,5.2252,5.5061,5.5061,5.5061,5.5341,5.6734,5.8469,6.0867,6.3593,7.078,7.7389,8.1609,8.3527,8.528,8.6989,8.72,8.7692,8.935,9.0539,9.1324,9.1324,9.3271,9.4199,9.4199,9.5907,9.7225,9.8006,9.9128,10.0739,10.2887,10.2887,10.3423,10.44,10.5132,10.5278,0.6768,1.7808,3.0916,4.6156,6.0096,7.5255,9.4231,10.2992,10.9866,11.944,12.0346,11.9011,11.779,11.3271,10.8277,10.4335,9.9786,9.6899,9.6897,9.2116,8.9012,8.9904,8.7164,8.2969,7.7848,7.9402,7.9485,7.5968,6.9825,6.5324,6.3056,6.062,5.8064,5.5371,5.2701,5.0134,4.7629,4.5001,4.3275,4.1876,4.1876,4.1341,3.9929,3.874,3.8155,3.8155,3.6689,3.6102,3.6395,3.7569,3.8155,3.8155,3.9616,3.9821,3.9647,3.9321,3.8908,3.9339,4.4485,4.6201,4.6331,4.7084,4.7577,4.7889,4.7889,4.7889,4.7889,4.7889,4.7889,4.8176,4.9294,4.9838,5.0123,5.1205,5.3437,5.5371,5.5371,5.7289,5.8981,5.9238,5.927,5.9921,6.1259,6.2278,6.4423,6.998,7.7283,8.3269,8.6241,8.7948,8.9504,9.1197,9.231,9.3365,9.457,9.5962,9.6638,9.6638,9.7344,9.819,9.8594,9.9362,10.032,10.1077,10.148,10.2286,10.3244,10.3244,10.3312,10.3375,10.5087,10.5235,1.0407,2.4243,4.0351,5.1437,6.898,8.6515,9.9019,10.6722,11.294,11.8483,11.9661,11.9807,12.046,11.6617,11.2624,11.032,10.4754,10.1346,10.236,9.7826,9.4503,9.4197,9.162,8.8469,8.506,8.4842,8.458,8.4536,7.3996,6.8825,7.134,6.4566,6.0213,5.9225,5.9193,5.8917,5.8917,5.8917,5.7012,5.3748,5.3748,5.18,4.8176,4.4332,4.2547,4.2257,3.8427,3.6962,3.7256,4.0804,4.228,4.2571,4.64,4.7551,4.7058,4.7313,4.6948,4.6477,4.6477,4.6477,4.6686,4.781,4.8176,4.8176,4.8176,4.8176,4.8176,4.8176,4.8176,4.9008,5.262,5.3748,5.4561,5.8089,5.8917,5.9225,5.9225,5.9225,5.9451,6.044,6.0849,6.2198,6.6616,6.7594,7.009,7.7187,7.8293,8.1524,8.9916,9.3276,9.4982,9.5031,9.7849,9.9241,9.7877,10.1484,10.3947,10.3947,10.3947,10.4484,10.5719,10.4591,10.5021,10.7276,10.6023,10.4912,10.4392,10.4392,10.3296,10.1539,10.4662,10.5011,1.9881,3.2309,3.9589,5.5721,7.289,8.8597,9.8958,10.5788,11.1318,11.6065,11.717,11.7168,11.7076,11.575,11.4024,11.2239,10.785,10.4667,10.4631,10.1543,9.8631,9.6871,9.6665,9.62,9.5128,9.3442,9.1319,8.8514,8.2876,7.9685,7.9772,7.4918,7.0768,6.7712,6.4618,6.1693,5.8917,5.8917,5.8365,5.7289,5.7289,5.6734,5.5899,5.4722,5.4133,5.4103,5.3205,5.2644,5.2363,5.0811,5.0299,5.0042,4.841,4.7785,4.8094,5.2375,5.4073,5.4159,5.3921,5.4225,5.5046,5.5625,5.5899,5.5899,5.5899,5.5899,5.5899,5.5899,5.5899,5.6177,5.7012,5.7289,5.7567,5.8641,6.1546,6.3878,6.3878,6.629,6.8752,6.897,7.1363,7.357,7.4652,7.7592,8.0409,8.2307,8.4708,8.803,9.3038,9.5561,9.8023,10.1086,10.2908,10.3975,10.3656,10.4561,10.5235,10.5235,10.5235,10.5396,10.5719,10.5396,10.5557,10.6202,10.588,10.6379,10.7475,10.7475,10.7622,10.8037,10.8727,10.8464,1.7133,3.5226,4.5608,5.7701,7.2647,8.7123,9.7562,10.3794,10.8493,11.2163,11.4105,11.4751,11.3484,11.3192,11.3306,11.361,11.003,10.7596,10.8272,10.5346,10.2466,10.0659,10.1599,10.1431,9.8647,9.625,9.3892,9.2155,8.7543,8.5236,8.5815,8.2147,7.8602,7.5566,7.1753,6.8186,6.5646,6.4102,6.2782,6.1147,6.1147,6.0292,5.8917,5.8917,5.8917,5.8917,5.8917,5.8917,5.8641,5.6734,5.565,5.565,5.3408,5.242,5.2693,5.6533,5.7968,5.7968,5.7968,5.8225,5.8645,5.8789,5.8917,5.8917,5.8917,5.8917,5.8917,5.8917,5.8917,5.9257,6.1237,6.1855,6.223,6.4221,6.7897,7.0677,7.0677,7.407,7.7001,7.7404,7.9609,8.146,8.1193,8.3556,8.6291,8.8349,9.189,9.4781,9.6642,9.9211,10.1833,10.4363,10.5343,10.6017,10.6837,10.7956,10.8842,10.8842,10.8842,10.9065,10.9622,10.9121,10.9121,10.9622,10.9121,10.8895,10.9337,10.9337,10.8966,10.8488,10.967,11.0687,0.9625,3.493,5.329,5.8712,7.1282,8.5055,0.0,10.1071,10.4841,10.7617,11.0657,11.197,10.9784,10.995,11.1163,11.296,11.0687,10.9284,11.1195,10.8241,10.5777,10.4971,10.5988,10.4594,9.9204,9.6437,9.5269,9.552,9.0486,8.8299,9.0803,8.7183,8.4312,8.2466,7.8971,7.6703,7.554,7.2519,6.9366,6.6289,6.6289,6.4642,6.1286,6.1286,6.1286,6.1286,6.0773,6.0807,6.0533,5.9743,5.9468,5.9468,5.9193,5.9385,6.0314,6.0947,6.0972,6.0797,6.0632,6.0632,6.0665,6.0325,6.0017,6.0017,6.0017,6.0017,6.005,6.039,6.0423,6.1413,6.5769,6.7077,6.8115,7.2756,7.6236,7.864,7.8517,8.1233,8.3619,8.4143,8.5587,8.651,8.6244,8.7526,9.0136,9.5373,9.8898,10.0733,10.0176,10.3319,10.5572,10.5963,10.6475,10.7226,10.8935,11.1614,11.3192,11.3192,11.3192,11.3716,11.4821,11.3774,11.3716,11.4879,11.3774,11.24,11.0725,11.0725,10.9344,10.6865,10.9622,11.2089,0.0,0.0,0.0,0.0,0.0,0.0,0.0,9.8354,10.159,10.4718,10.6633,10.7341,10.6224,10.8088,10.8345,10.4283,10.4818,10.6197,10.7184,10.6783,10.6567,10.7261,10.8106,10.8028,10.6288,10.4798,10.3058,10.0693,9.7958,9.6834,9.7167,9.1965,8.8175,8.6983,8.2852,8.0248,7.9049,7.8546,7.7747,7.7199,7.7199,7.665,7.6058,7.6058,7.6058,7.5804,7.3061,7.1801,7.154,6.5753,6.336,6.3088,6.0017,6.4583,7.2886,7.3043,7.1761,6.9812,6.8518,6.8481,6.8962,6.7992,6.7808,6.7808,6.7808,6.7808,6.7919,6.8581,6.9036,7.0032,7.4528,7.5569,7.6637,8.0194,8.2141,8.2747,8.2016,8.3575,8.5014,8.4448,8.7426,8.9931,8.9931,9.2538,9.6597,10.2654,10.3372,10.3249,10.3264,10.509,10.6789,10.8008,11.0182,11.2073,11.3514,11.4052,11.453,11.453,11.453,11.4647,11.4879,11.4647,11.4647,11.4879,11.4647,11.4436,11.3976,11.3976,11.3763,11.3065,11.3706,11.4188,0.0,0.0,0.0,0.0,0.0,0.0,0.0,0.0,0.0,0.0,0.0,10.0963,10.0268,0.0,10.3146,10.2517,10.3668,10.4782,10.5398,10.6428,10.7426,10.8428,10.8787,10.8268,10.625,10.5856,10.4363,10.1262,9.9445,9.8309,9.8309,9.4003,9.0872,8.9874,8.6066,8.3557,8.2524,8.1529,8.0746,8.0746,8.1478,8.1697,8.1697,8.1697,8.1434,8.0746,7.8976,7.7958,7.7283,7.3836,7.2283,7.2283,7.0762,7.4096,7.9863,8.0371,7.9518,7.8169,7.6822,7.5646,7.4519,7.2952,7.1288,7.0009,7.0009,7.0312,7.073,7.1148,7.2874,7.5222,7.7901,7.9976,8.1609,8.3924,8.6596,8.8092,8.7104,8.9397,9.1524,9.0507,9.2444,9.4758,9.5852,9.8773,10.2255,10.5488,10.606,10.6409,10.7181,10.8758,11.0751,11.3479,11.4958,11.6159,11.6799,11.6857,11.6275,11.4996,11.4879,11.4879,11.4879,11.4879,11.4879,11.4879,11.4879,11.4879,11.4879,11.4879,11.4879,11.4937,11.5519,11.5519,0.0,0.0,0.0,0.0,0.0,0.0,0.0,0.0,0.0,0.0,0.0,0.0,0.0,0.0,0.0,10.1145,10.2455,10.3368,10.4017,10.5036,10.6174,10.8092,10.8134,10.71,10.4994,10.5184,10.4167,10.1485,9.9269,9.8236,9.8924,9.5274,9.2878,9.2275,8.9117,8.6764,8.5689,8.3803,8.2925,8.297,8.4338,0.0,8.4875,8.4875,8.4472,8.3505,8.253,8.1749,8.1044,8.0298,8.0049,8.0386,8.2382,8.3773,8.471,8.4962,8.4535,8.3838,8.2706,8.0552,7.7954,7.63,7.3755,7.154,7.1958,7.2623,0.0,7.3522,7.625,7.9502,8.091,8.3521,8.6068,8.7392,9.0479,9.2841,9.1953,9.4614,9.7127,9.6249,9.7435,9.9033,10.0729,10.425,10.73,10.8148,10.951,11.0881,11.206,11.3147,11.4821,11.7729,11.802,11.802,11.802,11.9075,11.8256,11.5054,11.5917,11.6326,11.5984,11.5984,11.5868,11.5635,11.6101,11.5868,11.4879,11.5403,11.5519,11.5286,11.6043,11.5635,0.0,0.0,0.0,0.0,0.0,0.0,0.0,0.0,0.0,0.0,0.0,0.0,0.0,0.0,0.0,0.0,9.7238,10.0363,10.127,9.9524,9.9849,10.4756,10.5233,10.5545,10.6507,10.7643,10.7232,10.4911,10.1739,10.1056,10.3644,9.7108,0.0,0.0,0.0,8.9193,8.8124,8.7758,8.7806,8.7806,8.9597,9.0512,9.0512,9.0512,9.0464,9.0271,8.6335,8.4614,8.4233,8.1292,8.0049,8.0796,8.6684,8.9597,9.0367,8.8371,8.5367,8.2491,8.0711,0.0,0.0,7.835,7.7758,7.7683,7.854,7.9694,8.064,8.1198,8.2621,8.4624,8.8695,9.0008,9.1135,9.4486,9.4963,9.4582,9.4485,9.483,9.5126,9.5029,9.8177,10.0729,10.1058,10.6756,11.2749,11.6771,11.7543,11.7703,11.7877,11.6933,11.6101,11.5403,11.5345,0.0,11.5345,11.974,12.0334,11.5264,11.9531,12.1586,12.0217,12.0056,11.9533,11.8369,12.058,11.9474,11.4879,11.7206,11.7729,11.6566,11.5577,11.3774,0.0,0.0,0.0,0.0,0.0,0.0,0.0,0.0,0.0,0.0,0.0,0.0,0.0,0.0,0.0,0.0,9.4207,9.5625,9.6133,9.5914,9.7303,10.1986,10.3565,10.4145,10.4511,10.5244,10.463,10.2074,10.0587,9.8818,9.6917,9.4081,9.232,9.1461,9.0554,8.9806,8.9367,8.9953,9.0835,9.1746,9.2128,9.3054,9.3872,9.3554,9.4041,9.4958,9.1378,9.0318,9.1242,8.7402,8.5776,8.611,0.0,0.0,0.0,0.0,9.0046,8.8526,8.7128,8.5395,8.34,8.1779,8.0031,7.841,7.8801,7.9832,8.0833,8.1748,8.4432,8.7789,8.9531,9.2184,9.4342,9.5365,9.5614,9.5565,9.4931,9.6651,9.8514,9.8514,10.1416,0.0,10.7042,11.1517,11.6081,11.9372,11.93,11.9067,11.9823,11.8078,11.7148,11.8195,11.7613,11.7148,11.7148,12.0662,0.0,0.0,0.0,11.9836,11.8552,11.7005,0.0,0.0,0.0,11.728,11.5984,11.6927,0.0,0.0,11.6696,11.4527,0.0,0.0,0.0,0.0,0.0,0.0,0.0,0.0,0.0,0.0,0.0,0.0,0.0,0.0,0.0,0.0,8.9655,8.9971,8.9908,8.9777,9.2071,9.8221,9.9491,10.0325,10.1505,10.1733,10.0985,9.9419,9.8332,9.6663,9.4672,9.3617,9.257,9.1353,9.0967,9.0968,9.1495,9.2019,9.326,9.4936,9.5287,9.6332,9.7408,9.7365,9.8246,9.9244,9.6891,9.5895,9.5928,9.2971,9.0947,9.0284,9.1728,9.2009,9.1463,9.2204,9.2029,9.1222,9.0197,8.8349,8.5881,8.4334,8.2316,8.0638,8.0953,8.1896,8.3063,8.3781,8.7233,9.0428,9.0428,9.2607,9.4882,9.4101,9.4981,9.5665,9.5121,9.8364,10.1556,10.1632,10.4684,10.8289,11.1784,11.4643,11.7148,11.9765,11.9707,11.9649,12.058,11.9067,11.8311,11.9533,11.9368,11.9035,11.8683,12.2372,12.319,11.9916,12.0622,12.0264,11.7908,11.5878,11.5808,11.731,11.7276,11.7336,0.0,0.0,0.0,0.0,0.0,0.0,0.0,0.0,0.0,0.0,0.0,0.0,0.0,0.0,0.0,0.0,0.0,0.0,0.0,0.0,0.0,0.0,0.0,0.0,8.3139,7.941,8.1121,9.2704,9.2047,9.2853,9.8448,9.7897,9.8015,9.9341,9.596,9.6332,10.2677,9.7856,9.6022,9.8715,9.5088,9.3603,9.4934,9.4987,9.5576,9.6913,10.0184,10.1791,10.1845,10.3077,10.3666,10.3786,10.2658,9.9915,9.6208,9.5979,9.3583,9.0223,9.3448,9.3201,9.0838,9.0889,8.9237,8.678,8.5706,8.5365,8.5094,8.5045,8.5727,8.6749,8.782,8.9621,9.1086,9.1135,9.2104,9.2931,9.2931,9.2491,9.1758,9.171,9.3121,9.4625,9.5597,9.9134,10.2273,10.3505,10.7486,11.1301,11.2637,11.4123,11.5868,11.8486,11.9882,0.0,12.0696,12.0638,11.9649,11.7206,11.8998,11.9978,11.8595,12.5654,12.7953,12.2595,12.5939,12.5614,12.048,12.0085,12.1144,12.3441,12.383,12.2617,12.0111,0.0,0.0,0.0,0.0,0.0,0.0,0.0,0.0,0.0,0.0,0.0,0.0,0.0,0.0,0.0,0.0,0.0,0.0,0.0,0.0,0.0,0.0,0.0,0.0,7.7917,7.9358,9.0192,8.833,8.8507,9.4639,9.3534,9.3183,9.4753,9.4261,9.347,9.2944,9.489,9.5346,9.404,9.4493,9.4856,9.488,9.488,9.5751,9.7194,9.8134,9.9055,10.0133,10.1221,10.3121,10.5638,10.3171,10.3004,10.4105,9.9697,9.5931,9.3119,9.2504,9.1548,9.0467,8.8815,8.7581,8.6682,8.6341,8.6194,8.6097,8.5365,8.5365,8.5755,8.6146,8.6731,8.7463,8.8195,8.9172,9.0148,9.088,9.1856,9.2725,9.3071,9.4858,9.6693,9.7296,10.0734,10.4148,10.5418,10.7994,11.1531,11.7329,11.5808,11.5917,12.3043,12.1423,11.9416,11.9416,12.097,12.1765,12.087,12.308,12.411,12.2693,12.5638,12.6381,12.3585,12.3844,12.2869,12.0269,11.8432,11.801,11.8867,11.9735,11.9615,11.8639,0.0,0.0,0.0,0.0,0.0,0.0,0.0,0.0,0.0,0.0,0.0,0.0,0.0,0.0,0.0,0.0,0.0,0.0,0.0,0.0,0.0,0.0,0.0,0.0,0.0,0.0,8.5461,8.4128,0.0,9.0543,8.8922,8.8205,9.0117,9.0465,9.0371,8.9448,9.3477,9.5275,9.4321,9.5381,9.6112,9.6879,9.7521,9.8023,9.8818,10.0975,10.1769,10.1486,10.3081,10.5031,10.6878,10.4825,10.478,10.5527,10.0958,9.7911,9.6222,9.3693,9.1956,9.0729,8.8119,8.6462,8.5698,8.4657,8.4486,8.4291,8.3217,8.3119,8.351,8.39,8.4897,8.5945,8.5586,8.768,8.9739,8.8555,9.0784,9.3083,9.2969,9.5743,9.8459,9.9321,10.3097,10.6253,10.6197,10.705,11.023,11.7512,11.5981,11.6234,12.4114,12.2302,12.0356,12.0662,12.1937,12.2757,12.328,12.5574,12.6781,12.5333,12.6671,12.7048,12.6143,12.4332,12.2845,12.2039,11.8618,11.6944,11.7348,11.7259,11.6799,0.0,0.0,0.0,0.0,0.0,0.0,0.0,0.0,0.0,0.0,0.0,0.0,0.0,0.0,0.0,0.0,0.0,0.0,0.0,0.0,0.0,0.0,0.0,0.0,0.0,0.0,0.0,7.9193,7.9746,0.0,0.0,0.0,0.0,8.5953,8.5307,8.7026,9.2158,9.3539,9.5753,9.8907,9.678,9.7189,10.0204,10.1575,10.2027,10.1463,10.7876,10.8973,10.5374,10.8518,10.8795,10.7164,10.6969,10.4839,10.117,9.9817,9.9174,9.8942,9.6499,9.3982,9.122,8.8738,8.6045,8.3473,8.1031,8.0093,7.9849,7.9078,7.9264,8.0289,8.1525,8.4149,0.0,0.0,8.7921,9.1462,8.6629,8.9105,9.2658,9.151,9.5394,9.9679,10.0945,10.5386,10.819,10.5766,10.5299,10.7488,11.3975,0.0,11.6881,12.2035,12.2775,12.308,12.4141,12.3373,12.308,12.4394,12.6826,12.7823,12.6526,12.8582,12.9807,12.9676,12.7045,12.5401,12.527,12.0485,11.8255,11.9088,11.6703,0.0,0.0,0.0,0.0,0.0,0.0,0.0,0.0,0.0,0.0,0.0,0.0,0.0,0.0,0.0,0.0,0.0,0.0,0.0,0.0,0.0,0.0,0.0,0.0,0.0,0.0,6.612,6.9723,7.7152,7.5516,7.6836,0.0,0.0,0.0,0.0,0.0,0.0,8.8076,8.997,9.1055,9.1418,9.3445,9.4654,9.478,9.498,9.6787,10.0001,9.9984,10.13,10.4084,10.2923,10.3385,10.5185,10.3646,10.2867,10.2486,9.7897,9.5124,9.3823,9.2377,9.0142,8.702,8.4501,8.2496,8.0939,7.9362,7.8389,7.7976,7.8338,7.7815,7.7222,7.8902,0.0,0.0,0.0,0.0,8.7761,8.8265,8.9977,9.1666,9.2517,9.5814,9.9006,9.9713,10.3389,10.5799,10.3814,10.4174,10.7946,11.7166,11.7343,0.0,12.7191,12.5029,12.2583,12.303,12.4335,12.5757,12.7245,13.0604,13.2184,13.0615,13.0135,12.8952,12.6782,12.5007,12.3034,12.0864,11.9553,11.8288,11.7444,0.0,0.0,0.0,0.0,0.0,0.0,0.0,0.0,0.0,0.0,0.0,0.0,0.0,0.0,0.0,0.0,0.0,0.0,0.0,0.0,0.0,0.0,0.0,0.0,0.0,0.0,0.0,6.2361,6.6494,7.1505,7.2406,7.3794,0.0,0.0,0.0,0.0,0.0,0.0,0.0,0.0,0.0,9.0549,9.152,9.2176,9.2602,9.2341,9.3144,9.4761,9.5135,9.6144,9.7571,9.7862,9.8439,9.9066,9.8605,9.7842,9.6605,9.3422,9.1115,8.9595,0.0,0.0,0.0,0.0,8.1357,8.0036,7.8267,7.734,7.6873,7.6977,0.0,0.0,0.0,0.0,0.0,0.0,0.0,8.748,8.6578,8.8764,9.1684,9.2447,9.5119,9.8077,9.9969,10.1674,10.2611,10.2227,10.2804,10.6344,11.5554,11.6523,0.0,0.0,0.0,12.3355,12.3669,12.464,12.5866,12.7801,13.0718,13.2043,13.1122,12.9741,12.8229,12.6585,12.3955,12.1785,12.0141,11.8234,11.6524,0.0,0.0,0.0,0.0,0.0,0.0,0.0,0.0,0.0,0.0,0.0,0.0,0.0,0.0,0.0,0.0,0.0,0.0,0.0,0.0,0.0,0.0,0.0,0.0,0.0,0.0,0.0,0.0,0.0,6.1188,6.4158,0.0,0.0,0.0,0.0,0.0,0.0,0.0,0.0,0.0,0.0,0.0,0.0,0.0,8.8992,9.0873,9.0882,9.0235,8.9168,9.2207,9.2697,9.0721,9.3777,9.3907,9.1917,9.3359,0.0,8.7956,8.8104,0.0,0.0,0.0,0.0,0.0,0.0,0.0,0.0,0.0,0.0,0.0,0.0,0.0,0.0,0.0,0.0,0.0,0.0,0.0,0.0,0.0,0.0,9.1397,9.1318,9.3532,9.6383,9.9897,9.9637,9.9308,10.0795,10.1168,10.369,0.0,0.0,0.0,0.0,0.0,0.0,12.515,12.4571,12.4849,12.7213,12.836,12.9018,12.9018,12.79,12.6848,12.6256,12.31,12.0864,11.9878,11.6721,0.0,0.0,0.0,0.0,0.0,0.0,0.0,0.0,0.0,0.0,0.0,0.0,0.0,0.0,0.0,0.0,0.0,0.0,0.0,0.0,0.0,0.0,0.0,0.0,0.0,0.0,0.0,0.0,0.0,0.0,0.0,0.0,0.0,0.0,0.0,0.0,0.0,0.0,0.0,0.0,0.0,0.0,0.0,0.0,0.0,0.0,0.0,0.0,0.0,0.0,8.9766,9.0585,9.4271,9.1635,9.0914,9.1737,8.9995,8.7318,8.4156,8.562,0.0,0.0,0.0,0.0,0.0,0.0,0.0,0.0,0.0,0.0,0.0,0.0,0.0,0.0,0.0,0.0,0.0,0.0,0.0,0.0,0.0,0.0,8.8853,8.93,9.1413,9.3839,9.6013,0.0,0.0,0.0,0.0,0.0,0.0,0.0,0.0,0.0,0.0,0.0,12.3732,12.3707,12.4139,12.5796,12.5138,12.4612,12.4612,12.4349,12.2639,11.8957,12.0338,11.8562,0.0,0.0,0.0,0.0,0.0,0.0,0.0,0.0,0.0,0.0,0.0,0.0,0.0,0.0,0.0,0.0,0.0,0.0,0.0,0.0,0.0,0.0,0.0,0.0,0.0,0.0,0.0,0.0,0.0,0.0,0.0,0.0,0.0,0.0,0.0,0.0,0.0,0.0,0.0,0.0,0.0,0.0,0.0,0.0,0.0,0.0,0.0,0.0,0.0,0.0,0.0,0.0,0.0,0.0,0.0,0.0,0.0,0.0,8.5045,8.3901,0.0,0.0,0.0,0.0,0.0,0.0,0.0,0.0,0.0,0.0,0.0,0.0,0.0,0.0,0.0,0.0,0.0,0.0,0.0,0.0,0.0,0.0,0.0,0.0,0.0,0.0,0.0,0.0,0.0,0.0,0.0,0.0,0.0,0.0,0.0,0.0,0.0,0.0,0.0,0.0,12.1127,12.185,12.2902,12.4349,12.3165,12.2311,12.2311,12.1653,12.0601,11.922,11.7642,0.0,0.0,0.0,0.0,0.0,0.0,0.0,0.0,0.0,0.0,0.0,0.0,0.0,0.0,0.0,0.0,0.0,0.0,0.0,0.0,0.0,0.0,0.0,0.0,0.0,0.0,0.0,0.0,0.0,0.0,0.0,0.0,0.0,0.0,0.0,0.0,0.0,0.0,0.0,0.0,0.0,0.0,0.0,0.0,0.0,0.0,0.0,0.0,0.0,0.0,0.0,0.0,0.0,0.0,0.0,0.0,0.0,0.0,0.0,7.9404,7.973,0.0,0.0,0.0,0.0,0.0,0.0,0.0,0.0,0.0,0.0,0.0,0.0,0.0,0.0,0.0,0.0,0.0,0.0,0.0,0.0,0.0,0.0,0.0,0.0,0.0,0.0,0.0,0.0,0.0,0.0,0.0,0.0,0.0,0.0,0.0,0.0,0.0,0.0,0.0,0.0,11.7116,11.9351,12.1127,12.1982,12.0995,12.0206,11.9878,11.8562,11.8102,11.8891,11.4617,0.0,0.0,0.0,0.0,0.0,0.0,0.0,0.0,0.0,0.0,0.0,0.0,0.0,0.0,0.0,0.0,0.0,0.0,0.0,0.0,0.0,0.0,0.0,0.0,0.0,0.0,0.0,0.0,0.0,0.0,0.0,0.0,0.0,0.0,0.0,0.0,0.0,0.0,0.0,0.0,0.0,0.0,0.0,0.0,0.0,0.0,0.0,0.0,0.0,0.0,0.0,0.0,0.0,0.0,0.0,0.0,0.0,0.0,0.0,0.0,0.0,0.0,0.0,0.0,0.0,0.0,0.0,0.0,0.0,0.0,0.0,0.0,0.0,0.0,0.0,0.0,0.0,0.0,0.0,0.0,0.0,0.0,0.0,0.0,0.0,0.0,0.0,0.0,0.0,0.0,0.0,0.0,0.0,0.0,0.0,0.0,0.0,0.0,0.0,0.0,0.0,11.1197,11.5998,11.8891,11.7576,11.7313,11.6721,11.5406,11.3959,11.2644,11.1526,0.0,0.0,0.0,0.0,0.0,0.0,0.0,0.0,0.0,0.0,0.0,0.0,0.0,0.0,0.0,0.0,0.0,0.0,0.0,0.0,0.0,0.0,0.0,0.0,0.0,0.0,0.0,0.0,0.0,0.0,0.0,0.0,0.0,0.0,0.0,0.0,0.0,0.0,0.0,0.0,0.0,0.0,0.0,0.0,0.0,0.0,0.0,0.0,0.0,0.0,0.0,0.0,0.0,0.0,0.0,0.0,0.0,0.0,0.0,0.0,0.0,0.0,0.0,0.0,0.0,0.0,0.0,0.0,0.0,0.0,0.0,0.0,0.0,0.0,0.0,0.0,0.0,0.0,0.0,0.0,0.0,0.0,0.0,0.0,0.0,0.0,0.0,0.0,0.0,0.0,0.0,0.0,0.0,0.0,0.0,0.0,0.0,0.0,0.0,0.0,0.0,0.0,11.0277,11.3959,11.6918,11.8102,11.5866,11.4354,11.4683,11.3367,11.2671,11.3106,0.0,0.0,0.0,0.0,0.0,0.0,0.0,0.0,0.0,0.0,0.0,0.0,0.0,0.0,0.0,0.0,0.0,0.0,0.0,0.0,0.0,0.0,0.0,0.0,0.0,0.0,0.0,0.0,0.0,0.0,0.0,0.0,0.0,0.0,0.0,0.0,0.0,0.0,0.0,0.0,0.0,0.0,0.0,0.0,0.0,0.0,0.0,0.0,0.0,0.0,0.0,0.0,0.0,0.0,0.0,0.0,0.0,0.0,0.0,0.0,0.0,0.0,0.0,0.0,0.0,0.0,0.0,0.0,0.0,0.0,0.0,0.0,0.0,0.0,0.0,0.0,0.0,0.0,0.0,0.0,0.0,0.0,0.0,0.0,0.0,0.0,0.0,0.0,0.0,0.0,0.0,0.0,0.0,0.0,0.0,0.0,0.0,0.0,0.0,0.0,0.0,0.0,10.837,11.2118,11.534,11.705,11.5322,11.3934,11.4025,11.3207,11.2699,11.2906,0.0,0.0,0.0,0.0,0.0,0.0,0.0,0.0,0.0,0.0,0.0,0.0,0.0,0.0,0.0,0.0,0.0,0.0,0.0,0.0,0.0,0.0,0.0,0.0,0.0,0.0,0.0,0.0,0.0,0.0,0.0,0.0,0.0,0.0,0.0,0.0,0.0,0.0,0.0,0.0,0.0,0.0,0.0,0.0,0.0,0.0,0.0,0.0,0.0,0.0,0.0,0.0,0.0,0.0,0.0,0.0,0.0,0.0,0.0,0.0,0.0,0.0,0.0,0.0,0.0,0.0,0.0,0.0,0.0,0.0,0.0,0.0,0.0,0.0,0.0,0.0,0.0,0.0,0.0,0.0,0.0,0.0,0.0,0.0,0.0,0.0,0.0,0.0,0.0,0.0,0.0,0.0,0.0,0.0,0.0,0.0,0.0,0.0,0.0,0.0,0.0,0.0,10.4096,11.0277,11.4157,11.2776,11.5376,11.5849,11.2786,11.264,11.1434,0.0,0.0,0.0,0.0,0.0,0.0,0.0,0.0,0.0,0.0,0.0,0.0,0.0,0.0,0.0,0.0,0.0,0.0,0.0,0.0,0.0,0.0,0.0,0.0,0.0,0.0,0.0,0.0,0.0,0.0,0.0,0.0,0.0,0.0,0.0,0.0,0.0,0.0,0.0,0.0,0.0,0.0,0.0,0.0,0.0,0.0,0.0,0.0,0.0,0.0,0.0,0.0,0.0,0.0,0.0,0.0,0.0,0.0,0.0,0.0,0.0,0.0,0.0,0.0,0.0,0.0,0.0,0.0,0.0,0.0,0.0,0.0,0.0,0.0,0.0,0.0,0.0,0.0,0.0,0.0,0.0,0.0,0.0,0.0,0.0,0.0,0.0,0.0,0.0,0.0,0.0,0.0,0.0,0.0,0.0,0.0,0.0,0.0,0.0,0.0,0.0,0.0,0.0,10.5223,10.9904,11.3909,11.5581,11.5582,11.6107,11.7296,11.5486,11.3443,11.1484,0.0,0.0,0.0,0.0,0.0,0.0,0.0,0.0,0.0,0.0,0.0,0.0,0.0,0.0,0.0,0.0,0.0,0.0,0.0,0.0,0.0,0.0,0.0,0.0,0.0,0.0,0.0,0.0,0.0,0.0,0.0,0.0,0.0,0.0,0.0,0.0,0.0,0.0,0.0,0.0,0.0,0.0,0.0,0.0,0.0,0.0,0.0,0.0,0.0,0.0,0.0,0.0,0.0,0.0,0.0,0.0,0.0,0.0,0.0,0.0,0.0,0.0,0.0,0.0,0.0,0.0,0.0,0.0,0.0,0.0,0.0,0.0,0.0,0.0,0.0,0.0,0.0,0.0,0.0,0.0,0.0,0.0,0.0,0.0,0.0,0.0,0.0,0.0,0.0,0.0,0.0,0.0,0.0,0.0,0.0,0.0,0.0,0.0,0.0,0.0,0.0,0.0,0.0,10.9019,11.274,11.5269,11.6292,11.6988,11.7763,11.6701,11.4247,11.0403,0.0,0.0,0.0,0.0,0.0,0.0,0.0,0.0,0.0,0.0,0.0,0.0,0.0,0.0,0.0,0.0,0.0,0.0,0.0,0.0,0.0,0.0,0.0,0.0,0.0,0.0,0.0,0.0,0.0,0.0,0.0,0.0,0.0,0.0,0.0,0.0,0.0,0.0,0.0,0.0,0.0,0.0,0.0,0.0,0.0,0.0,0.0,0.0,0.0,0.0,0.0,0.0,0.0,0.0,0.0,0.0,0.0,0.0,0.0,0.0,0.0,0.0,0.0,0.0,0.0,0.0,0.0,0.0,0.0,0.0,0.0,0.0,0.0,0.0,0.0,0.0,0.0,0.0,0.0,0.0,0.0,0.0,0.0,0.0,0.0,0.0,0.0,0.0,0.0,0.0,0.0,0.0,0.0,0.0,0.0,0.0,0.0,0.0,0.0,0.0,0.0,0.0,0.0,10.7551,11.1104,11.2745,11.6706,11.8153,11.5618,11.6577,11.4069,10.6538,10.6124,0.0,0.0,0.0,0.0,0.0,0.0,0.0,0.0,0.0,0.0,0.0,0.0,0.0,0.0,0.0,0.0,0.0,0.0,0.0,0.0,0.0,0.0,0.0,0.0,0.0,0.0,0.0,0.0,0.0,0.0,0.0,0.0,0.0,0.0,0.0,0.0,0.0,0.0,0.0,0.0,0.0,0.0,0.0,0.0,0.0,0.0,0.0,0.0,0.0,0.0,0.0,0.0,0.0,0.0,0.0,0.0,0.0,0.0,0.0,0.0,0.0,0.0,0.0,0.0,0.0,0.0,0.0,0.0,0.0,0.0,0.0,0.0,0.0,0.0,0.0,0.0,0.0,0.0,0.0,0.0,0.0,0.0,0.0,0.0,0.0,0.0,0.0,0.0,0.0,0.0,0.0,0.0,0.0,0.0,0.0,0.0,0.0,0.0,0.0,0.0,0.0,0.0,10.6649,11.0159,11.4066,11.4454,11.5536,11.8396,11.6779,11.3397,10.7942,10.7568,0.0,0.0,0.0,0.0,0.0,0.0,0.0,0.0,0.0,0.0,0.0,0.0,0.0,0.0,0.0,0.0,0.0,0.0,0.0,0.0,0.0,0.0,0.0,0.0,0.0,0.0,0.0,0.0,0.0,0.0,0.0,0.0,0.0,0.0,0.0,0.0,0.0,0.0,0.0,0.0,0.0,0.0,0.0,0.0,0.0,0.0,0.0,0.0,0.0,0.0,0.0,0.0,0.0,0.0,0.0,0.0,0.0,0.0,0.0,0.0,0.0,0.0,0.0,0.0,0.0,0.0,0.0,0.0,0.0,0.0,0.0,0.0,0.0,0.0,0.0,0.0,0.0,0.0,0.0,0.0,0.0,0.0,0.0,0.0,0.0,0.0,0.0,0.0,0.0,0.0,0.0,0.0,0.0,0.0,0.0,0.0,0.0,0.0,0.0,0.0,0.0,0.0,10.2959,10.6678,11.1436,11.2966,11.4271,11.5356,11.5234,11.2522,10.6315,10.5958,0.0,0.0,0.0,0.0,0.0,0.0,0.0,0.0,0.0,0.0,0.0,0.0,0.0,0.0,0.0,0.0,0.0,0.0,0.0,0.0,0.0,0.0,0.0,0.0,0.0,0.0,0.0,0.0,0.0,0.0,0.0,0.0,0.0,0.0,0.0,0.0,0.0,0.0,0.0,0.0,0.0,0.0,0.0,0.0,0.0,0.0,0.0,0.0,0.0,0.0,0.0,0.0,0.0,0.0,0.0,0.0,0.0,0.0,0.0,0.0,0.0,0.0,0.0,0.0,0.0,0.0,0.0,0.0,0.0,0.0,0.0,0.0,0.0,0.0,0.0,0.0,0.0,0.0,0.0,0.0,0.0,0.0,0.0,0.0,0.0,0.0,0.0,0.0,0.0,0.0,0.0,0.0,0.0,0.0,0.0,0.0,0.0,0.0,0.0,0.0,0.0,0.0,0.0,10.2369,10.6529,11.1024,11.2808,11.0596,11.2665,11.0881,10.3532,0.0,0.0,0.0,0.0,0.0,0.0,0.0,0.0,0.0,0.0,0.0,0.0,0.0,0.0,0.0,0.0,0.0,0.0,0.0,0.0,0.0,0.0,0.0,0.0,0.0,0.0,0.0,0.0,0.0,0.0,0.0,0.0,0.0,0.0,0.0,0.0,0.0,0.0,0.0,0.0,0.0,0.0,0.0,0.0,0.0,0.0,0.0,0.0,0.0,0.0,0.0,0.0,0.0,0.0,0.0,0.0,0.0,0.0,0.0,0.0,0.0,0.0,0.0,0.0,0.0,0.0,0.0,0.0,0.0,0.0,0.0,0.0,0.0,0.0,0.0,0.0,0.0,0.0,0.0,0.0,0.0,0.0,0.0,0.0,0.0,0.0,0.0,0.0,0.0,0.0,0.0,0.0,0.0,0.0,0.0,0.0,0.0,0.0,0.0,0.0,0.0,0.0,0.0,0.0,10.0037,10.1952,10.5173,10.8098,11.0239,10.9668,10.6957,10.1748,0.0,0.0,0.0,0.0,0.0,0.0,0.0,0.0,0.0,0.0,0.0,0.0,0.0,0.0]}]]]